<?xml version="1.0" encoding="UTF-8" standalone="no" ?>
<gpx xmlns="http://www.topografix.com/GPX/1/1" xmlns:xsi="http://www.w3.org/2001/XMLSchema-instance" xsi:schemaLocation="http://www.topografix.com/GPX/1/1 http://www.topografix.com/GPX/1/1/gpx.xsd" version="1.1" creator="VisuGPX - https://www.visugpx.com">
  <metadata>
    <name>20260911 Bonnemare</name>
    <desc><![CDATA[Circuit découverte à ne pas réaliser pour cause de domaine privé dans la 2 ème partie]]></desc>
  </metadata>
  <trk>
    <name><![CDATA[SityTrail - 20260911 Bonnemare]]></name>
    <trkseg>
      <trkpt lat="49.33159" lon="1.33472">
        <ele>138</ele>
        <time>2026-08-11T12:01:56.380Z</time>
      </trkpt>
      <trkpt lat="49.33159" lon="1.33473">
        <ele>138</ele>
        <time>2026-08-11T12:02:57.368Z</time>
      </trkpt>
      <trkpt lat="49.3316" lon="1.33471">
        <ele>138</ele>
        <time>2026-08-11T12:03:02.386Z</time>
      </trkpt>
      <trkpt lat="49.33161" lon="1.33466">
        <ele>138</ele>
        <time>2026-08-11T12:03:06.378Z</time>
      </trkpt>
      <trkpt lat="49.33162" lon="1.33458">
        <ele>137</ele>
        <time>2026-08-11T12:03:11.382Z</time>
      </trkpt>
      <trkpt lat="49.33165" lon="1.3345">
        <ele>137</ele>
        <time>2026-08-11T12:03:16.367Z</time>
      </trkpt>
      <trkpt lat="49.33169" lon="1.33447">
        <ele>137</ele>
        <time>2026-08-11T12:03:20.373Z</time>
      </trkpt>
      <trkpt lat="49.33176" lon="1.3344">
        <ele>137</ele>
        <time>2026-08-11T12:03:25.369Z</time>
      </trkpt>
      <trkpt lat="49.33181" lon="1.33442">
        <ele>137</ele>
        <time>2026-08-11T12:03:29.736Z</time>
      </trkpt>
      <trkpt lat="49.33186" lon="1.33444">
        <ele>137</ele>
        <time>2026-08-11T12:03:33.818Z</time>
      </trkpt>
      <trkpt lat="49.33188" lon="1.33446">
        <ele>137</ele>
        <time>2026-08-11T12:03:37.890Z</time>
      </trkpt>
      <trkpt lat="49.33192" lon="1.33449">
        <ele>137</ele>
        <time>2026-08-11T12:03:42.221Z</time>
      </trkpt>
      <trkpt lat="49.33197" lon="1.33449">
        <ele>137</ele>
        <time>2026-08-11T12:03:46.373Z</time>
      </trkpt>
      <trkpt lat="49.33201" lon="1.33453">
        <ele>137</ele>
        <time>2026-08-11T12:03:50.802Z</time>
      </trkpt>
      <trkpt lat="49.33206" lon="1.33458">
        <ele>136</ele>
        <time>2026-08-11T12:03:54.844Z</time>
      </trkpt>
      <trkpt lat="49.3321" lon="1.33463">
        <ele>135</ele>
        <time>2026-08-11T12:03:58.857Z</time>
      </trkpt>
      <trkpt lat="49.33214" lon="1.3347">
        <ele>135</ele>
        <time>2026-08-11T12:04:03.038Z</time>
      </trkpt>
      <trkpt lat="49.33218" lon="1.33477">
        <ele>135</ele>
        <time>2026-08-11T12:04:07.299Z</time>
      </trkpt>
      <trkpt lat="49.33223" lon="1.3348">
        <ele>135</ele>
        <time>2026-08-11T12:04:11.877Z</time>
      </trkpt>
      <trkpt lat="49.33229" lon="1.33479">
        <ele>135</ele>
        <time>2026-08-11T12:04:16.380Z</time>
      </trkpt>
      <trkpt lat="49.33234" lon="1.33476">
        <ele>135</ele>
        <time>2026-08-11T12:04:20.776Z</time>
      </trkpt>
      <trkpt lat="49.33237" lon="1.33476">
        <ele>133</ele>
        <time>2026-08-11T12:04:25.216Z</time>
      </trkpt>
      <trkpt lat="49.33238" lon="1.33472">
        <ele>133</ele>
        <time>2026-08-11T12:04:58.944Z</time>
      </trkpt>
      <trkpt lat="49.33242" lon="1.33474">
        <ele>133</ele>
        <time>2026-08-11T12:05:03.386Z</time>
      </trkpt>
      <trkpt lat="49.33247" lon="1.33474">
        <ele>133</ele>
        <time>2026-08-11T12:05:07.723Z</time>
      </trkpt>
      <trkpt lat="49.33252" lon="1.33476">
        <ele>133</ele>
        <time>2026-08-11T12:05:12.024Z</time>
      </trkpt>
      <trkpt lat="49.33256" lon="1.33482">
        <ele>133</ele>
        <time>2026-08-11T12:05:16.116Z</time>
      </trkpt>
      <trkpt lat="49.33259" lon="1.33489">
        <ele>133</ele>
        <time>2026-08-11T12:05:20.376Z</time>
      </trkpt>
      <trkpt lat="49.33265" lon="1.33494">
        <ele>134</ele>
        <time>2026-08-11T12:05:24.995Z</time>
      </trkpt>
      <trkpt lat="49.3327" lon="1.335">
        <ele>134</ele>
        <time>2026-08-11T12:05:29.370Z</time>
      </trkpt>
      <trkpt lat="49.33274" lon="1.33506">
        <ele>134</ele>
        <time>2026-08-11T12:05:33.457Z</time>
      </trkpt>
      <trkpt lat="49.33279" lon="1.3351">
        <ele>134</ele>
        <time>2026-08-11T12:05:37.956Z</time>
      </trkpt>
      <trkpt lat="49.33285" lon="1.33512">
        <ele>134</ele>
        <time>2026-08-11T12:05:42.058Z</time>
      </trkpt>
      <trkpt lat="49.3329" lon="1.33515">
        <ele>133</ele>
        <time>2026-08-11T12:05:46.537Z</time>
      </trkpt>
      <trkpt lat="49.33293" lon="1.33518">
        <ele>133</ele>
        <time>2026-08-11T12:05:50.976Z</time>
      </trkpt>
      <trkpt lat="49.33297" lon="1.33514">
        <ele>133</ele>
        <time>2026-08-11T12:05:55.257Z</time>
      </trkpt>
      <trkpt lat="49.333" lon="1.33502">
        <ele>133</ele>
        <time>2026-08-11T12:05:59.299Z</time>
      </trkpt>
      <trkpt lat="49.33299" lon="1.33488">
        <ele>133</ele>
        <time>2026-08-11T12:06:03.719Z</time>
      </trkpt>
      <trkpt lat="49.33296" lon="1.3348">
        <ele>133</ele>
        <time>2026-08-11T12:06:07.880Z</time>
      </trkpt>
      <trkpt lat="49.33296" lon="1.33475">
        <ele>133</ele>
        <time>2026-08-11T12:06:12.368Z</time>
      </trkpt>
      <trkpt lat="49.33296" lon="1.33467">
        <ele>133</ele>
        <time>2026-08-11T12:06:16.422Z</time>
      </trkpt>
      <trkpt lat="49.333" lon="1.33459">
        <ele>133</ele>
        <time>2026-08-11T12:06:20.981Z</time>
      </trkpt>
      <trkpt lat="49.33308" lon="1.33456">
        <ele>132</ele>
        <time>2026-08-11T12:06:25.361Z</time>
      </trkpt>
      <trkpt lat="49.33316" lon="1.33456">
        <ele>132</ele>
        <time>2026-08-11T12:06:29.721Z</time>
      </trkpt>
      <trkpt lat="49.33322" lon="1.33456">
        <ele>132</ele>
        <time>2026-08-11T12:06:34.121Z</time>
      </trkpt>
      <trkpt lat="49.33327" lon="1.33452">
        <ele>132</ele>
        <time>2026-08-11T12:06:38.620Z</time>
      </trkpt>
      <trkpt lat="49.33333" lon="1.33449">
        <ele>132</ele>
        <time>2026-08-11T12:06:43.080Z</time>
      </trkpt>
      <trkpt lat="49.33337" lon="1.33447">
        <ele>132</ele>
        <time>2026-08-11T12:06:47.371Z</time>
      </trkpt>
      <trkpt lat="49.33341" lon="1.33442">
        <ele>132</ele>
        <time>2026-08-11T12:06:51.379Z</time>
      </trkpt>
      <trkpt lat="49.33345" lon="1.33438">
        <ele>132</ele>
        <time>2026-08-11T12:06:55.382Z</time>
      </trkpt>
      <trkpt lat="49.33348" lon="1.33436">
        <ele>132</ele>
        <time>2026-08-11T12:06:59.498Z</time>
      </trkpt>
      <trkpt lat="49.33414" lon="1.33365">
        <ele>128</ele>
        <time>2026-08-11T12:08:02.380Z</time>
      </trkpt>
      <trkpt lat="49.33417" lon="1.33359">
        <ele>128</ele>
        <time>2026-08-11T12:08:07.365Z</time>
      </trkpt>
      <trkpt lat="49.33419" lon="1.33355">
        <ele>128</ele>
        <time>2026-08-11T12:08:11.822Z</time>
      </trkpt>
      <trkpt lat="49.33423" lon="1.33355">
        <ele>128</ele>
        <time>2026-08-11T12:08:15.854Z</time>
      </trkpt>
      <trkpt lat="49.33427" lon="1.33353">
        <ele>128</ele>
        <time>2026-08-11T12:08:20.056Z</time>
      </trkpt>
      <trkpt lat="49.33431" lon="1.33351">
        <ele>128</ele>
        <time>2026-08-11T12:08:24.278Z</time>
      </trkpt>
      <trkpt lat="49.33436" lon="1.33351">
        <ele>128</ele>
        <time>2026-08-11T12:08:29.254Z</time>
      </trkpt>
      <trkpt lat="49.33441" lon="1.33351">
        <ele>128</ele>
        <time>2026-08-11T12:08:33.396Z</time>
      </trkpt>
      <trkpt lat="49.33449" lon="1.33346">
        <ele>128</ele>
        <time>2026-08-11T12:08:42.370Z</time>
      </trkpt>
      <trkpt lat="49.33449" lon="1.33343">
        <ele>128</ele>
        <time>2026-08-11T12:08:46.373Z</time>
      </trkpt>
      <trkpt lat="49.33449" lon="1.33342">
        <ele>128</ele>
        <time>2026-08-11T12:08:50.759Z</time>
      </trkpt>
      <trkpt lat="49.33451" lon="1.33342">
        <ele>128</ele>
        <time>2026-08-11T12:08:55.814Z</time>
      </trkpt>
      <trkpt lat="49.33454" lon="1.33341">
        <ele>128</ele>
        <time>2026-08-11T12:08:59.857Z</time>
      </trkpt>
      <trkpt lat="49.33461" lon="1.33339">
        <ele>128</ele>
        <time>2026-08-11T12:09:04.384Z</time>
      </trkpt>
      <trkpt lat="49.33466" lon="1.33336">
        <ele>128</ele>
        <time>2026-08-11T12:09:08.419Z</time>
      </trkpt>
      <trkpt lat="49.33472" lon="1.33333">
        <ele>128</ele>
        <time>2026-08-11T12:09:12.382Z</time>
      </trkpt>
      <trkpt lat="49.33479" lon="1.3333">
        <ele>128</ele>
        <time>2026-08-11T12:09:17.020Z</time>
      </trkpt>
      <trkpt lat="49.33485" lon="1.33327">
        <ele>128</ele>
        <time>2026-08-11T12:09:21.381Z</time>
      </trkpt>
      <trkpt lat="49.33491" lon="1.33324">
        <ele>127</ele>
        <time>2026-08-11T12:09:25.502Z</time>
      </trkpt>
      <trkpt lat="49.33497" lon="1.33321">
        <ele>127</ele>
        <time>2026-08-11T12:09:29.634Z</time>
      </trkpt>
      <trkpt lat="49.33503" lon="1.33319">
        <ele>127</ele>
        <time>2026-08-11T12:09:34.223Z</time>
      </trkpt>
      <trkpt lat="49.33508" lon="1.33318">
        <ele>127</ele>
        <time>2026-08-11T12:09:38.822Z</time>
      </trkpt>
      <trkpt lat="49.33513" lon="1.33317">
        <ele>127</ele>
        <time>2026-08-11T12:09:42.864Z</time>
      </trkpt>
      <trkpt lat="49.33517" lon="1.33316">
        <ele>126</ele>
        <time>2026-08-11T12:09:46.936Z</time>
      </trkpt>
      <trkpt lat="49.33521" lon="1.33313">
        <ele>126</ele>
        <time>2026-08-11T12:09:51.018Z</time>
      </trkpt>
      <trkpt lat="49.33526" lon="1.33311">
        <ele>126</ele>
        <time>2026-08-11T12:09:55.180Z</time>
      </trkpt>
      <trkpt lat="49.33532" lon="1.33308">
        <ele>126</ele>
        <time>2026-08-11T12:09:59.384Z</time>
      </trkpt>
      <trkpt lat="49.33539" lon="1.33302">
        <ele>126</ele>
        <time>2026-08-11T12:10:04.258Z</time>
      </trkpt>
      <trkpt lat="49.33546" lon="1.33299">
        <ele>126</ele>
        <time>2026-08-11T12:10:08.896Z</time>
      </trkpt>
      <trkpt lat="49.3355" lon="1.33298">
        <ele>126</ele>
        <time>2026-08-11T12:10:13.058Z</time>
      </trkpt>
      <trkpt lat="49.33553" lon="1.33296">
        <ele>126</ele>
        <time>2026-08-11T12:10:15.799Z</time>
      </trkpt>
      <trkpt lat="49.33561" lon="1.33292">
        <ele>126</ele>
        <time>2026-08-11T12:10:21.520Z</time>
      </trkpt>
      <trkpt lat="49.33567" lon="1.33288">
        <ele>126</ele>
        <time>2026-08-11T12:10:26.278Z</time>
      </trkpt>
      <trkpt lat="49.33572" lon="1.33287">
        <ele>125</ele>
        <time>2026-08-11T12:10:30.340Z</time>
      </trkpt>
      <trkpt lat="49.33576" lon="1.33286">
        <ele>125</ele>
        <time>2026-08-11T12:10:34.363Z</time>
      </trkpt>
      <trkpt lat="49.3358" lon="1.33282">
        <ele>125</ele>
        <time>2026-08-11T12:10:38.703Z</time>
      </trkpt>
      <trkpt lat="49.33588" lon="1.33284">
        <ele>125</ele>
        <time>2026-08-11T12:10:43.262Z</time>
      </trkpt>
      <trkpt lat="49.33594" lon="1.33283">
        <ele>125</ele>
        <time>2026-08-11T12:10:47.662Z</time>
      </trkpt>
      <trkpt lat="49.336" lon="1.33281">
        <ele>125</ele>
        <time>2026-08-11T12:10:52.320Z</time>
      </trkpt>
      <trkpt lat="49.33606" lon="1.33279">
        <ele>125</ele>
        <time>2026-08-11T12:10:56.681Z</time>
      </trkpt>
      <trkpt lat="49.33611" lon="1.33277">
        <ele>125</ele>
        <time>2026-08-11T12:11:01.240Z</time>
      </trkpt>
      <trkpt lat="49.33617" lon="1.3328">
        <ele>125</ele>
        <time>2026-08-11T12:11:05.739Z</time>
      </trkpt>
      <trkpt lat="49.3362" lon="1.33288">
        <ele>125</ele>
        <time>2026-08-11T12:11:10.179Z</time>
      </trkpt>
      <trkpt lat="49.33621" lon="1.33299">
        <ele>126</ele>
        <time>2026-08-11T12:11:14.374Z</time>
      </trkpt>
      <trkpt lat="49.33621" lon="1.33309">
        <ele>126</ele>
        <time>2026-08-11T12:11:19.038Z</time>
      </trkpt>
      <trkpt lat="49.33622" lon="1.33318">
        <ele>126</ele>
        <time>2026-08-11T12:11:23.130Z</time>
      </trkpt>
      <trkpt lat="49.33622" lon="1.33327">
        <ele>126</ele>
        <time>2026-08-11T12:11:27.322Z</time>
      </trkpt>
      <trkpt lat="49.33623" lon="1.33337">
        <ele>126</ele>
        <time>2026-08-11T12:11:31.861Z</time>
      </trkpt>
      <trkpt lat="49.33624" lon="1.33345">
        <ele>126</ele>
        <time>2026-08-11T12:11:36.141Z</time>
      </trkpt>
      <trkpt lat="49.33626" lon="1.33353">
        <ele>125</ele>
        <time>2026-08-11T12:11:40.641Z</time>
      </trkpt>
      <trkpt lat="49.33627" lon="1.33361">
        <ele>125</ele>
        <time>2026-08-11T12:11:45.160Z</time>
      </trkpt>
      <trkpt lat="49.33628" lon="1.33368">
        <ele>125</ele>
        <time>2026-08-11T12:11:49.202Z</time>
      </trkpt>
      <trkpt lat="49.33629" lon="1.33376">
        <ele>124</ele>
        <time>2026-08-11T12:11:53.370Z</time>
      </trkpt>
      <trkpt lat="49.3363" lon="1.33386">
        <ele>124</ele>
        <time>2026-08-11T12:11:57.922Z</time>
      </trkpt>
      <trkpt lat="49.33631" lon="1.33395">
        <ele>124</ele>
        <time>2026-08-11T12:12:02.376Z</time>
      </trkpt>
      <trkpt lat="49.33632" lon="1.33404">
        <ele>122</ele>
        <time>2026-08-11T12:12:06.980Z</time>
      </trkpt>
      <trkpt lat="49.33632" lon="1.33414">
        <ele>122</ele>
        <time>2026-08-11T12:12:11.360Z</time>
      </trkpt>
      <trkpt lat="49.33631" lon="1.33424">
        <ele>122</ele>
        <time>2026-08-11T12:12:15.820Z</time>
      </trkpt>
      <trkpt lat="49.33628" lon="1.33432">
        <ele>121</ele>
        <time>2026-08-11T12:12:20.365Z</time>
      </trkpt>
      <trkpt lat="49.33626" lon="1.33438">
        <ele>121</ele>
        <time>2026-08-11T12:12:24.759Z</time>
      </trkpt>
      <trkpt lat="49.33622" lon="1.33444">
        <ele>124</ele>
        <time>2026-08-11T12:12:29.375Z</time>
      </trkpt>
      <trkpt lat="49.33617" lon="1.3345">
        <ele>124</ele>
        <time>2026-08-11T12:12:34.224Z</time>
      </trkpt>
      <trkpt lat="49.33613" lon="1.33455">
        <ele>124</ele>
        <time>2026-08-11T12:12:38.256Z</time>
      </trkpt>
      <trkpt lat="49.33609" lon="1.3346">
        <ele>124</ele>
        <time>2026-08-11T12:12:42.745Z</time>
      </trkpt>
      <trkpt lat="49.33604" lon="1.33467">
        <ele>124</ele>
        <time>2026-08-11T12:12:47.235Z</time>
      </trkpt>
      <trkpt lat="49.336" lon="1.33471">
        <ele>124</ele>
        <time>2026-08-11T12:12:51.764Z</time>
      </trkpt>
      <trkpt lat="49.33597" lon="1.33479">
        <ele>125</ele>
        <time>2026-08-11T12:12:56.283Z</time>
      </trkpt>
      <trkpt lat="49.336" lon="1.33488">
        <ele>124</ele>
        <time>2026-08-11T12:13:00.722Z</time>
      </trkpt>
      <trkpt lat="49.33604" lon="1.33495">
        <ele>124</ele>
        <time>2026-08-11T12:13:05.202Z</time>
      </trkpt>
      <trkpt lat="49.33609" lon="1.33501">
        <ele>124</ele>
        <time>2026-08-11T12:13:09.681Z</time>
      </trkpt>
      <trkpt lat="49.33612" lon="1.33506">
        <ele>124</ele>
        <time>2026-08-11T12:13:13.644Z</time>
      </trkpt>
      <trkpt lat="49.33615" lon="1.33512">
        <ele>124</ele>
        <time>2026-08-11T12:13:17.696Z</time>
      </trkpt>
      <trkpt lat="49.33619" lon="1.33518">
        <ele>123</ele>
        <time>2026-08-11T12:13:22.314Z</time>
      </trkpt>
      <trkpt lat="49.33622" lon="1.33524">
        <ele>123</ele>
        <time>2026-08-11T12:13:26.337Z</time>
      </trkpt>
      <trkpt lat="49.33625" lon="1.33532">
        <ele>121</ele>
        <time>2026-08-11T12:13:30.995Z</time>
      </trkpt>
      <trkpt lat="49.33628" lon="1.33538">
        <ele>121</ele>
        <time>2026-08-11T12:13:34.998Z</time>
      </trkpt>
      <trkpt lat="49.3363" lon="1.33544">
        <ele>120</ele>
        <time>2026-08-11T12:13:39.040Z</time>
      </trkpt>
      <trkpt lat="49.33632" lon="1.33552">
        <ele>120</ele>
        <time>2026-08-11T12:13:43.062Z</time>
      </trkpt>
      <trkpt lat="49.33635" lon="1.33559">
        <ele>120</ele>
        <time>2026-08-11T12:13:47.661Z</time>
      </trkpt>
      <trkpt lat="49.33638" lon="1.33565">
        <ele>120</ele>
        <time>2026-08-11T12:13:51.643Z</time>
      </trkpt>
      <trkpt lat="49.33642" lon="1.33571">
        <ele>119</ele>
        <time>2026-08-11T12:13:56.321Z</time>
      </trkpt>
      <trkpt lat="49.33646" lon="1.33578">
        <ele>119</ele>
        <time>2026-08-11T12:14:00.344Z</time>
      </trkpt>
      <trkpt lat="49.33649" lon="1.33584">
        <ele>119</ele>
        <time>2026-08-11T12:14:04.903Z</time>
      </trkpt>
      <trkpt lat="49.33651" lon="1.33591">
        <ele>119</ele>
        <time>2026-08-11T12:14:09.368Z</time>
      </trkpt>
      <trkpt lat="49.3365" lon="1.33598">
        <ele>118</ele>
        <time>2026-08-11T12:14:13.901Z</time>
      </trkpt>
      <trkpt lat="49.33647" lon="1.33605">
        <ele>118</ele>
        <time>2026-08-11T12:14:18.366Z</time>
      </trkpt>
      <trkpt lat="49.33645" lon="1.33614">
        <ele>118</ele>
        <time>2026-08-11T12:14:22.939Z</time>
      </trkpt>
      <trkpt lat="49.33643" lon="1.33622">
        <ele>118</ele>
        <time>2026-08-11T12:14:27.374Z</time>
      </trkpt>
      <trkpt lat="49.33642" lon="1.33631">
        <ele>116</ele>
        <time>2026-08-11T12:14:32.096Z</time>
      </trkpt>
      <trkpt lat="49.33641" lon="1.3364">
        <ele>116</ele>
        <time>2026-08-11T12:14:36.158Z</time>
      </trkpt>
      <trkpt lat="49.33639" lon="1.33648">
        <ele>116</ele>
        <time>2026-08-11T12:14:40.737Z</time>
      </trkpt>
      <trkpt lat="49.33637" lon="1.33656">
        <ele>114</ele>
        <time>2026-08-11T12:14:45.368Z</time>
      </trkpt>
      <trkpt lat="49.33636" lon="1.33663">
        <ele>114</ele>
        <time>2026-08-11T12:14:49.835Z</time>
      </trkpt>
      <trkpt lat="49.33636" lon="1.33672">
        <ele>114</ele>
        <time>2026-08-11T12:14:54.371Z</time>
      </trkpt>
      <trkpt lat="49.33636" lon="1.3368">
        <ele>114</ele>
        <time>2026-08-11T12:14:58.371Z</time>
      </trkpt>
      <trkpt lat="49.33635" lon="1.33687">
        <ele>114</ele>
        <time>2026-08-11T12:15:02.498Z</time>
      </trkpt>
      <trkpt lat="49.33632" lon="1.33692">
        <ele>114</ele>
        <time>2026-08-11T12:15:06.580Z</time>
      </trkpt>
      <trkpt lat="49.33631" lon="1.337">
        <ele>114</ele>
        <time>2026-08-11T12:15:11.198Z</time>
      </trkpt>
      <trkpt lat="49.33629" lon="1.33708">
        <ele>114</ele>
        <time>2026-08-11T12:15:15.693Z</time>
      </trkpt>
      <trkpt lat="49.33631" lon="1.33716">
        <ele>113</ele>
        <time>2026-08-11T12:15:19.740Z</time>
      </trkpt>
      <trkpt lat="49.33632" lon="1.33723">
        <ele>113</ele>
        <time>2026-08-11T12:15:23.762Z</time>
      </trkpt>
      <trkpt lat="49.33637" lon="1.33729">
        <ele>113</ele>
        <time>2026-08-11T12:15:28.341Z</time>
      </trkpt>
      <trkpt lat="49.33643" lon="1.33732">
        <ele>113</ele>
        <time>2026-08-11T12:15:32.879Z</time>
      </trkpt>
      <trkpt lat="49.33649" lon="1.33734">
        <ele>113</ele>
        <time>2026-08-11T12:15:37.376Z</time>
      </trkpt>
      <trkpt lat="49.33655" lon="1.33738">
        <ele>110</ele>
        <time>2026-08-11T12:15:42.037Z</time>
      </trkpt>
      <trkpt lat="49.3366" lon="1.33744">
        <ele>110</ele>
        <time>2026-08-11T12:15:46.655Z</time>
      </trkpt>
      <trkpt lat="49.33663" lon="1.33749">
        <ele>110</ele>
        <time>2026-08-11T12:15:50.677Z</time>
      </trkpt>
      <trkpt lat="49.33666" lon="1.33752">
        <ele>110</ele>
        <time>2026-08-11T12:15:54.819Z</time>
      </trkpt>
      <trkpt lat="49.33669" lon="1.33757">
        <ele>110</ele>
        <time>2026-08-11T12:15:58.901Z</time>
      </trkpt>
      <trkpt lat="49.33671" lon="1.33762">
        <ele>110</ele>
        <time>2026-08-11T12:16:03.142Z</time>
      </trkpt>
      <trkpt lat="49.33672" lon="1.33769">
        <ele>112</ele>
        <time>2026-08-11T12:16:07.372Z</time>
      </trkpt>
      <trkpt lat="49.33674" lon="1.33776">
        <ele>112</ele>
        <time>2026-08-11T12:16:11.842Z</time>
      </trkpt>
      <trkpt lat="49.33675" lon="1.33783">
        <ele>112</ele>
        <time>2026-08-11T12:16:16.044Z</time>
      </trkpt>
      <trkpt lat="49.33674" lon="1.33792">
        <ele>114</ele>
        <time>2026-08-11T12:16:20.373Z</time>
      </trkpt>
      <trkpt lat="49.33673" lon="1.33801">
        <ele>114</ele>
        <time>2026-08-11T12:16:24.863Z</time>
      </trkpt>
      <trkpt lat="49.33672" lon="1.3381">
        <ele>114</ele>
        <time>2026-08-11T12:16:29.223Z</time>
      </trkpt>
      <trkpt lat="49.3367" lon="1.33819">
        <ele>114</ele>
        <time>2026-08-11T12:16:33.381Z</time>
      </trkpt>
      <trkpt lat="49.33666" lon="1.33837">
        <ele>116</ele>
        <time>2026-08-11T12:17:16.367Z</time>
      </trkpt>
      <trkpt lat="49.33669" lon="1.33839">
        <ele>116</ele>
        <time>2026-08-11T12:17:20.601Z</time>
      </trkpt>
      <trkpt lat="49.33673" lon="1.33846">
        <ele>116</ele>
        <time>2026-08-11T12:17:24.643Z</time>
      </trkpt>
      <trkpt lat="49.33676" lon="1.33853">
        <ele>117</ele>
        <time>2026-08-11T12:17:28.676Z</time>
      </trkpt>
      <trkpt lat="49.33679" lon="1.33859">
        <ele>117</ele>
        <time>2026-08-11T12:17:32.718Z</time>
      </trkpt>
      <trkpt lat="49.33683" lon="1.33864">
        <ele>111</ele>
        <time>2026-08-11T12:17:36.720Z</time>
      </trkpt>
      <trkpt lat="49.33687" lon="1.33868">
        <ele>111</ele>
        <time>2026-08-11T12:17:40.842Z</time>
      </trkpt>
      <trkpt lat="49.33691" lon="1.33874">
        <ele>111</ele>
        <time>2026-08-11T12:17:45.341Z</time>
      </trkpt>
      <trkpt lat="49.33695" lon="1.33878">
        <ele>111</ele>
        <time>2026-08-11T12:17:49.363Z</time>
      </trkpt>
      <trkpt lat="49.337" lon="1.33883">
        <ele>111</ele>
        <time>2026-08-11T12:17:54.375Z</time>
      </trkpt>
      <trkpt lat="49.33704" lon="1.3389">
        <ele>111</ele>
        <time>2026-08-11T12:17:58.367Z</time>
      </trkpt>
      <trkpt lat="49.33709" lon="1.339">
        <ele>107</ele>
        <time>2026-08-11T12:18:02.860Z</time>
      </trkpt>
      <trkpt lat="49.33713" lon="1.33909">
        <ele>108</ele>
        <time>2026-08-11T12:18:07.369Z</time>
      </trkpt>
      <trkpt lat="49.33716" lon="1.33915">
        <ele>108</ele>
        <time>2026-08-11T12:18:11.373Z</time>
      </trkpt>
      <trkpt lat="49.33719" lon="1.33921">
        <ele>108</ele>
        <time>2026-08-11T12:18:15.523Z</time>
      </trkpt>
      <trkpt lat="49.33723" lon="1.33928">
        <ele>108</ele>
        <time>2026-08-11T12:18:20.082Z</time>
      </trkpt>
      <trkpt lat="49.33726" lon="1.33935">
        <ele>108</ele>
        <time>2026-08-11T12:18:24.373Z</time>
      </trkpt>
      <trkpt lat="49.3373" lon="1.33943">
        <ele>108</ele>
        <time>2026-08-11T12:18:28.603Z</time>
      </trkpt>
      <trkpt lat="49.33734" lon="1.33949">
        <ele>108</ele>
        <time>2026-08-11T12:18:33.162Z</time>
      </trkpt>
      <trkpt lat="49.33738" lon="1.33956">
        <ele>105</ele>
        <time>2026-08-11T12:18:37.700Z</time>
      </trkpt>
      <trkpt lat="49.33743" lon="1.33961">
        <ele>104</ele>
        <time>2026-08-11T12:18:42.299Z</time>
      </trkpt>
      <trkpt lat="49.33748" lon="1.33963">
        <ele>104</ele>
        <time>2026-08-11T12:18:46.758Z</time>
      </trkpt>
      <trkpt lat="49.33753" lon="1.33962">
        <ele>104</ele>
        <time>2026-08-11T12:18:50.800Z</time>
      </trkpt>
      <trkpt lat="49.33757" lon="1.33962">
        <ele>104</ele>
        <time>2026-08-11T12:18:54.882Z</time>
      </trkpt>
      <trkpt lat="49.33761" lon="1.33966">
        <ele>104</ele>
        <time>2026-08-11T12:18:58.944Z</time>
      </trkpt>
      <trkpt lat="49.3376" lon="1.33968">
        <ele>104</ele>
        <time>2026-08-11T12:19:21.022Z</time>
      </trkpt>
      <trkpt lat="49.33765" lon="1.33974">
        <ele>102</ele>
        <time>2026-08-11T12:19:25.064Z</time>
      </trkpt>
      <trkpt lat="49.33769" lon="1.33981">
        <ele>102</ele>
        <time>2026-08-11T12:19:29.116Z</time>
      </trkpt>
      <trkpt lat="49.33773" lon="1.33988">
        <ele>100</ele>
        <time>2026-08-11T12:19:33.138Z</time>
      </trkpt>
      <trkpt lat="49.33777" lon="1.33995">
        <ele>100</ele>
        <time>2026-08-11T12:19:37.220Z</time>
      </trkpt>
      <trkpt lat="49.3378" lon="1.34002">
        <ele>100</ele>
        <time>2026-08-11T12:19:41.342Z</time>
      </trkpt>
      <trkpt lat="49.33784" lon="1.34009">
        <ele>100</ele>
        <time>2026-08-11T12:19:45.801Z</time>
      </trkpt>
      <trkpt lat="49.33788" lon="1.34016">
        <ele>99</ele>
        <time>2026-08-11T12:19:50.340Z</time>
      </trkpt>
      <trkpt lat="49.33791" lon="1.34022">
        <ele>99</ele>
        <time>2026-08-11T12:19:54.374Z</time>
      </trkpt>
      <trkpt lat="49.33795" lon="1.34029">
        <ele>98</ele>
        <time>2026-08-11T12:19:59.040Z</time>
      </trkpt>
      <trkpt lat="49.33798" lon="1.34035">
        <ele>98</ele>
        <time>2026-08-11T12:20:03.082Z</time>
      </trkpt>
      <trkpt lat="49.33801" lon="1.34042">
        <ele>98</ele>
        <time>2026-08-11T12:20:07.104Z</time>
      </trkpt>
      <trkpt lat="49.33805" lon="1.34048">
        <ele>98</ele>
        <time>2026-08-11T12:20:11.369Z</time>
      </trkpt>
      <trkpt lat="49.33809" lon="1.34052">
        <ele>98</ele>
        <time>2026-08-11T12:20:15.576Z</time>
      </trkpt>
      <trkpt lat="49.33814" lon="1.34054">
        <ele>98</ele>
        <time>2026-08-11T12:20:19.677Z</time>
      </trkpt>
      <trkpt lat="49.33818" lon="1.34059">
        <ele>98</ele>
        <time>2026-08-11T12:20:24.156Z</time>
      </trkpt>
      <trkpt lat="49.33822" lon="1.34063">
        <ele>96</ele>
        <time>2026-08-11T12:20:28.715Z</time>
      </trkpt>
      <trkpt lat="49.33826" lon="1.3407">
        <ele>94</ele>
        <time>2026-08-11T12:20:33.263Z</time>
      </trkpt>
      <trkpt lat="49.33829" lon="1.34077">
        <ele>94</ele>
        <time>2026-08-11T12:20:37.782Z</time>
      </trkpt>
      <trkpt lat="49.33833" lon="1.34085">
        <ele>94</ele>
        <time>2026-08-11T12:20:42.361Z</time>
      </trkpt>
      <trkpt lat="49.33835" lon="1.34094">
        <ele>94</ele>
        <time>2026-08-11T12:20:46.800Z</time>
      </trkpt>
      <trkpt lat="49.33838" lon="1.34102">
        <ele>91</ele>
        <time>2026-08-11T12:20:51.339Z</time>
      </trkpt>
      <trkpt lat="49.33842" lon="1.3411">
        <ele>91</ele>
        <time>2026-08-11T12:20:55.917Z</time>
      </trkpt>
      <trkpt lat="49.33846" lon="1.34115">
        <ele>91</ele>
        <time>2026-08-11T12:21:00.372Z</time>
      </trkpt>
      <trkpt lat="49.33852" lon="1.34119">
        <ele>89</ele>
        <time>2026-08-11T12:21:05.014Z</time>
      </trkpt>
      <trkpt lat="49.33855" lon="1.34123">
        <ele>89</ele>
        <time>2026-08-11T12:21:09.017Z</time>
      </trkpt>
      <trkpt lat="49.33858" lon="1.34131">
        <ele>87</ele>
        <time>2026-08-11T12:21:13.019Z</time>
      </trkpt>
      <trkpt lat="49.3386" lon="1.34141">
        <ele>87</ele>
        <time>2026-08-11T12:21:17.518Z</time>
      </trkpt>
      <trkpt lat="49.33862" lon="1.34148">
        <ele>87</ele>
        <time>2026-08-11T12:21:21.580Z</time>
      </trkpt>
      <trkpt lat="49.33865" lon="1.34156">
        <ele>85</ele>
        <time>2026-08-11T12:21:26.119Z</time>
      </trkpt>
      <trkpt lat="49.33866" lon="1.34163">
        <ele>85</ele>
        <time>2026-08-11T12:21:30.141Z</time>
      </trkpt>
      <trkpt lat="49.33868" lon="1.34172">
        <ele>85</ele>
        <time>2026-08-11T12:21:34.660Z</time>
      </trkpt>
      <trkpt lat="49.3387" lon="1.34179">
        <ele>85</ele>
        <time>2026-08-11T12:21:39.139Z</time>
      </trkpt>
      <trkpt lat="49.33873" lon="1.34184">
        <ele>83</ele>
        <time>2026-08-11T12:21:43.141Z</time>
      </trkpt>
      <trkpt lat="49.33874" lon="1.34193">
        <ele>83</ele>
        <time>2026-08-11T12:21:47.600Z</time>
      </trkpt>
      <trkpt lat="49.33877" lon="1.34201">
        <ele>82</ele>
        <time>2026-08-11T12:21:52.119Z</time>
      </trkpt>
      <trkpt lat="49.33878" lon="1.3421">
        <ele>81</ele>
        <time>2026-08-11T12:21:56.598Z</time>
      </trkpt>
      <trkpt lat="49.33879" lon="1.34218">
        <ele>81</ele>
        <time>2026-08-11T12:22:01.117Z</time>
      </trkpt>
      <trkpt lat="49.3388" lon="1.34224">
        <ele>81</ele>
        <time>2026-08-11T12:22:05.695Z</time>
      </trkpt>
      <trkpt lat="49.33881" lon="1.3423">
        <ele>81</ele>
        <time>2026-08-11T12:22:10.174Z</time>
      </trkpt>
      <trkpt lat="49.33883" lon="1.34237">
        <ele>80</ele>
        <time>2026-08-11T12:22:14.763Z</time>
      </trkpt>
      <trkpt lat="49.33885" lon="1.34244">
        <ele>80</ele>
        <time>2026-08-11T12:22:19.282Z</time>
      </trkpt>
      <trkpt lat="49.33886" lon="1.34252">
        <ele>80</ele>
        <time>2026-08-11T12:22:23.840Z</time>
      </trkpt>
      <trkpt lat="49.33889" lon="1.34259">
        <ele>80</ele>
        <time>2026-08-11T12:22:28.373Z</time>
      </trkpt>
      <trkpt lat="49.33891" lon="1.34265">
        <ele>80</ele>
        <time>2026-08-11T12:22:32.368Z</time>
      </trkpt>
      <trkpt lat="49.33893" lon="1.34272">
        <ele>80</ele>
        <time>2026-08-11T12:22:36.423Z</time>
      </trkpt>
      <trkpt lat="49.33893" lon="1.3428">
        <ele>80</ele>
        <time>2026-08-11T12:22:41.002Z</time>
      </trkpt>
      <trkpt lat="49.33895" lon="1.34284">
        <ele>80</ele>
        <time>2026-08-11T12:22:45.373Z</time>
      </trkpt>
      <trkpt lat="49.33896" lon="1.34288">
        <ele>80</ele>
        <time>2026-08-11T12:22:49.960Z</time>
      </trkpt>
      <trkpt lat="49.33892" lon="1.34294">
        <ele>79</ele>
        <time>2026-08-11T12:23:27.083Z</time>
      </trkpt>
      <trkpt lat="49.33892" lon="1.34295">
        <ele>79</ele>
        <time>2026-08-11T12:23:31.523Z</time>
      </trkpt>
      <trkpt lat="49.33893" lon="1.34301">
        <ele>79</ele>
        <time>2026-08-11T12:23:35.744Z</time>
      </trkpt>
      <trkpt lat="49.33891" lon="1.34304">
        <ele>79</ele>
        <time>2026-08-11T12:23:40.363Z</time>
      </trkpt>
      <trkpt lat="49.33886" lon="1.34308">
        <ele>79</ele>
        <time>2026-08-11T12:24:00.367Z</time>
      </trkpt>
      <trkpt lat="49.33885" lon="1.34312">
        <ele>79</ele>
        <time>2026-08-11T12:24:47.975Z</time>
      </trkpt>
      <trkpt lat="49.33885" lon="1.34323">
        <ele>78</ele>
        <time>2026-08-11T12:24:52.315Z</time>
      </trkpt>
      <trkpt lat="49.33887" lon="1.34322">
        <ele>78</ele>
        <time>2026-08-11T12:24:56.369Z</time>
      </trkpt>
      <trkpt lat="49.33887" lon="1.34323">
        <ele>78</ele>
        <time>2026-08-11T12:25:00.637Z</time>
      </trkpt>
      <trkpt lat="49.33888" lon="1.3433">
        <ele>78</ele>
        <time>2026-08-11T12:25:04.838Z</time>
      </trkpt>
      <trkpt lat="49.33886" lon="1.34336">
        <ele>78</ele>
        <time>2026-08-11T12:25:09.039Z</time>
      </trkpt>
      <trkpt lat="49.33884" lon="1.34341">
        <ele>78</ele>
        <time>2026-08-11T12:25:13.081Z</time>
      </trkpt>
      <trkpt lat="49.33883" lon="1.34348">
        <ele>79</ele>
        <time>2026-08-11T12:25:17.560Z</time>
      </trkpt>
      <trkpt lat="49.33884" lon="1.34353">
        <ele>79</ele>
        <time>2026-08-11T12:25:21.662Z</time>
      </trkpt>
      <trkpt lat="49.33885" lon="1.3436">
        <ele>79</ele>
        <time>2026-08-11T12:25:26.260Z</time>
      </trkpt>
      <trkpt lat="49.33885" lon="1.34369">
        <ele>79</ele>
        <time>2026-08-11T12:25:30.680Z</time>
      </trkpt>
      <trkpt lat="49.33885" lon="1.34375">
        <ele>79</ele>
        <time>2026-08-11T12:25:34.940Z</time>
      </trkpt>
      <trkpt lat="49.33885" lon="1.34379">
        <ele>80</ele>
        <time>2026-08-11T12:25:39.201Z</time>
      </trkpt>
      <trkpt lat="49.33887" lon="1.34383">
        <ele>80</ele>
        <time>2026-08-11T12:25:43.362Z</time>
      </trkpt>
      <trkpt lat="49.3389" lon="1.34387">
        <ele>80</ele>
        <time>2026-08-11T12:25:47.368Z</time>
      </trkpt>
      <trkpt lat="49.33892" lon="1.34391">
        <ele>80</ele>
        <time>2026-08-11T12:25:51.596Z</time>
      </trkpt>
      <trkpt lat="49.33894" lon="1.34397">
        <ele>80</ele>
        <time>2026-08-11T12:25:56.015Z</time>
      </trkpt>
      <trkpt lat="49.33895" lon="1.34403">
        <ele>80</ele>
        <time>2026-08-11T12:26:00.355Z</time>
      </trkpt>
      <trkpt lat="49.33896" lon="1.3441">
        <ele>80</ele>
        <time>2026-08-11T12:26:04.361Z</time>
      </trkpt>
      <trkpt lat="49.33896" lon="1.34418">
        <ele>80</ele>
        <time>2026-08-11T12:26:08.379Z</time>
      </trkpt>
      <trkpt lat="49.33896" lon="1.34425">
        <ele>80</ele>
        <time>2026-08-11T12:26:13.373Z</time>
      </trkpt>
      <trkpt lat="49.33896" lon="1.34421">
        <ele>80</ele>
        <time>2026-08-11T12:26:18.359Z</time>
      </trkpt>
      <trkpt lat="49.33896" lon="1.34419">
        <ele>80</ele>
        <time>2026-08-11T12:26:23.178Z</time>
      </trkpt>
      <trkpt lat="49.33897" lon="1.34421">
        <ele>80</ele>
        <time>2026-08-11T12:26:27.370Z</time>
      </trkpt>
      <trkpt lat="49.33899" lon="1.34429">
        <ele>80</ele>
        <time>2026-08-11T12:26:32.076Z</time>
      </trkpt>
      <trkpt lat="49.339" lon="1.34436">
        <ele>80</ele>
        <time>2026-08-11T12:26:36.257Z</time>
      </trkpt>
      <trkpt lat="49.33903" lon="1.34449">
        <ele>76</ele>
        <time>2026-08-11T12:27:21.373Z</time>
      </trkpt>
      <trkpt lat="49.33899" lon="1.34455">
        <ele>80</ele>
        <time>2026-08-11T12:27:26.360Z</time>
      </trkpt>
      <trkpt lat="49.33897" lon="1.34456">
        <ele>80</ele>
        <time>2026-08-11T12:27:31.361Z</time>
      </trkpt>
      <trkpt lat="49.33895" lon="1.34459">
        <ele>81</ele>
        <time>2026-08-11T12:27:35.361Z</time>
      </trkpt>
      <trkpt lat="49.33892" lon="1.3446">
        <ele>81</ele>
        <time>2026-08-11T12:27:40.357Z</time>
      </trkpt>
      <trkpt lat="49.33888" lon="1.34465">
        <ele>81</ele>
        <time>2026-08-11T12:27:49.369Z</time>
      </trkpt>
      <trkpt lat="49.33889" lon="1.34468">
        <ele>81</ele>
        <time>2026-08-11T12:27:53.373Z</time>
      </trkpt>
      <trkpt lat="49.33889" lon="1.34471">
        <ele>81</ele>
        <time>2026-08-11T12:27:58.366Z</time>
      </trkpt>
      <trkpt lat="49.33888" lon="1.34474">
        <ele>81</ele>
        <time>2026-08-11T12:28:04.367Z</time>
      </trkpt>
      <trkpt lat="49.33887" lon="1.34476">
        <ele>81</ele>
        <time>2026-08-11T12:28:09.278Z</time>
      </trkpt>
      <trkpt lat="49.33884" lon="1.34481">
        <ele>81</ele>
        <time>2026-08-11T12:28:14.373Z</time>
      </trkpt>
      <trkpt lat="49.33882" lon="1.34484">
        <ele>81</ele>
        <time>2026-08-11T12:28:18.803Z</time>
      </trkpt>
      <trkpt lat="49.33882" lon="1.34491">
        <ele>82</ele>
        <time>2026-08-11T12:28:23.366Z</time>
      </trkpt>
      <trkpt lat="49.33881" lon="1.34497">
        <ele>82</ele>
        <time>2026-08-11T12:28:27.920Z</time>
      </trkpt>
      <trkpt lat="49.33878" lon="1.34504">
        <ele>82</ele>
        <time>2026-08-11T12:28:32.340Z</time>
      </trkpt>
      <trkpt lat="49.33873" lon="1.34509">
        <ele>84</ele>
        <time>2026-08-11T12:28:36.481Z</time>
      </trkpt>
      <trkpt lat="49.33869" lon="1.34513">
        <ele>84</ele>
        <time>2026-08-11T12:28:41.363Z</time>
      </trkpt>
      <trkpt lat="49.33868" lon="1.34522">
        <ele>84</ele>
        <time>2026-08-11T12:28:45.599Z</time>
      </trkpt>
      <trkpt lat="49.33868" lon="1.34531">
        <ele>84</ele>
        <time>2026-08-11T12:28:49.978Z</time>
      </trkpt>
      <trkpt lat="49.33865" lon="1.34537">
        <ele>84</ele>
        <time>2026-08-11T12:28:54.358Z</time>
      </trkpt>
      <trkpt lat="49.33861" lon="1.34543">
        <ele>83</ele>
        <time>2026-08-11T12:28:58.897Z</time>
      </trkpt>
      <trkpt lat="49.33859" lon="1.34549">
        <ele>83</ele>
        <time>2026-08-11T12:29:03.217Z</time>
      </trkpt>
      <trkpt lat="49.33856" lon="1.34555">
        <ele>83</ele>
        <time>2026-08-11T12:29:07.736Z</time>
      </trkpt>
      <trkpt lat="49.33855" lon="1.34561">
        <ele>83</ele>
        <time>2026-08-11T12:29:12.096Z</time>
      </trkpt>
      <trkpt lat="49.33854" lon="1.34568">
        <ele>83</ele>
        <time>2026-08-11T12:29:16.675Z</time>
      </trkpt>
      <trkpt lat="49.33852" lon="1.34575">
        <ele>82</ele>
        <time>2026-08-11T12:29:21.075Z</time>
      </trkpt>
      <trkpt lat="49.3385" lon="1.34582">
        <ele>82</ele>
        <time>2026-08-11T12:29:25.375Z</time>
      </trkpt>
      <trkpt lat="49.33848" lon="1.34591">
        <ele>82</ele>
        <time>2026-08-11T12:29:29.795Z</time>
      </trkpt>
      <trkpt lat="49.33845" lon="1.34598">
        <ele>82</ele>
        <time>2026-08-11T12:29:34.224Z</time>
      </trkpt>
      <trkpt lat="49.33844" lon="1.34606">
        <ele>82</ele>
        <time>2026-08-11T12:29:38.455Z</time>
      </trkpt>
      <trkpt lat="49.33841" lon="1.34613">
        <ele>82</ele>
        <time>2026-08-11T12:29:42.795Z</time>
      </trkpt>
      <trkpt lat="49.33839" lon="1.34619">
        <ele>82</ele>
        <time>2026-08-11T12:29:47.016Z</time>
      </trkpt>
      <trkpt lat="49.33837" lon="1.34626">
        <ele>80</ele>
        <time>2026-08-11T12:29:51.367Z</time>
      </trkpt>
      <trkpt lat="49.33833" lon="1.34632">
        <ele>80</ele>
        <time>2026-08-11T12:29:55.776Z</time>
      </trkpt>
      <trkpt lat="49.3383" lon="1.34638">
        <ele>80</ele>
        <time>2026-08-11T12:30:00.076Z</time>
      </trkpt>
      <trkpt lat="49.33826" lon="1.34642">
        <ele>80</ele>
        <time>2026-08-11T12:30:04.277Z</time>
      </trkpt>
      <trkpt lat="49.33823" lon="1.34648">
        <ele>80</ele>
        <time>2026-08-11T12:30:08.716Z</time>
      </trkpt>
      <trkpt lat="49.3382" lon="1.34653">
        <ele>77</ele>
        <time>2026-08-11T12:30:12.937Z</time>
      </trkpt>
      <trkpt lat="49.33816" lon="1.34656">
        <ele>83</ele>
        <time>2026-08-11T12:30:17.369Z</time>
      </trkpt>
      <trkpt lat="49.33812" lon="1.34659">
        <ele>83</ele>
        <time>2026-08-11T12:30:21.657Z</time>
      </trkpt>
      <trkpt lat="49.33808" lon="1.34663">
        <ele>83</ele>
        <time>2026-08-11T12:30:26.037Z</time>
      </trkpt>
      <trkpt lat="49.33804" lon="1.34668">
        <ele>83</ele>
        <time>2026-08-11T12:30:30.218Z</time>
      </trkpt>
      <trkpt lat="49.33801" lon="1.34674">
        <ele>83</ele>
        <time>2026-08-11T12:30:34.361Z</time>
      </trkpt>
      <trkpt lat="49.33798" lon="1.3468">
        <ele>83</ele>
        <time>2026-08-11T12:30:38.819Z</time>
      </trkpt>
      <trkpt lat="49.33796" lon="1.34686">
        <ele>81</ele>
        <time>2026-08-11T12:30:43.179Z</time>
      </trkpt>
      <trkpt lat="49.33793" lon="1.34692">
        <ele>81</ele>
        <time>2026-08-11T12:30:47.359Z</time>
      </trkpt>
      <trkpt lat="49.3379" lon="1.34699">
        <ele>85</ele>
        <time>2026-08-11T12:30:51.720Z</time>
      </trkpt>
      <trkpt lat="49.33787" lon="1.34706">
        <ele>85</ele>
        <time>2026-08-11T12:30:55.961Z</time>
      </trkpt>
      <trkpt lat="49.33784" lon="1.34714">
        <ele>83</ele>
        <time>2026-08-11T12:31:00.361Z</time>
      </trkpt>
      <trkpt lat="49.33781" lon="1.3472">
        <ele>83</ele>
        <time>2026-08-11T12:31:04.721Z</time>
      </trkpt>
      <trkpt lat="49.33778" lon="1.34728">
        <ele>83</ele>
        <time>2026-08-11T12:31:09.240Z</time>
      </trkpt>
      <trkpt lat="49.33775" lon="1.34734">
        <ele>83</ele>
        <time>2026-08-11T12:31:13.500Z</time>
      </trkpt>
      <trkpt lat="49.33771" lon="1.3474">
        <ele>82</ele>
        <time>2026-08-11T12:31:17.999Z</time>
      </trkpt>
      <trkpt lat="49.33767" lon="1.34745">
        <ele>82</ele>
        <time>2026-08-11T12:31:22.371Z</time>
      </trkpt>
      <trkpt lat="49.33763" lon="1.34752">
        <ele>86</ele>
        <time>2026-08-11T12:31:26.878Z</time>
      </trkpt>
      <trkpt lat="49.3376" lon="1.34759">
        <ele>86</ele>
        <time>2026-08-11T12:31:31.238Z</time>
      </trkpt>
      <trkpt lat="49.33758" lon="1.34766">
        <ele>85</ele>
        <time>2026-08-11T12:31:35.657Z</time>
      </trkpt>
      <trkpt lat="49.33757" lon="1.34773">
        <ele>85</ele>
        <time>2026-08-11T12:31:39.878Z</time>
      </trkpt>
      <trkpt lat="49.33756" lon="1.3478">
        <ele>85</ele>
        <time>2026-08-11T12:31:44.159Z</time>
      </trkpt>
      <trkpt lat="49.33756" lon="1.34789">
        <ele>85</ele>
        <time>2026-08-11T12:31:48.363Z</time>
      </trkpt>
      <trkpt lat="49.33755" lon="1.34795">
        <ele>83</ele>
        <time>2026-08-11T12:31:52.700Z</time>
      </trkpt>
      <trkpt lat="49.33754" lon="1.34801">
        <ele>83</ele>
        <time>2026-08-11T12:31:56.941Z</time>
      </trkpt>
      <trkpt lat="49.33754" lon="1.34808">
        <ele>83</ele>
        <time>2026-08-11T12:32:01.181Z</time>
      </trkpt>
      <trkpt lat="49.33753" lon="1.34816">
        <ele>83</ele>
        <time>2026-08-11T12:32:05.283Z</time>
      </trkpt>
      <trkpt lat="49.33753" lon="1.34824">
        <ele>81</ele>
        <time>2026-08-11T12:32:09.544Z</time>
      </trkpt>
      <trkpt lat="49.33752" lon="1.34832">
        <ele>81</ele>
        <time>2026-08-11T12:32:14.363Z</time>
      </trkpt>
      <trkpt lat="49.33751" lon="1.34839">
        <ele>81</ele>
        <time>2026-08-11T12:32:18.740Z</time>
      </trkpt>
      <trkpt lat="49.33751" lon="1.34847">
        <ele>80</ele>
        <time>2026-08-11T12:32:23.140Z</time>
      </trkpt>
      <trkpt lat="49.3375" lon="1.34856">
        <ele>80</ele>
        <time>2026-08-11T12:32:27.341Z</time>
      </trkpt>
      <trkpt lat="49.33749" lon="1.34864">
        <ele>80</ele>
        <time>2026-08-11T12:32:31.820Z</time>
      </trkpt>
      <trkpt lat="49.33749" lon="1.34872">
        <ele>80</ele>
        <time>2026-08-11T12:32:35.981Z</time>
      </trkpt>
      <trkpt lat="49.33749" lon="1.3488">
        <ele>80</ele>
        <time>2026-08-11T12:32:40.366Z</time>
      </trkpt>
      <trkpt lat="49.33748" lon="1.34887">
        <ele>80</ele>
        <time>2026-08-11T12:32:44.365Z</time>
      </trkpt>
      <trkpt lat="49.33748" lon="1.34894">
        <ele>80</ele>
        <time>2026-08-11T12:32:48.594Z</time>
      </trkpt>
      <trkpt lat="49.33748" lon="1.34901">
        <ele>80</ele>
        <time>2026-08-11T12:32:52.954Z</time>
      </trkpt>
      <trkpt lat="49.33748" lon="1.34907">
        <ele>80</ele>
        <time>2026-08-11T12:32:57.255Z</time>
      </trkpt>
      <trkpt lat="49.33748" lon="1.34913">
        <ele>80</ele>
        <time>2026-08-11T12:33:01.654Z</time>
      </trkpt>
      <trkpt lat="49.33747" lon="1.34921">
        <ele>80</ele>
        <time>2026-08-11T12:33:05.935Z</time>
      </trkpt>
      <trkpt lat="49.33747" lon="1.34928">
        <ele>80</ele>
        <time>2026-08-11T12:33:10.255Z</time>
      </trkpt>
      <trkpt lat="49.33746" lon="1.34935">
        <ele>81</ele>
        <time>2026-08-11T12:33:14.516Z</time>
      </trkpt>
      <trkpt lat="49.33745" lon="1.34941">
        <ele>81</ele>
        <time>2026-08-11T12:33:18.935Z</time>
      </trkpt>
      <trkpt lat="49.33745" lon="1.34948">
        <ele>81</ele>
        <time>2026-08-11T12:33:23.216Z</time>
      </trkpt>
      <trkpt lat="49.33742" lon="1.34955">
        <ele>81</ele>
        <time>2026-08-11T12:33:27.655Z</time>
      </trkpt>
      <trkpt lat="49.33741" lon="1.34963">
        <ele>83</ele>
        <time>2026-08-11T12:33:31.916Z</time>
      </trkpt>
      <trkpt lat="49.33739" lon="1.34971">
        <ele>83</ele>
        <time>2026-08-11T12:33:36.315Z</time>
      </trkpt>
      <trkpt lat="49.33738" lon="1.34978">
        <ele>83</ele>
        <time>2026-08-11T12:33:40.576Z</time>
      </trkpt>
      <trkpt lat="49.33738" lon="1.34985">
        <ele>83</ele>
        <time>2026-08-11T12:33:44.936Z</time>
      </trkpt>
      <trkpt lat="49.33735" lon="1.34992">
        <ele>84</ele>
        <time>2026-08-11T12:33:49.316Z</time>
      </trkpt>
      <trkpt lat="49.33734" lon="1.34999">
        <ele>84</ele>
        <time>2026-08-11T12:33:53.815Z</time>
      </trkpt>
      <trkpt lat="49.33733" lon="1.35007">
        <ele>84</ele>
        <time>2026-08-11T12:33:58.075Z</time>
      </trkpt>
      <trkpt lat="49.33732" lon="1.35015">
        <ele>86</ele>
        <time>2026-08-11T12:34:02.360Z</time>
      </trkpt>
      <trkpt lat="49.33731" lon="1.35022">
        <ele>86</ele>
        <time>2026-08-11T12:34:06.874Z</time>
      </trkpt>
      <trkpt lat="49.33729" lon="1.35029">
        <ele>86</ele>
        <time>2026-08-11T12:34:11.344Z</time>
      </trkpt>
      <trkpt lat="49.33727" lon="1.35037">
        <ele>86</ele>
        <time>2026-08-11T12:34:15.763Z</time>
      </trkpt>
      <trkpt lat="49.33727" lon="1.35042">
        <ele>87</ele>
        <time>2026-08-11T12:34:20.367Z</time>
      </trkpt>
      <trkpt lat="49.33727" lon="1.35049">
        <ele>87</ele>
        <time>2026-08-11T12:34:24.821Z</time>
      </trkpt>
      <trkpt lat="49.33727" lon="1.35057">
        <ele>87</ele>
        <time>2026-08-11T12:34:29.370Z</time>
      </trkpt>
      <trkpt lat="49.33728" lon="1.35064">
        <ele>87</ele>
        <time>2026-08-11T12:34:33.938Z</time>
      </trkpt>
      <trkpt lat="49.3373" lon="1.35071">
        <ele>89</ele>
        <time>2026-08-11T12:34:49.366Z</time>
      </trkpt>
      <trkpt lat="49.3373" lon="1.35071">
        <ele>89</ele>
        <time>2026-08-11T12:34:53.370Z</time>
      </trkpt>
      <trkpt lat="49.33731" lon="1.35075">
        <ele>89</ele>
        <time>2026-08-11T12:34:57.744Z</time>
      </trkpt>
      <trkpt lat="49.33733" lon="1.35081">
        <ele>89</ele>
        <time>2026-08-11T12:35:02.183Z</time>
      </trkpt>
      <trkpt lat="49.33736" lon="1.35083">
        <ele>89</ele>
        <time>2026-08-11T12:35:06.801Z</time>
      </trkpt>
      <trkpt lat="49.33741" lon="1.35082">
        <ele>93</ele>
        <time>2026-08-11T12:35:11.363Z</time>
      </trkpt>
      <trkpt lat="49.33745" lon="1.35082">
        <ele>93</ele>
        <time>2026-08-11T12:35:16.137Z</time>
      </trkpt>
      <trkpt lat="49.3375" lon="1.35083">
        <ele>93</ele>
        <time>2026-08-11T12:35:20.358Z</time>
      </trkpt>
      <trkpt lat="49.33754" lon="1.35086">
        <ele>93</ele>
        <time>2026-08-11T12:35:25.095Z</time>
      </trkpt>
      <trkpt lat="49.33757" lon="1.35088">
        <ele>93</ele>
        <time>2026-08-11T12:35:29.763Z</time>
      </trkpt>
      <trkpt lat="49.3376" lon="1.3509">
        <ele>93</ele>
        <time>2026-08-11T12:35:34.368Z</time>
      </trkpt>
      <trkpt lat="49.33761" lon="1.35095">
        <ele>93</ele>
        <time>2026-08-11T12:35:39.019Z</time>
      </trkpt>
      <trkpt lat="49.33765" lon="1.35099">
        <ele>94</ele>
        <time>2026-08-11T12:35:43.061Z</time>
      </trkpt>
      <trkpt lat="49.33766" lon="1.35098">
        <ele>94</ele>
        <time>2026-08-11T12:35:47.183Z</time>
      </trkpt>
      <trkpt lat="49.33769" lon="1.35103">
        <ele>94</ele>
        <time>2026-08-11T12:35:51.364Z</time>
      </trkpt>
      <trkpt lat="49.33774" lon="1.35106">
        <ele>94</ele>
        <time>2026-08-11T12:35:56.022Z</time>
      </trkpt>
      <trkpt lat="49.33778" lon="1.35108">
        <ele>94</ele>
        <time>2026-08-11T12:36:00.363Z</time>
      </trkpt>
      <trkpt lat="49.33782" lon="1.35111">
        <ele>94</ele>
        <time>2026-08-11T12:36:04.901Z</time>
      </trkpt>
      <trkpt lat="49.33787" lon="1.35113">
        <ele>94</ele>
        <time>2026-08-11T12:36:09.261Z</time>
      </trkpt>
      <trkpt lat="49.33791" lon="1.35113">
        <ele>94</ele>
        <time>2026-08-11T12:36:13.371Z</time>
      </trkpt>
      <trkpt lat="49.33796" lon="1.35111">
        <ele>94</ele>
        <time>2026-08-11T12:36:18.060Z</time>
      </trkpt>
      <trkpt lat="49.338" lon="1.35111">
        <ele>94</ele>
        <time>2026-08-11T12:36:22.102Z</time>
      </trkpt>
      <trkpt lat="49.33802" lon="1.35113">
        <ele>94</ele>
        <time>2026-08-11T12:36:26.358Z</time>
      </trkpt>
      <trkpt lat="49.33805" lon="1.35112">
        <ele>94</ele>
        <time>2026-08-11T12:36:30.922Z</time>
      </trkpt>
      <trkpt lat="49.33809" lon="1.35117">
        <ele>94</ele>
        <time>2026-08-11T12:36:35.367Z</time>
      </trkpt>
      <trkpt lat="49.33813" lon="1.35119">
        <ele>94</ele>
        <time>2026-08-11T12:36:39.761Z</time>
      </trkpt>
      <trkpt lat="49.33817" lon="1.35122">
        <ele>94</ele>
        <time>2026-08-11T12:36:44.319Z</time>
      </trkpt>
      <trkpt lat="49.3382" lon="1.35121">
        <ele>97</ele>
        <time>2026-08-11T12:36:48.580Z</time>
      </trkpt>
      <trkpt lat="49.33823" lon="1.35126">
        <ele>101</ele>
        <time>2026-08-11T12:36:53.059Z</time>
      </trkpt>
      <trkpt lat="49.33826" lon="1.3513">
        <ele>101</ele>
        <time>2026-08-11T12:36:57.365Z</time>
      </trkpt>
      <trkpt lat="49.33829" lon="1.35132">
        <ele>101</ele>
        <time>2026-08-11T12:37:01.978Z</time>
      </trkpt>
      <trkpt lat="49.33832" lon="1.35132">
        <ele>101</ele>
        <time>2026-08-11T12:37:06.362Z</time>
      </trkpt>
      <trkpt lat="49.33836" lon="1.35131">
        <ele>101</ele>
        <time>2026-08-11T12:37:10.936Z</time>
      </trkpt>
      <trkpt lat="49.3384" lon="1.3513">
        <ele>101</ele>
        <time>2026-08-11T12:37:15.336Z</time>
      </trkpt>
      <trkpt lat="49.33843" lon="1.35129">
        <ele>101</ele>
        <time>2026-08-11T12:37:19.755Z</time>
      </trkpt>
      <trkpt lat="49.33847" lon="1.3513">
        <ele>101</ele>
        <time>2026-08-11T12:37:24.254Z</time>
      </trkpt>
      <trkpt lat="49.33851" lon="1.35129">
        <ele>105</ele>
        <time>2026-08-11T12:37:28.843Z</time>
      </trkpt>
      <trkpt lat="49.33856" lon="1.35128">
        <ele>105</ele>
        <time>2026-08-11T12:37:33.365Z</time>
      </trkpt>
      <trkpt lat="49.3386" lon="1.35127">
        <ele>105</ele>
        <time>2026-08-11T12:37:37.861Z</time>
      </trkpt>
      <trkpt lat="49.33863" lon="1.35128">
        <ele>105</ele>
        <time>2026-08-11T12:37:42.357Z</time>
      </trkpt>
      <trkpt lat="49.33868" lon="1.35131">
        <ele>105</ele>
        <time>2026-08-11T12:37:46.978Z</time>
      </trkpt>
      <trkpt lat="49.3387" lon="1.35133">
        <ele>105</ele>
        <time>2026-08-11T12:37:51.367Z</time>
      </trkpt>
      <trkpt lat="49.33874" lon="1.35134">
        <ele>105</ele>
        <time>2026-08-11T12:37:55.916Z</time>
      </trkpt>
      <trkpt lat="49.33878" lon="1.35133">
        <ele>107</ele>
        <time>2026-08-11T12:38:00.358Z</time>
      </trkpt>
      <trkpt lat="49.33882" lon="1.35133">
        <ele>107</ele>
        <time>2026-08-11T12:38:05.024Z</time>
      </trkpt>
      <trkpt lat="49.33885" lon="1.35133">
        <ele>107</ele>
        <time>2026-08-11T12:38:09.056Z</time>
      </trkpt>
      <trkpt lat="49.33887" lon="1.35134">
        <ele>107</ele>
        <time>2026-08-11T12:38:13.744Z</time>
      </trkpt>
      <trkpt lat="49.33889" lon="1.35139">
        <ele>107</ele>
        <time>2026-08-11T12:38:18.342Z</time>
      </trkpt>
      <trkpt lat="49.33891" lon="1.35143">
        <ele>107</ele>
        <time>2026-08-11T12:38:22.742Z</time>
      </trkpt>
      <trkpt lat="49.33894" lon="1.35143">
        <ele>107</ele>
        <time>2026-08-11T12:38:27.300Z</time>
      </trkpt>
      <trkpt lat="49.33897" lon="1.35142">
        <ele>107</ele>
        <time>2026-08-11T12:38:31.366Z</time>
      </trkpt>
      <trkpt lat="49.33901" lon="1.35143">
        <ele>107</ele>
        <time>2026-08-11T12:38:36.259Z</time>
      </trkpt>
      <trkpt lat="49.33904" lon="1.35146">
        <ele>111</ele>
        <time>2026-08-11T12:38:40.936Z</time>
      </trkpt>
      <trkpt lat="49.33906" lon="1.3515">
        <ele>111</ele>
        <time>2026-08-11T12:38:45.369Z</time>
      </trkpt>
      <trkpt lat="49.33909" lon="1.35154">
        <ele>113</ele>
        <time>2026-08-11T12:38:50.103Z</time>
      </trkpt>
      <trkpt lat="49.33913" lon="1.35159">
        <ele>113</ele>
        <time>2026-08-11T12:38:54.801Z</time>
      </trkpt>
      <trkpt lat="49.33917" lon="1.35163">
        <ele>113</ele>
        <time>2026-08-11T12:38:59.300Z</time>
      </trkpt>
      <trkpt lat="49.3392" lon="1.35168">
        <ele>113</ele>
        <time>2026-08-11T12:39:03.938Z</time>
      </trkpt>
      <trkpt lat="49.33922" lon="1.35172">
        <ele>113</ele>
        <time>2026-08-11T12:39:08.363Z</time>
      </trkpt>
      <trkpt lat="49.33926" lon="1.35174">
        <ele>113</ele>
        <time>2026-08-11T12:39:12.936Z</time>
      </trkpt>
      <trkpt lat="49.33929" lon="1.35176">
        <ele>113</ele>
        <time>2026-08-11T12:39:17.369Z</time>
      </trkpt>
      <trkpt lat="49.33931" lon="1.35179">
        <ele>116</ele>
        <time>2026-08-11T12:39:22.262Z</time>
      </trkpt>
      <trkpt lat="49.33934" lon="1.35181">
        <ele>116</ele>
        <time>2026-08-11T12:40:57.358Z</time>
      </trkpt>
      <trkpt lat="49.33938" lon="1.35182">
        <ele>118</ele>
        <time>2026-08-11T12:41:01.795Z</time>
      </trkpt>
      <trkpt lat="49.33942" lon="1.35185">
        <ele>118</ele>
        <time>2026-08-11T12:41:05.838Z</time>
      </trkpt>
      <trkpt lat="49.33946" lon="1.35187">
        <ele>118</ele>
        <time>2026-08-11T12:41:09.860Z</time>
      </trkpt>
      <trkpt lat="49.3395" lon="1.35187">
        <ele>118</ele>
        <time>2026-08-11T12:41:14.021Z</time>
      </trkpt>
      <trkpt lat="49.33954" lon="1.35188">
        <ele>118</ele>
        <time>2026-08-11T12:41:18.360Z</time>
      </trkpt>
      <trkpt lat="49.33958" lon="1.35189">
        <ele>118</ele>
        <time>2026-08-11T12:41:23.337Z</time>
      </trkpt>
      <trkpt lat="49.33962" lon="1.3519">
        <ele>121</ele>
        <time>2026-08-11T12:41:28.035Z</time>
      </trkpt>
      <trkpt lat="49.33966" lon="1.35189">
        <ele>121</ele>
        <time>2026-08-11T12:41:32.354Z</time>
      </trkpt>
      <trkpt lat="49.33969" lon="1.35188">
        <ele>121</ele>
        <time>2026-08-11T12:41:37.363Z</time>
      </trkpt>
      <trkpt lat="49.33973" lon="1.35186">
        <ele>121</ele>
        <time>2026-08-11T12:41:41.978Z</time>
      </trkpt>
      <trkpt lat="49.33977" lon="1.35183">
        <ele>121</ele>
        <time>2026-08-11T12:41:46.365Z</time>
      </trkpt>
      <trkpt lat="49.33981" lon="1.3518">
        <ele>121</ele>
        <time>2026-08-11T12:41:50.937Z</time>
      </trkpt>
      <trkpt lat="49.33984" lon="1.35176">
        <ele>121</ele>
        <time>2026-08-11T12:41:55.382Z</time>
      </trkpt>
      <trkpt lat="49.33988" lon="1.35173">
        <ele>126</ele>
        <time>2026-08-11T12:41:59.954Z</time>
      </trkpt>
      <trkpt lat="49.33991" lon="1.35168">
        <ele>126</ele>
        <time>2026-08-11T12:42:04.354Z</time>
      </trkpt>
      <trkpt lat="49.33994" lon="1.35164">
        <ele>126</ele>
        <time>2026-08-11T12:42:08.883Z</time>
      </trkpt>
      <trkpt lat="49.34001" lon="1.3517">
        <ele>126</ele>
        <time>2026-08-11T12:42:57.359Z</time>
      </trkpt>
      <trkpt lat="49.33999" lon="1.35175">
        <ele>126</ele>
        <time>2026-08-11T12:43:01.877Z</time>
      </trkpt>
      <trkpt lat="49.33996" lon="1.3518">
        <ele>126</ele>
        <time>2026-08-11T12:43:06.118Z</time>
      </trkpt>
      <trkpt lat="49.33993" lon="1.35185">
        <ele>126</ele>
        <time>2026-08-11T12:43:10.378Z</time>
      </trkpt>
      <trkpt lat="49.33991" lon="1.35189">
        <ele>126</ele>
        <time>2026-08-11T12:43:14.778Z</time>
      </trkpt>
      <trkpt lat="49.33988" lon="1.35192">
        <ele>126</ele>
        <time>2026-08-11T12:43:19.019Z</time>
      </trkpt>
      <trkpt lat="49.33984" lon="1.35196">
        <ele>121</ele>
        <time>2026-08-11T12:43:23.359Z</time>
      </trkpt>
      <trkpt lat="49.33982" lon="1.35201">
        <ele>121</ele>
        <time>2026-08-11T12:43:27.364Z</time>
      </trkpt>
      <trkpt lat="49.33979" lon="1.35205">
        <ele>121</ele>
        <time>2026-08-11T12:43:31.602Z</time>
      </trkpt>
      <trkpt lat="49.33976" lon="1.35209">
        <ele>124</ele>
        <time>2026-08-11T12:43:35.763Z</time>
      </trkpt>
      <trkpt lat="49.33972" lon="1.35214">
        <ele>124</ele>
        <time>2026-08-11T12:43:40.355Z</time>
      </trkpt>
      <trkpt lat="49.33968" lon="1.35218">
        <ele>124</ele>
        <time>2026-08-11T12:43:44.920Z</time>
      </trkpt>
      <trkpt lat="49.33964" lon="1.35223">
        <ele>124</ele>
        <time>2026-08-11T12:43:49.220Z</time>
      </trkpt>
      <trkpt lat="49.33962" lon="1.35228">
        <ele>124</ele>
        <time>2026-08-11T12:43:53.369Z</time>
      </trkpt>
      <trkpt lat="49.33959" lon="1.3523">
        <ele>124</ele>
        <time>2026-08-11T12:43:57.682Z</time>
      </trkpt>
      <trkpt lat="49.33955" lon="1.35233">
        <ele>122</ele>
        <time>2026-08-11T12:44:01.942Z</time>
      </trkpt>
      <trkpt lat="49.33952" lon="1.35237">
        <ele>125</ele>
        <time>2026-08-11T12:44:06.163Z</time>
      </trkpt>
      <trkpt lat="49.3395" lon="1.35242">
        <ele>125</ele>
        <time>2026-08-11T12:44:10.176Z</time>
      </trkpt>
      <trkpt lat="49.33948" lon="1.35248">
        <ele>125</ele>
        <time>2026-08-11T12:44:14.317Z</time>
      </trkpt>
      <trkpt lat="49.33947" lon="1.35255">
        <ele>125</ele>
        <time>2026-08-11T12:44:18.369Z</time>
      </trkpt>
      <trkpt lat="49.33946" lon="1.35261">
        <ele>125</ele>
        <time>2026-08-11T12:44:22.369Z</time>
      </trkpt>
      <trkpt lat="49.33944" lon="1.3527">
        <ele>129</ele>
        <time>2026-08-11T12:44:27.198Z</time>
      </trkpt>
      <trkpt lat="49.3394" lon="1.35274">
        <ele>129</ele>
        <time>2026-08-11T12:44:31.240Z</time>
      </trkpt>
      <trkpt lat="49.33936" lon="1.35277">
        <ele>129</ele>
        <time>2026-08-11T12:44:35.342Z</time>
      </trkpt>
      <trkpt lat="49.33931" lon="1.35279">
        <ele>129</ele>
        <time>2026-08-11T12:44:40.178Z</time>
      </trkpt>
      <trkpt lat="49.33927" lon="1.35279">
        <ele>129</ele>
        <time>2026-08-11T12:44:44.280Z</time>
      </trkpt>
      <trkpt lat="49.33924" lon="1.35281">
        <ele>129</ele>
        <time>2026-08-11T12:44:48.759Z</time>
      </trkpt>
      <trkpt lat="49.3392" lon="1.35283">
        <ele>129</ele>
        <time>2026-08-11T12:44:52.821Z</time>
      </trkpt>
      <trkpt lat="49.33915" lon="1.35284">
        <ele>129</ele>
        <time>2026-08-11T12:44:57.359Z</time>
      </trkpt>
      <trkpt lat="49.3391" lon="1.35283">
        <ele>129</ele>
        <time>2026-08-11T12:45:01.368Z</time>
      </trkpt>
      <trkpt lat="49.33904" lon="1.35285">
        <ele>129</ele>
        <time>2026-08-11T12:45:05.920Z</time>
      </trkpt>
      <trkpt lat="49.339" lon="1.35291">
        <ele>128</ele>
        <time>2026-08-11T12:45:10.364Z</time>
      </trkpt>
      <trkpt lat="49.33896" lon="1.35296">
        <ele>131</ele>
        <time>2026-08-11T12:45:14.541Z</time>
      </trkpt>
      <trkpt lat="49.33894" lon="1.35303">
        <ele>131</ele>
        <time>2026-08-11T12:45:18.841Z</time>
      </trkpt>
      <trkpt lat="49.33891" lon="1.35309">
        <ele>131</ele>
        <time>2026-08-11T12:45:23.340Z</time>
      </trkpt>
      <trkpt lat="49.33887" lon="1.35315">
        <ele>131</ele>
        <time>2026-08-11T12:45:27.898Z</time>
      </trkpt>
      <trkpt lat="49.33885" lon="1.35318">
        <ele>131</ele>
        <time>2026-08-11T12:45:32.040Z</time>
      </trkpt>
      <trkpt lat="49.33887" lon="1.35318">
        <ele>131</ele>
        <time>2026-08-11T12:45:41.355Z</time>
      </trkpt>
      <trkpt lat="49.33887" lon="1.35319">
        <ele>131</ele>
        <time>2026-08-11T12:45:46.369Z</time>
      </trkpt>
      <trkpt lat="49.33886" lon="1.35322">
        <ele>134</ele>
        <time>2026-08-11T12:45:50.361Z</time>
      </trkpt>
      <trkpt lat="49.33884" lon="1.3533">
        <ele>134</ele>
        <time>2026-08-11T12:45:54.664Z</time>
      </trkpt>
      <trkpt lat="49.33884" lon="1.35338">
        <ele>134</ele>
        <time>2026-08-11T12:45:59.222Z</time>
      </trkpt>
      <trkpt lat="49.33886" lon="1.35346">
        <ele>134</ele>
        <time>2026-08-11T12:46:04.039Z</time>
      </trkpt>
      <trkpt lat="49.33888" lon="1.35352">
        <ele>136</ele>
        <time>2026-08-11T12:46:08.121Z</time>
      </trkpt>
      <trkpt lat="49.33892" lon="1.35352">
        <ele>136</ele>
        <time>2026-08-11T12:46:12.356Z</time>
      </trkpt>
      <trkpt lat="49.33895" lon="1.35357">
        <ele>136</ele>
        <time>2026-08-11T12:46:16.940Z</time>
      </trkpt>
      <trkpt lat="49.33898" lon="1.35362">
        <ele>136</ele>
        <time>2026-08-11T12:46:21.365Z</time>
      </trkpt>
      <trkpt lat="49.33901" lon="1.35365">
        <ele>136</ele>
        <time>2026-08-11T12:46:25.641Z</time>
      </trkpt>
      <trkpt lat="49.33904" lon="1.35367">
        <ele>138</ele>
        <time>2026-08-11T12:46:30.140Z</time>
      </trkpt>
      <trkpt lat="49.33908" lon="1.35374">
        <ele>138</ele>
        <time>2026-08-11T12:46:34.857Z</time>
      </trkpt>
      <trkpt lat="49.33911" lon="1.3538">
        <ele>138</ele>
        <time>2026-08-11T12:46:39.363Z</time>
      </trkpt>
      <trkpt lat="49.33914" lon="1.35381">
        <ele>138</ele>
        <time>2026-08-11T12:46:43.362Z</time>
      </trkpt>
      <trkpt lat="49.33918" lon="1.35382">
        <ele>138</ele>
        <time>2026-08-11T12:46:47.898Z</time>
      </trkpt>
      <trkpt lat="49.33922" lon="1.35386">
        <ele>138</ele>
        <time>2026-08-11T12:46:52.258Z</time>
      </trkpt>
      <trkpt lat="49.33926" lon="1.3539">
        <ele>138</ele>
        <time>2026-08-11T12:46:56.777Z</time>
      </trkpt>
      <trkpt lat="49.3393" lon="1.35394">
        <ele>138</ele>
        <time>2026-08-11T12:47:01.197Z</time>
      </trkpt>
      <trkpt lat="49.33935" lon="1.35398">
        <ele>137</ele>
        <time>2026-08-11T12:47:05.795Z</time>
      </trkpt>
      <trkpt lat="49.33939" lon="1.35401">
        <ele>137</ele>
        <time>2026-08-11T12:47:10.235Z</time>
      </trkpt>
      <trkpt lat="49.33943" lon="1.35405">
        <ele>137</ele>
        <time>2026-08-11T12:47:14.694Z</time>
      </trkpt>
      <trkpt lat="49.33947" lon="1.35408">
        <ele>137</ele>
        <time>2026-08-11T12:47:18.995Z</time>
      </trkpt>
      <trkpt lat="49.33951" lon="1.35409">
        <ele>137</ele>
        <time>2026-08-11T12:47:23.358Z</time>
      </trkpt>
      <trkpt lat="49.33956" lon="1.35411">
        <ele>137</ele>
        <time>2026-08-11T12:47:27.834Z</time>
      </trkpt>
      <trkpt lat="49.33961" lon="1.35412">
        <ele>138</ele>
        <time>2026-08-11T12:47:32.361Z</time>
      </trkpt>
      <trkpt lat="49.33965" lon="1.35416">
        <ele>138</ele>
        <time>2026-08-11T12:47:36.356Z</time>
      </trkpt>
      <trkpt lat="49.3397" lon="1.3542">
        <ele>138</ele>
        <time>2026-08-11T12:47:41.064Z</time>
      </trkpt>
      <trkpt lat="49.33975" lon="1.35423">
        <ele>138</ele>
        <time>2026-08-11T12:47:45.622Z</time>
      </trkpt>
      <trkpt lat="49.33979" lon="1.35424">
        <ele>138</ele>
        <time>2026-08-11T12:47:50.082Z</time>
      </trkpt>
      <trkpt lat="49.33983" lon="1.35428">
        <ele>138</ele>
        <time>2026-08-11T12:47:54.367Z</time>
      </trkpt>
      <trkpt lat="49.33986" lon="1.35432">
        <ele>137</ele>
        <time>2026-08-11T12:47:58.363Z</time>
      </trkpt>
      <trkpt lat="49.33989" lon="1.35436">
        <ele>138</ele>
        <time>2026-08-11T12:48:02.924Z</time>
      </trkpt>
      <trkpt lat="49.33992" lon="1.35441">
        <ele>138</ele>
        <time>2026-08-11T12:48:07.365Z</time>
      </trkpt>
      <trkpt lat="49.33995" lon="1.35448">
        <ele>138</ele>
        <time>2026-08-11T12:48:11.962Z</time>
      </trkpt>
      <trkpt lat="49.33998" lon="1.35454">
        <ele>138</ele>
        <time>2026-08-11T12:48:15.984Z</time>
      </trkpt>
      <trkpt lat="49.34" lon="1.3546">
        <ele>137</ele>
        <time>2026-08-11T12:48:19.997Z</time>
      </trkpt>
      <trkpt lat="49.34002" lon="1.35468">
        <ele>137</ele>
        <time>2026-08-11T12:48:24.360Z</time>
      </trkpt>
      <trkpt lat="49.34003" lon="1.35476">
        <ele>137</ele>
        <time>2026-08-11T12:48:28.363Z</time>
      </trkpt>
      <trkpt lat="49.34005" lon="1.35482">
        <ele>137</ele>
        <time>2026-08-11T12:48:32.366Z</time>
      </trkpt>
      <trkpt lat="49.34007" lon="1.35487">
        <ele>136</ele>
        <time>2026-08-11T12:48:36.861Z</time>
      </trkpt>
      <trkpt lat="49.34012" lon="1.35489">
        <ele>136</ele>
        <time>2026-08-11T12:48:40.903Z</time>
      </trkpt>
      <trkpt lat="49.34015" lon="1.35492">
        <ele>137</ele>
        <time>2026-08-11T12:48:45.365Z</time>
      </trkpt>
      <trkpt lat="49.34019" lon="1.35496">
        <ele>137</ele>
        <time>2026-08-11T12:48:49.802Z</time>
      </trkpt>
      <trkpt lat="49.34021" lon="1.35503">
        <ele>137</ele>
        <time>2026-08-11T12:48:54.301Z</time>
      </trkpt>
      <trkpt lat="49.34022" lon="1.3551">
        <ele>137</ele>
        <time>2026-08-11T12:48:58.721Z</time>
      </trkpt>
      <trkpt lat="49.34022" lon="1.35518">
        <ele>137</ele>
        <time>2026-08-11T12:49:03.002Z</time>
      </trkpt>
      <trkpt lat="49.34021" lon="1.35528">
        <ele>137</ele>
        <time>2026-08-11T12:49:07.342Z</time>
      </trkpt>
      <trkpt lat="49.3402" lon="1.35534">
        <ele>137</ele>
        <time>2026-08-11T12:49:11.762Z</time>
      </trkpt>
      <trkpt lat="49.34019" lon="1.35541">
        <ele>137</ele>
        <time>2026-08-11T12:49:16.003Z</time>
      </trkpt>
      <trkpt lat="49.34017" lon="1.35549">
        <ele>137</ele>
        <time>2026-08-11T12:49:20.055Z</time>
      </trkpt>
      <trkpt lat="49.34014" lon="1.35556">
        <ele>137</ele>
        <time>2026-08-11T12:49:24.783Z</time>
      </trkpt>
      <trkpt lat="49.34014" lon="1.35562">
        <ele>137</ele>
        <time>2026-08-11T12:49:28.835Z</time>
      </trkpt>
      <trkpt lat="49.34015" lon="1.35569">
        <ele>137</ele>
        <time>2026-08-11T12:49:33.216Z</time>
      </trkpt>
      <trkpt lat="49.34016" lon="1.35577">
        <ele>137</ele>
        <time>2026-08-11T12:49:37.735Z</time>
      </trkpt>
      <trkpt lat="49.34015" lon="1.35586">
        <ele>137</ele>
        <time>2026-08-11T12:49:42.284Z</time>
      </trkpt>
      <trkpt lat="49.34016" lon="1.35593">
        <ele>137</ele>
        <time>2026-08-11T12:49:46.359Z</time>
      </trkpt>
      <trkpt lat="49.3402" lon="1.35596">
        <ele>137</ele>
        <time>2026-08-11T12:49:50.558Z</time>
      </trkpt>
      <trkpt lat="49.34023" lon="1.35602">
        <ele>138</ele>
        <time>2026-08-11T12:49:54.819Z</time>
      </trkpt>
      <trkpt lat="49.34026" lon="1.35606">
        <ele>138</ele>
        <time>2026-08-11T12:49:59.298Z</time>
      </trkpt>
      <trkpt lat="49.34028" lon="1.35612">
        <ele>138</ele>
        <time>2026-08-11T12:50:03.579Z</time>
      </trkpt>
      <trkpt lat="49.3403" lon="1.3562">
        <ele>138</ele>
        <time>2026-08-11T12:50:08.079Z</time>
      </trkpt>
      <trkpt lat="49.34032" lon="1.35632">
        <ele>139</ele>
        <time>2026-08-11T12:50:12.358Z</time>
      </trkpt>
      <trkpt lat="49.34032" lon="1.35643">
        <ele>139</ele>
        <time>2026-08-11T12:50:16.859Z</time>
      </trkpt>
      <trkpt lat="49.34034" lon="1.35649">
        <ele>139</ele>
        <time>2026-08-11T12:50:20.842Z</time>
      </trkpt>
      <trkpt lat="49.34036" lon="1.35654">
        <ele>140</ele>
        <time>2026-08-11T12:50:24.984Z</time>
      </trkpt>
      <trkpt lat="49.34037" lon="1.3566">
        <ele>140</ele>
        <time>2026-08-11T12:50:29.742Z</time>
      </trkpt>
      <trkpt lat="49.3404" lon="1.35666">
        <ele>140</ele>
        <time>2026-08-11T12:50:34.142Z</time>
      </trkpt>
      <trkpt lat="49.34043" lon="1.35671">
        <ele>137</ele>
        <time>2026-08-11T12:50:38.175Z</time>
      </trkpt>
      <trkpt lat="49.34052" lon="1.35674">
        <ele>137</ele>
        <time>2026-08-11T12:52:37.583Z</time>
      </trkpt>
      <trkpt lat="49.34054" lon="1.35683">
        <ele>138</ele>
        <time>2026-08-11T12:52:42.261Z</time>
      </trkpt>
      <trkpt lat="49.34056" lon="1.35688">
        <ele>138</ele>
        <time>2026-08-11T12:52:46.283Z</time>
      </trkpt>
      <trkpt lat="49.34058" lon="1.35695">
        <ele>138</ele>
        <time>2026-08-11T12:52:50.316Z</time>
      </trkpt>
      <trkpt lat="49.3406" lon="1.35701">
        <ele>138</ele>
        <time>2026-08-11T12:52:54.696Z</time>
      </trkpt>
      <trkpt lat="49.34062" lon="1.35708">
        <ele>138</ele>
        <time>2026-08-11T12:52:59.126Z</time>
      </trkpt>
      <trkpt lat="49.34064" lon="1.35716">
        <ele>139</ele>
        <time>2026-08-11T12:53:03.575Z</time>
      </trkpt>
      <trkpt lat="49.34066" lon="1.35723">
        <ele>139</ele>
        <time>2026-08-11T12:53:07.995Z</time>
      </trkpt>
      <trkpt lat="49.3407" lon="1.35728">
        <ele>138</ele>
        <time>2026-08-11T12:53:12.371Z</time>
      </trkpt>
      <trkpt lat="49.34072" lon="1.35734">
        <ele>138</ele>
        <time>2026-08-11T12:53:16.895Z</time>
      </trkpt>
      <trkpt lat="49.34075" lon="1.35738">
        <ele>138</ele>
        <time>2026-08-11T12:53:21.357Z</time>
      </trkpt>
      <trkpt lat="49.34076" lon="1.35744">
        <ele>138</ele>
        <time>2026-08-11T12:53:26.122Z</time>
      </trkpt>
      <trkpt lat="49.34077" lon="1.35752">
        <ele>138</ele>
        <time>2026-08-11T12:53:30.360Z</time>
      </trkpt>
      <trkpt lat="49.34081" lon="1.3576">
        <ele>138</ele>
        <time>2026-08-11T12:53:43.359Z</time>
      </trkpt>
      <trkpt lat="49.34082" lon="1.35758">
        <ele>138</ele>
        <time>2026-08-11T12:53:47.368Z</time>
      </trkpt>
      <trkpt lat="49.34082" lon="1.35757">
        <ele>138</ele>
        <time>2026-08-11T12:53:52.601Z</time>
      </trkpt>
      <trkpt lat="49.34083" lon="1.35764">
        <ele>139</ele>
        <time>2026-08-11T12:53:57.259Z</time>
      </trkpt>
      <trkpt lat="49.34084" lon="1.3577">
        <ele>139</ele>
        <time>2026-08-11T12:54:01.699Z</time>
      </trkpt>
      <trkpt lat="49.34086" lon="1.35777">
        <ele>139</ele>
        <time>2026-08-11T12:54:06.119Z</time>
      </trkpt>
      <trkpt lat="49.34087" lon="1.35783">
        <ele>139</ele>
        <time>2026-08-11T12:54:10.353Z</time>
      </trkpt>
      <trkpt lat="49.34087" lon="1.35789">
        <ele>139</ele>
        <time>2026-08-11T12:54:14.939Z</time>
      </trkpt>
      <trkpt lat="49.34087" lon="1.35794">
        <ele>139</ele>
        <time>2026-08-11T12:54:19.061Z</time>
      </trkpt>
      <trkpt lat="49.34087" lon="1.35793">
        <ele>139</ele>
        <time>2026-08-11T12:54:23.357Z</time>
      </trkpt>
      <trkpt lat="49.34087" lon="1.35792">
        <ele>139</ele>
        <time>2026-08-11T12:54:28.278Z</time>
      </trkpt>
      <trkpt lat="49.34082" lon="1.35794">
        <ele>139</ele>
        <time>2026-08-11T12:54:32.777Z</time>
      </trkpt>
      <trkpt lat="49.34078" lon="1.3579">
        <ele>139</ele>
        <time>2026-08-11T12:54:37.038Z</time>
      </trkpt>
      <trkpt lat="49.34077" lon="1.35791">
        <ele>139</ele>
        <time>2026-08-11T12:55:26.014Z</time>
      </trkpt>
      <trkpt lat="49.34077" lon="1.35796">
        <ele>139</ele>
        <time>2026-08-11T12:55:30.369Z</time>
      </trkpt>
      <trkpt lat="49.3408" lon="1.35803">
        <ele>139</ele>
        <time>2026-08-11T12:55:34.774Z</time>
      </trkpt>
      <trkpt lat="49.3408" lon="1.35809">
        <ele>139</ele>
        <time>2026-08-11T12:55:38.916Z</time>
      </trkpt>
      <trkpt lat="49.3408" lon="1.35816">
        <ele>139</ele>
        <time>2026-08-11T12:55:43.038Z</time>
      </trkpt>
      <trkpt lat="49.3408" lon="1.35822">
        <ele>138</ele>
        <time>2026-08-11T12:55:47.120Z</time>
      </trkpt>
      <trkpt lat="49.3408" lon="1.35829">
        <ele>138</ele>
        <time>2026-08-11T12:55:51.322Z</time>
      </trkpt>
      <trkpt lat="49.34077" lon="1.35836">
        <ele>138</ele>
        <time>2026-08-11T12:55:55.980Z</time>
      </trkpt>
      <trkpt lat="49.34075" lon="1.35842">
        <ele>138</ele>
        <time>2026-08-11T12:56:00.141Z</time>
      </trkpt>
      <trkpt lat="49.34072" lon="1.35848">
        <ele>136</ele>
        <time>2026-08-11T12:56:04.343Z</time>
      </trkpt>
      <trkpt lat="49.34066" lon="1.35853">
        <ele>140</ele>
        <time>2026-08-11T12:56:08.902Z</time>
      </trkpt>
      <trkpt lat="49.34063" lon="1.35859">
        <ele>140</ele>
        <time>2026-08-11T12:56:13.580Z</time>
      </trkpt>
      <trkpt lat="49.34058" lon="1.35864">
        <ele>140</ele>
        <time>2026-08-11T12:56:17.702Z</time>
      </trkpt>
      <trkpt lat="49.34055" lon="1.35868">
        <ele>140</ele>
        <time>2026-08-11T12:56:21.824Z</time>
      </trkpt>
      <trkpt lat="49.34052" lon="1.35876">
        <ele>137</ele>
        <time>2026-08-11T12:56:25.936Z</time>
      </trkpt>
      <trkpt lat="49.3405" lon="1.35883">
        <ele>137</ele>
        <time>2026-08-11T12:56:29.938Z</time>
      </trkpt>
      <trkpt lat="49.34048" lon="1.35889">
        <ele>137</ele>
        <time>2026-08-11T12:56:34.199Z</time>
      </trkpt>
      <trkpt lat="49.34046" lon="1.35895">
        <ele>137</ele>
        <time>2026-08-11T12:56:38.361Z</time>
      </trkpt>
      <trkpt lat="49.34043" lon="1.35902">
        <ele>137</ele>
        <time>2026-08-11T12:56:42.662Z</time>
      </trkpt>
      <trkpt lat="49.34041" lon="1.35908">
        <ele>136</ele>
        <time>2026-08-11T12:56:46.724Z</time>
      </trkpt>
      <trkpt lat="49.34038" lon="1.35915">
        <ele>136</ele>
        <time>2026-08-11T12:56:51.034Z</time>
      </trkpt>
      <trkpt lat="49.34037" lon="1.3592">
        <ele>136</ele>
        <time>2026-08-11T12:56:55.097Z</time>
      </trkpt>
      <trkpt lat="49.34035" lon="1.35926">
        <ele>136</ele>
        <time>2026-08-11T12:56:59.362Z</time>
      </trkpt>
      <trkpt lat="49.34034" lon="1.35931">
        <ele>136</ele>
        <time>2026-08-11T12:57:03.599Z</time>
      </trkpt>
      <trkpt lat="49.34031" lon="1.35938">
        <ele>133</ele>
        <time>2026-08-11T12:57:07.840Z</time>
      </trkpt>
      <trkpt lat="49.34027" lon="1.35946">
        <ele>133</ele>
        <time>2026-08-11T12:57:11.981Z</time>
      </trkpt>
      <trkpt lat="49.34023" lon="1.35954">
        <ele>133</ele>
        <time>2026-08-11T12:57:16.282Z</time>
      </trkpt>
      <trkpt lat="49.3402" lon="1.35961">
        <ele>132</ele>
        <time>2026-08-11T12:57:20.294Z</time>
      </trkpt>
      <trkpt lat="49.34017" lon="1.35967">
        <ele>132</ele>
        <time>2026-08-11T12:57:24.369Z</time>
      </trkpt>
      <trkpt lat="49.34014" lon="1.35974">
        <ele>132</ele>
        <time>2026-08-11T12:57:28.558Z</time>
      </trkpt>
      <trkpt lat="49.34012" lon="1.3598">
        <ele>134</ele>
        <time>2026-08-11T12:57:32.839Z</time>
      </trkpt>
      <trkpt lat="49.3401" lon="1.35986">
        <ele>134</ele>
        <time>2026-08-11T12:57:36.921Z</time>
      </trkpt>
      <trkpt lat="49.34008" lon="1.35993">
        <ele>134</ele>
        <time>2026-08-11T12:57:41.122Z</time>
      </trkpt>
      <trkpt lat="49.34005" lon="1.36002">
        <ele>134</ele>
        <time>2026-08-11T12:57:45.800Z</time>
      </trkpt>
      <trkpt lat="49.34001" lon="1.36008">
        <ele>134</ele>
        <time>2026-08-11T12:57:50.371Z</time>
      </trkpt>
      <trkpt lat="49.33998" lon="1.36013">
        <ele>134</ele>
        <time>2026-08-11T12:57:54.461Z</time>
      </trkpt>
      <trkpt lat="49.33996" lon="1.36018">
        <ele>133</ele>
        <time>2026-08-11T12:57:58.582Z</time>
      </trkpt>
      <trkpt lat="49.33994" lon="1.36023">
        <ele>133</ele>
        <time>2026-08-11T12:58:02.615Z</time>
      </trkpt>
      <trkpt lat="49.33991" lon="1.3603">
        <ele>133</ele>
        <time>2026-08-11T12:58:06.816Z</time>
      </trkpt>
      <trkpt lat="49.33989" lon="1.36036">
        <ele>133</ele>
        <time>2026-08-11T12:58:11.360Z</time>
      </trkpt>
      <trkpt lat="49.33986" lon="1.36043">
        <ele>133</ele>
        <time>2026-08-11T12:58:15.437Z</time>
      </trkpt>
      <trkpt lat="49.33983" lon="1.36051">
        <ele>135</ele>
        <time>2026-08-11T12:58:20.075Z</time>
      </trkpt>
      <trkpt lat="49.33981" lon="1.36058">
        <ele>135</ele>
        <time>2026-08-11T12:58:24.316Z</time>
      </trkpt>
      <trkpt lat="49.33979" lon="1.36064">
        <ele>135</ele>
        <time>2026-08-11T12:58:28.458Z</time>
      </trkpt>
      <trkpt lat="49.33977" lon="1.3607">
        <ele>134</ele>
        <time>2026-08-11T12:58:32.679Z</time>
      </trkpt>
      <trkpt lat="49.33975" lon="1.36076">
        <ele>134</ele>
        <time>2026-08-11T12:58:36.721Z</time>
      </trkpt>
      <trkpt lat="49.33972" lon="1.36083">
        <ele>134</ele>
        <time>2026-08-11T12:58:40.863Z</time>
      </trkpt>
      <trkpt lat="49.3397" lon="1.36089">
        <ele>134</ele>
        <time>2026-08-11T12:58:44.975Z</time>
      </trkpt>
      <trkpt lat="49.33968" lon="1.36096">
        <ele>134</ele>
        <time>2026-08-11T12:58:49.116Z</time>
      </trkpt>
      <trkpt lat="49.33966" lon="1.36102">
        <ele>134</ele>
        <time>2026-08-11T12:58:53.179Z</time>
      </trkpt>
      <trkpt lat="49.33963" lon="1.36109">
        <ele>134</ele>
        <time>2026-08-11T12:58:57.356Z</time>
      </trkpt>
      <trkpt lat="49.3396" lon="1.36117">
        <ele>134</ele>
        <time>2026-08-11T12:59:01.661Z</time>
      </trkpt>
      <trkpt lat="49.33957" lon="1.36122">
        <ele>135</ele>
        <time>2026-08-11T12:59:05.901Z</time>
      </trkpt>
      <trkpt lat="49.33956" lon="1.36129">
        <ele>134</ele>
        <time>2026-08-11T12:59:10.354Z</time>
      </trkpt>
      <trkpt lat="49.33953" lon="1.36136">
        <ele>134</ele>
        <time>2026-08-11T12:59:14.701Z</time>
      </trkpt>
      <trkpt lat="49.33951" lon="1.36143">
        <ele>134</ele>
        <time>2026-08-11T12:59:18.922Z</time>
      </trkpt>
      <trkpt lat="49.33949" lon="1.3615">
        <ele>134</ele>
        <time>2026-08-11T12:59:22.955Z</time>
      </trkpt>
      <trkpt lat="49.33946" lon="1.36157">
        <ele>134</ele>
        <time>2026-08-11T12:59:27.176Z</time>
      </trkpt>
      <trkpt lat="49.33943" lon="1.36165">
        <ele>134</ele>
        <time>2026-08-11T12:59:31.238Z</time>
      </trkpt>
      <trkpt lat="49.33941" lon="1.3617">
        <ele>134</ele>
        <time>2026-08-11T12:59:35.361Z</time>
      </trkpt>
      <trkpt lat="49.33939" lon="1.36177">
        <ele>134</ele>
        <time>2026-08-11T12:59:39.581Z</time>
      </trkpt>
      <trkpt lat="49.33938" lon="1.36184">
        <ele>134</ele>
        <time>2026-08-11T12:59:43.782Z</time>
      </trkpt>
      <trkpt lat="49.33936" lon="1.3619">
        <ele>134</ele>
        <time>2026-08-11T12:59:47.844Z</time>
      </trkpt>
      <trkpt lat="49.33932" lon="1.36197">
        <ele>134</ele>
        <time>2026-08-11T12:59:52.075Z</time>
      </trkpt>
      <trkpt lat="49.33929" lon="1.36203">
        <ele>136</ele>
        <time>2026-08-11T12:59:56.157Z</time>
      </trkpt>
      <trkpt lat="49.33926" lon="1.3621">
        <ele>135</ele>
        <time>2026-08-11T13:00:00.357Z</time>
      </trkpt>
      <trkpt lat="49.33922" lon="1.36214">
        <ele>135</ele>
        <time>2026-08-11T13:00:04.560Z</time>
      </trkpt>
      <trkpt lat="49.33918" lon="1.3622">
        <ele>135</ele>
        <time>2026-08-11T13:00:08.820Z</time>
      </trkpt>
      <trkpt lat="49.33915" lon="1.36223">
        <ele>135</ele>
        <time>2026-08-11T13:00:12.982Z</time>
      </trkpt>
      <trkpt lat="49.33911" lon="1.36227">
        <ele>135</ele>
        <time>2026-08-11T13:00:17.302Z</time>
      </trkpt>
      <trkpt lat="49.33907" lon="1.36229">
        <ele>135</ele>
        <time>2026-08-11T13:00:21.702Z</time>
      </trkpt>
      <trkpt lat="49.33904" lon="1.36235">
        <ele>135</ele>
        <time>2026-08-11T13:00:26.003Z</time>
      </trkpt>
      <trkpt lat="49.33901" lon="1.36239">
        <ele>136</ele>
        <time>2026-08-11T13:00:30.349Z</time>
      </trkpt>
      <trkpt lat="49.33901" lon="1.36239">
        <ele>136</ele>
        <time>2026-08-11T13:00:39.360Z</time>
      </trkpt>
      <trkpt lat="49.33901" lon="1.36238">
        <ele>136</ele>
        <time>2026-08-11T13:00:44.357Z</time>
      </trkpt>
      <trkpt lat="49.33899" lon="1.3624">
        <ele>136</ele>
        <time>2026-08-11T13:00:48.358Z</time>
      </trkpt>
      <trkpt lat="49.33894" lon="1.36244">
        <ele>136</ele>
        <time>2026-08-11T13:00:52.839Z</time>
      </trkpt>
      <trkpt lat="49.3389" lon="1.36247">
        <ele>136</ele>
        <time>2026-08-11T13:00:56.981Z</time>
      </trkpt>
      <trkpt lat="49.33886" lon="1.3625">
        <ele>136</ele>
        <time>2026-08-11T13:01:00.963Z</time>
      </trkpt>
      <trkpt lat="49.33882" lon="1.36252">
        <ele>136</ele>
        <time>2026-08-11T13:01:05.244Z</time>
      </trkpt>
      <trkpt lat="49.33878" lon="1.36253">
        <ele>136</ele>
        <time>2026-08-11T13:01:09.356Z</time>
      </trkpt>
      <trkpt lat="49.33874" lon="1.36252">
        <ele>137</ele>
        <time>2026-08-11T13:01:13.366Z</time>
      </trkpt>
      <trkpt lat="49.33865" lon="1.36259">
        <ele>137</ele>
        <time>2026-08-11T13:01:31.353Z</time>
      </trkpt>
      <trkpt lat="49.33864" lon="1.3626">
        <ele>137</ele>
        <time>2026-08-11T13:01:35.676Z</time>
      </trkpt>
      <trkpt lat="49.33859" lon="1.36263">
        <ele>137</ele>
        <time>2026-08-11T13:01:39.758Z</time>
      </trkpt>
      <trkpt lat="49.33854" lon="1.36266">
        <ele>137</ele>
        <time>2026-08-11T13:01:43.840Z</time>
      </trkpt>
      <trkpt lat="49.3385" lon="1.36269">
        <ele>137</ele>
        <time>2026-08-11T13:01:47.942Z</time>
      </trkpt>
      <trkpt lat="49.33845" lon="1.36269">
        <ele>137</ele>
        <time>2026-08-11T13:01:52.203Z</time>
      </trkpt>
      <trkpt lat="49.3384" lon="1.36271">
        <ele>137</ele>
        <time>2026-08-11T13:01:56.235Z</time>
      </trkpt>
      <trkpt lat="49.33836" lon="1.36275">
        <ele>137</ele>
        <time>2026-08-11T13:02:00.360Z</time>
      </trkpt>
      <trkpt lat="49.3383" lon="1.36277">
        <ele>137</ele>
        <time>2026-08-11T13:02:05.144Z</time>
      </trkpt>
      <trkpt lat="49.33826" lon="1.36281">
        <ele>137</ele>
        <time>2026-08-11T13:02:09.584Z</time>
      </trkpt>
      <trkpt lat="49.33821" lon="1.36284">
        <ele>137</ele>
        <time>2026-08-11T13:02:14.202Z</time>
      </trkpt>
      <trkpt lat="49.33816" lon="1.36284">
        <ele>135</ele>
        <time>2026-08-11T13:02:18.761Z</time>
      </trkpt>
      <trkpt lat="49.3381" lon="1.36287">
        <ele>135</ele>
        <time>2026-08-11T13:02:23.359Z</time>
      </trkpt>
      <trkpt lat="49.33806" lon="1.36292">
        <ele>136</ele>
        <time>2026-08-11T13:02:27.521Z</time>
      </trkpt>
      <trkpt lat="49.33801" lon="1.36295">
        <ele>136</ele>
        <time>2026-08-11T13:02:31.662Z</time>
      </trkpt>
      <trkpt lat="49.33795" lon="1.36295">
        <ele>136</ele>
        <time>2026-08-11T13:02:35.784Z</time>
      </trkpt>
      <trkpt lat="49.33789" lon="1.36296">
        <ele>135</ele>
        <time>2026-08-11T13:02:39.856Z</time>
      </trkpt>
      <trkpt lat="49.33785" lon="1.36299">
        <ele>135</ele>
        <time>2026-08-11T13:02:43.958Z</time>
      </trkpt>
      <trkpt lat="49.33781" lon="1.36302">
        <ele>135</ele>
        <time>2026-08-11T13:02:48.080Z</time>
      </trkpt>
      <trkpt lat="49.33776" lon="1.36303">
        <ele>135</ele>
        <time>2026-08-11T13:02:52.261Z</time>
      </trkpt>
      <trkpt lat="49.33769" lon="1.36302">
        <ele>135</ele>
        <time>2026-08-11T13:02:56.362Z</time>
      </trkpt>
      <trkpt lat="49.33765" lon="1.36305">
        <ele>135</ele>
        <time>2026-08-11T13:03:00.524Z</time>
      </trkpt>
      <trkpt lat="49.33761" lon="1.36308">
        <ele>133</ele>
        <time>2026-08-11T13:03:04.775Z</time>
      </trkpt>
      <trkpt lat="49.33758" lon="1.3631">
        <ele>133</ele>
        <time>2026-08-11T13:03:08.877Z</time>
      </trkpt>
      <trkpt lat="49.33755" lon="1.36313">
        <ele>133</ele>
        <time>2026-08-11T13:03:12.939Z</time>
      </trkpt>
      <trkpt lat="49.33751" lon="1.36316">
        <ele>133</ele>
        <time>2026-08-11T13:03:17.120Z</time>
      </trkpt>
      <trkpt lat="49.33745" lon="1.36317">
        <ele>133</ele>
        <time>2026-08-11T13:03:21.281Z</time>
      </trkpt>
      <trkpt lat="49.33741" lon="1.36319">
        <ele>133</ele>
        <time>2026-08-11T13:03:25.359Z</time>
      </trkpt>
      <trkpt lat="49.33737" lon="1.36324">
        <ele>134</ele>
        <time>2026-08-11T13:03:29.535Z</time>
      </trkpt>
      <trkpt lat="49.33733" lon="1.36328">
        <ele>135</ele>
        <time>2026-08-11T13:03:33.716Z</time>
      </trkpt>
      <trkpt lat="49.3373" lon="1.36333">
        <ele>135</ele>
        <time>2026-08-11T13:03:37.957Z</time>
      </trkpt>
      <trkpt lat="49.33725" lon="1.36338">
        <ele>135</ele>
        <time>2026-08-11T13:03:42.039Z</time>
      </trkpt>
      <trkpt lat="49.33721" lon="1.3634">
        <ele>135</ele>
        <time>2026-08-11T13:03:46.280Z</time>
      </trkpt>
      <trkpt lat="49.33716" lon="1.3634">
        <ele>135</ele>
        <time>2026-08-11T13:03:50.342Z</time>
      </trkpt>
      <trkpt lat="49.33711" lon="1.3634">
        <ele>135</ele>
        <time>2026-08-11T13:03:54.543Z</time>
      </trkpt>
      <trkpt lat="49.33706" lon="1.36343">
        <ele>134</ele>
        <time>2026-08-11T13:03:58.575Z</time>
      </trkpt>
      <trkpt lat="49.337" lon="1.36346">
        <ele>134</ele>
        <time>2026-08-11T13:04:02.757Z</time>
      </trkpt>
      <trkpt lat="49.33695" lon="1.36349">
        <ele>136</ele>
        <time>2026-08-11T13:04:06.799Z</time>
      </trkpt>
      <trkpt lat="49.3369" lon="1.3635">
        <ele>136</ele>
        <time>2026-08-11T13:04:11Z</time>
      </trkpt>
      <trkpt lat="49.33684" lon="1.36351">
        <ele>136</ele>
        <time>2026-08-11T13:04:15.062Z</time>
      </trkpt>
      <trkpt lat="49.33678" lon="1.36351">
        <ele>136</ele>
        <time>2026-08-11T13:04:19.243Z</time>
      </trkpt>
      <trkpt lat="49.33672" lon="1.36355">
        <ele>136</ele>
        <time>2026-08-11T13:04:23.802Z</time>
      </trkpt>
      <trkpt lat="49.33667" lon="1.36359">
        <ele>136</ele>
        <time>2026-08-11T13:04:27.824Z</time>
      </trkpt>
      <trkpt lat="49.33661" lon="1.36362">
        <ele>136</ele>
        <time>2026-08-11T13:04:31.896Z</time>
      </trkpt>
      <trkpt lat="49.33656" lon="1.36364">
        <ele>136</ele>
        <time>2026-08-11T13:04:35.918Z</time>
      </trkpt>
      <trkpt lat="49.33651" lon="1.36365">
        <ele>135</ele>
        <time>2026-08-11T13:04:40.139Z</time>
      </trkpt>
      <trkpt lat="49.33646" lon="1.36366">
        <ele>135</ele>
        <time>2026-08-11T13:04:44.202Z</time>
      </trkpt>
      <trkpt lat="49.33642" lon="1.36368">
        <ele>135</ele>
        <time>2026-08-11T13:04:48.343Z</time>
      </trkpt>
      <trkpt lat="49.33636" lon="1.36369">
        <ele>135</ele>
        <time>2026-08-11T13:04:53.041Z</time>
      </trkpt>
      <trkpt lat="49.33631" lon="1.36371">
        <ele>135</ele>
        <time>2026-08-11T13:04:57.023Z</time>
      </trkpt>
      <trkpt lat="49.33625" lon="1.36375">
        <ele>137</ele>
        <time>2026-08-11T13:05:01.661Z</time>
      </trkpt>
      <trkpt lat="49.33619" lon="1.36379">
        <ele>136</ele>
        <time>2026-08-11T13:05:05.803Z</time>
      </trkpt>
      <trkpt lat="49.33614" lon="1.36378">
        <ele>136</ele>
        <time>2026-08-11T13:05:09.875Z</time>
      </trkpt>
      <trkpt lat="49.33609" lon="1.3638">
        <ele>136</ele>
        <time>2026-08-11T13:05:14.016Z</time>
      </trkpt>
      <trkpt lat="49.33605" lon="1.36384">
        <ele>136</ele>
        <time>2026-08-11T13:05:18.218Z</time>
      </trkpt>
      <trkpt lat="49.33602" lon="1.36388">
        <ele>136</ele>
        <time>2026-08-11T13:05:22.349Z</time>
      </trkpt>
      <trkpt lat="49.33597" lon="1.36391">
        <ele>132</ele>
        <time>2026-08-11T13:05:26.560Z</time>
      </trkpt>
      <trkpt lat="49.33593" lon="1.36391">
        <ele>132</ele>
        <time>2026-08-11T13:05:30.622Z</time>
      </trkpt>
      <trkpt lat="49.3359" lon="1.36392">
        <ele>132</ele>
        <time>2026-08-11T13:05:34.843Z</time>
      </trkpt>
      <trkpt lat="49.33586" lon="1.36395">
        <ele>132</ele>
        <time>2026-08-11T13:05:39.014Z</time>
      </trkpt>
      <trkpt lat="49.33582" lon="1.36396">
        <ele>132</ele>
        <time>2026-08-11T13:05:43.196Z</time>
      </trkpt>
      <trkpt lat="49.33577" lon="1.36398">
        <ele>132</ele>
        <time>2026-08-11T13:05:47.317Z</time>
      </trkpt>
      <trkpt lat="49.33573" lon="1.36401">
        <ele>132</ele>
        <time>2026-08-11T13:05:51.360Z</time>
      </trkpt>
      <trkpt lat="49.33569" lon="1.36399">
        <ele>129</ele>
        <time>2026-08-11T13:05:55.501Z</time>
      </trkpt>
      <trkpt lat="49.33563" lon="1.36399">
        <ele>129</ele>
        <time>2026-08-11T13:05:59.662Z</time>
      </trkpt>
      <trkpt lat="49.33562" lon="1.36403">
        <ele>131</ele>
        <time>2026-08-11T13:06:04.359Z</time>
      </trkpt>
      <trkpt lat="49.33561" lon="1.36408">
        <ele>131</ele>
        <time>2026-08-11T13:06:08.839Z</time>
      </trkpt>
      <trkpt lat="49.33554" lon="1.3641">
        <ele>131</ele>
        <time>2026-08-11T13:06:12.921Z</time>
      </trkpt>
      <trkpt lat="49.33549" lon="1.36412">
        <ele>131</ele>
        <time>2026-08-11T13:06:16.963Z</time>
      </trkpt>
      <trkpt lat="49.33545" lon="1.36413">
        <ele>131</ele>
        <time>2026-08-11T13:06:20.976Z</time>
      </trkpt>
      <trkpt lat="49.33542" lon="1.3642">
        <ele>129</ele>
        <time>2026-08-11T13:06:25.157Z</time>
      </trkpt>
      <trkpt lat="49.33539" lon="1.36428">
        <ele>129</ele>
        <time>2026-08-11T13:06:29.299Z</time>
      </trkpt>
      <trkpt lat="49.33535" lon="1.36431">
        <ele>131</ele>
        <time>2026-08-11T13:06:33.361Z</time>
      </trkpt>
      <trkpt lat="49.33531" lon="1.36435">
        <ele>131</ele>
        <time>2026-08-11T13:06:37.562Z</time>
      </trkpt>
      <trkpt lat="49.33528" lon="1.3644">
        <ele>131</ele>
        <time>2026-08-11T13:06:41.822Z</time>
      </trkpt>
      <trkpt lat="49.33524" lon="1.36446">
        <ele>131</ele>
        <time>2026-08-11T13:06:46.341Z</time>
      </trkpt>
      <trkpt lat="49.33523" lon="1.36452">
        <ele>131</ele>
        <time>2026-08-11T13:06:51.238Z</time>
      </trkpt>
      <trkpt lat="49.33516" lon="1.36455">
        <ele>131</ele>
        <time>2026-08-11T13:06:55.368Z</time>
      </trkpt>
      <trkpt lat="49.3351" lon="1.36457">
        <ele>128</ele>
        <time>2026-08-11T13:06:59.521Z</time>
      </trkpt>
      <trkpt lat="49.33505" lon="1.3646">
        <ele>130</ele>
        <time>2026-08-11T13:07:03.583Z</time>
      </trkpt>
      <trkpt lat="49.33499" lon="1.36466">
        <ele>130</ele>
        <time>2026-08-11T13:07:08.261Z</time>
      </trkpt>
      <trkpt lat="49.33495" lon="1.3647">
        <ele>130</ele>
        <time>2026-08-11T13:07:12.323Z</time>
      </trkpt>
      <trkpt lat="49.3349" lon="1.36473">
        <ele>130</ele>
        <time>2026-08-11T13:07:16.366Z</time>
      </trkpt>
      <trkpt lat="49.33485" lon="1.36475">
        <ele>125</ele>
        <time>2026-08-11T13:07:20.496Z</time>
      </trkpt>
      <trkpt lat="49.33482" lon="1.36479">
        <ele>125</ele>
        <time>2026-08-11T13:07:24.638Z</time>
      </trkpt>
      <trkpt lat="49.33478" lon="1.36484">
        <ele>125</ele>
        <time>2026-08-11T13:07:28.720Z</time>
      </trkpt>
      <trkpt lat="49.33474" lon="1.36488">
        <ele>127</ele>
        <time>2026-08-11T13:07:32.901Z</time>
      </trkpt>
      <trkpt lat="49.3347" lon="1.36493">
        <ele>127</ele>
        <time>2026-08-11T13:07:37.003Z</time>
      </trkpt>
      <trkpt lat="49.33465" lon="1.36498">
        <ele>127</ele>
        <time>2026-08-11T13:07:41.055Z</time>
      </trkpt>
      <trkpt lat="49.3346" lon="1.36502">
        <ele>127</ele>
        <time>2026-08-11T13:07:45.157Z</time>
      </trkpt>
      <trkpt lat="49.33454" lon="1.36508">
        <ele>121</ele>
        <time>2026-08-11T13:07:49.238Z</time>
      </trkpt>
      <trkpt lat="49.3345" lon="1.36513">
        <ele>121</ele>
        <time>2026-08-11T13:07:53.320Z</time>
      </trkpt>
      <trkpt lat="49.33447" lon="1.36515">
        <ele>122</ele>
        <time>2026-08-11T13:07:57.347Z</time>
      </trkpt>
      <trkpt lat="49.33444" lon="1.3652">
        <ele>122</ele>
        <time>2026-08-11T13:08:01.350Z</time>
      </trkpt>
      <trkpt lat="49.3344" lon="1.36526">
        <ele>122</ele>
        <time>2026-08-11T13:08:05.636Z</time>
      </trkpt>
      <trkpt lat="49.33436" lon="1.36532">
        <ele>122</ele>
        <time>2026-08-11T13:08:09.797Z</time>
      </trkpt>
      <trkpt lat="49.33432" lon="1.36537">
        <ele>122</ele>
        <time>2026-08-11T13:08:13.899Z</time>
      </trkpt>
      <trkpt lat="49.33427" lon="1.36542">
        <ele>118</ele>
        <time>2026-08-11T13:08:17.981Z</time>
      </trkpt>
      <trkpt lat="49.33423" lon="1.36548">
        <ele>118</ele>
        <time>2026-08-11T13:08:22.082Z</time>
      </trkpt>
      <trkpt lat="49.33419" lon="1.36553">
        <ele>118</ele>
        <time>2026-08-11T13:08:26.135Z</time>
      </trkpt>
      <trkpt lat="49.33414" lon="1.36558">
        <ele>118</ele>
        <time>2026-08-11T13:08:30.359Z</time>
      </trkpt>
      <trkpt lat="49.33409" lon="1.36562">
        <ele>118</ele>
        <time>2026-08-11T13:08:34.437Z</time>
      </trkpt>
      <trkpt lat="49.33405" lon="1.36564">
        <ele>118</ele>
        <time>2026-08-11T13:08:38.678Z</time>
      </trkpt>
      <trkpt lat="49.33403" lon="1.36568">
        <ele>113</ele>
        <time>2026-08-11T13:08:42.800Z</time>
      </trkpt>
      <trkpt lat="49.33401" lon="1.36574">
        <ele>115</ele>
        <time>2026-08-11T13:08:46.902Z</time>
      </trkpt>
      <trkpt lat="49.33397" lon="1.36583">
        <ele>115</ele>
        <time>2026-08-11T13:08:50.924Z</time>
      </trkpt>
      <trkpt lat="49.33393" lon="1.36593">
        <ele>115</ele>
        <time>2026-08-11T13:08:55.355Z</time>
      </trkpt>
      <trkpt lat="49.3339" lon="1.36599">
        <ele>118</ele>
        <time>2026-08-11T13:08:59.495Z</time>
      </trkpt>
      <trkpt lat="49.33387" lon="1.36603">
        <ele>118</ele>
        <time>2026-08-11T13:09:03.636Z</time>
      </trkpt>
      <trkpt lat="49.33385" lon="1.36608">
        <ele>118</ele>
        <time>2026-08-11T13:09:07.778Z</time>
      </trkpt>
      <trkpt lat="49.33384" lon="1.36614">
        <ele>118</ele>
        <time>2026-08-11T13:09:11.879Z</time>
      </trkpt>
      <trkpt lat="49.33381" lon="1.36621">
        <ele>118</ele>
        <time>2026-08-11T13:09:16.001Z</time>
      </trkpt>
      <trkpt lat="49.33378" lon="1.3663">
        <ele>121</ele>
        <time>2026-08-11T13:09:20.639Z</time>
      </trkpt>
      <trkpt lat="49.33374" lon="1.36635">
        <ele>119</ele>
        <time>2026-08-11T13:09:25.198Z</time>
      </trkpt>
      <trkpt lat="49.3337" lon="1.36638">
        <ele>119</ele>
        <time>2026-08-11T13:09:29.240Z</time>
      </trkpt>
      <trkpt lat="49.33365" lon="1.3664">
        <ele>119</ele>
        <time>2026-08-11T13:09:33.302Z</time>
      </trkpt>
      <trkpt lat="49.3336" lon="1.36644">
        <ele>119</ele>
        <time>2026-08-11T13:09:37.900Z</time>
      </trkpt>
      <trkpt lat="49.33356" lon="1.36645">
        <ele>119</ele>
        <time>2026-08-11T13:09:41.942Z</time>
      </trkpt>
      <trkpt lat="49.33351" lon="1.36643">
        <ele>119</ele>
        <time>2026-08-11T13:09:46.104Z</time>
      </trkpt>
      <trkpt lat="49.33348" lon="1.36644">
        <ele>119</ele>
        <time>2026-08-11T13:09:50.215Z</time>
      </trkpt>
      <trkpt lat="49.33343" lon="1.36646">
        <ele>117</ele>
        <time>2026-08-11T13:09:54.317Z</time>
      </trkpt>
      <trkpt lat="49.33339" lon="1.36647">
        <ele>117</ele>
        <time>2026-08-11T13:09:58.356Z</time>
      </trkpt>
      <trkpt lat="49.33334" lon="1.36646">
        <ele>117</ele>
        <time>2026-08-11T13:10:02.357Z</time>
      </trkpt>
      <trkpt lat="49.33328" lon="1.36645">
        <ele>117</ele>
        <time>2026-08-11T13:10:06.543Z</time>
      </trkpt>
      <trkpt lat="49.33323" lon="1.36645">
        <ele>117</ele>
        <time>2026-08-11T13:10:11.022Z</time>
      </trkpt>
      <trkpt lat="49.33319" lon="1.36646">
        <ele>115</ele>
        <time>2026-08-11T13:10:15.104Z</time>
      </trkpt>
      <trkpt lat="49.33314" lon="1.36646">
        <ele>115</ele>
        <time>2026-08-11T13:10:19.136Z</time>
      </trkpt>
      <trkpt lat="49.33309" lon="1.36645">
        <ele>115</ele>
        <time>2026-08-11T13:10:23.198Z</time>
      </trkpt>
      <trkpt lat="49.33302" lon="1.36641">
        <ele>115</ele>
        <time>2026-08-11T13:10:27.280Z</time>
      </trkpt>
      <trkpt lat="49.33298" lon="1.36638">
        <ele>115</ele>
        <time>2026-08-11T13:10:31.353Z</time>
      </trkpt>
      <trkpt lat="49.33292" lon="1.36638">
        <ele>115</ele>
        <time>2026-08-11T13:10:35.901Z</time>
      </trkpt>
      <trkpt lat="49.33289" lon="1.36642">
        <ele>113</ele>
        <time>2026-08-11T13:10:39.923Z</time>
      </trkpt>
      <trkpt lat="49.33284" lon="1.36648">
        <ele>113</ele>
        <time>2026-08-11T13:10:44.346Z</time>
      </trkpt>
      <trkpt lat="49.33282" lon="1.36658">
        <ele>113</ele>
        <time>2026-08-11T13:10:48.355Z</time>
      </trkpt>
      <trkpt lat="49.3328" lon="1.36666">
        <ele>113</ele>
        <time>2026-08-11T13:10:52.437Z</time>
      </trkpt>
      <trkpt lat="49.33276" lon="1.3667">
        <ele>113</ele>
        <time>2026-08-11T13:10:56.996Z</time>
      </trkpt>
      <trkpt lat="49.33271" lon="1.36673">
        <ele>113</ele>
        <time>2026-08-11T13:11:01.349Z</time>
      </trkpt>
      <trkpt lat="49.33267" lon="1.36678">
        <ele>113</ele>
        <time>2026-08-11T13:11:05.984Z</time>
      </trkpt>
      <trkpt lat="49.33262" lon="1.36682">
        <ele>111</ele>
        <time>2026-08-11T13:11:10.354Z</time>
      </trkpt>
      <trkpt lat="49.33258" lon="1.36686">
        <ele>111</ele>
        <time>2026-08-11T13:11:14.362Z</time>
      </trkpt>
      <trkpt lat="49.33255" lon="1.36691">
        <ele>111</ele>
        <time>2026-08-11T13:11:18.478Z</time>
      </trkpt>
      <trkpt lat="49.3325" lon="1.36695">
        <ele>111</ele>
        <time>2026-08-11T13:11:22.957Z</time>
      </trkpt>
      <trkpt lat="49.33243" lon="1.36691">
        <ele>111</ele>
        <time>2026-08-11T13:11:27.353Z</time>
      </trkpt>
      <trkpt lat="49.33243" lon="1.36691">
        <ele>111</ele>
        <time>2026-08-11T13:11:32.303Z</time>
      </trkpt>
      <trkpt lat="49.33239" lon="1.3669">
        <ele>111</ele>
        <time>2026-08-11T13:11:36.504Z</time>
      </trkpt>
      <trkpt lat="49.33233" lon="1.36688">
        <ele>113</ele>
        <time>2026-08-11T13:11:41.023Z</time>
      </trkpt>
      <trkpt lat="49.33229" lon="1.36684">
        <ele>113</ele>
        <time>2026-08-11T13:11:45.055Z</time>
      </trkpt>
      <trkpt lat="49.33227" lon="1.36678">
        <ele>112</ele>
        <time>2026-08-11T13:11:49.137Z</time>
      </trkpt>
      <trkpt lat="49.33225" lon="1.36671">
        <ele>112</ele>
        <time>2026-08-11T13:11:53.219Z</time>
      </trkpt>
      <trkpt lat="49.33226" lon="1.36662">
        <ele>112</ele>
        <time>2026-08-11T13:11:57.758Z</time>
      </trkpt>
      <trkpt lat="49.33227" lon="1.36656">
        <ele>112</ele>
        <time>2026-08-11T13:12:01.820Z</time>
      </trkpt>
      <trkpt lat="49.33226" lon="1.36649">
        <ele>112</ele>
        <time>2026-08-11T13:12:05.941Z</time>
      </trkpt>
      <trkpt lat="49.33227" lon="1.36641">
        <ele>112</ele>
        <time>2026-08-11T13:12:10.357Z</time>
      </trkpt>
      <trkpt lat="49.33227" lon="1.36633">
        <ele>112</ele>
        <time>2026-08-11T13:12:14.463Z</time>
      </trkpt>
      <trkpt lat="49.33226" lon="1.36626">
        <ele>112</ele>
        <time>2026-08-11T13:12:19.101Z</time>
      </trkpt>
      <trkpt lat="49.33227" lon="1.36621">
        <ele>111</ele>
        <time>2026-08-11T13:12:23.679Z</time>
      </trkpt>
      <trkpt lat="49.33225" lon="1.36614">
        <ele>111</ele>
        <time>2026-08-11T13:12:27.821Z</time>
      </trkpt>
      <trkpt lat="49.33221" lon="1.36609">
        <ele>111</ele>
        <time>2026-08-11T13:12:32.022Z</time>
      </trkpt>
      <trkpt lat="49.33215" lon="1.36605">
        <ele>111</ele>
        <time>2026-08-11T13:12:36.243Z</time>
      </trkpt>
      <trkpt lat="49.33211" lon="1.36602">
        <ele>111</ele>
        <time>2026-08-11T13:12:40.350Z</time>
      </trkpt>
      <trkpt lat="49.33206" lon="1.366">
        <ele>112</ele>
        <time>2026-08-11T13:12:45.002Z</time>
      </trkpt>
      <trkpt lat="49.33202" lon="1.36599">
        <ele>112</ele>
        <time>2026-08-11T13:12:49.144Z</time>
      </trkpt>
      <trkpt lat="49.33198" lon="1.36598">
        <ele>112</ele>
        <time>2026-08-11T13:12:53.275Z</time>
      </trkpt>
      <trkpt lat="49.33193" lon="1.36597">
        <ele>109</ele>
        <time>2026-08-11T13:12:57.298Z</time>
      </trkpt>
      <trkpt lat="49.33187" lon="1.36595">
        <ele>109</ele>
        <time>2026-08-11T13:13:01.936Z</time>
      </trkpt>
      <trkpt lat="49.33183" lon="1.36592">
        <ele>109</ele>
        <time>2026-08-11T13:13:06.077Z</time>
      </trkpt>
      <trkpt lat="49.33178" lon="1.36588">
        <ele>110</ele>
        <time>2026-08-11T13:13:10.735Z</time>
      </trkpt>
      <trkpt lat="49.33171" lon="1.36585">
        <ele>110</ele>
        <time>2026-08-11T13:13:15.353Z</time>
      </trkpt>
      <trkpt lat="49.33166" lon="1.36581">
        <ele>110</ele>
        <time>2026-08-11T13:13:19.350Z</time>
      </trkpt>
      <trkpt lat="49.33159" lon="1.36576">
        <ele>110</ele>
        <time>2026-08-11T13:13:23.874Z</time>
      </trkpt>
      <trkpt lat="49.33153" lon="1.36572">
        <ele>110</ele>
        <time>2026-08-11T13:13:27.917Z</time>
      </trkpt>
      <trkpt lat="49.33149" lon="1.3657">
        <ele>111</ele>
        <time>2026-08-11T13:13:32.351Z</time>
      </trkpt>
      <trkpt lat="49.33144" lon="1.36569">
        <ele>107</ele>
        <time>2026-08-11T13:13:36.597Z</time>
      </trkpt>
      <trkpt lat="49.33139" lon="1.36567">
        <ele>107</ele>
        <time>2026-08-11T13:13:41.215Z</time>
      </trkpt>
      <trkpt lat="49.33135" lon="1.36566">
        <ele>107</ele>
        <time>2026-08-11T13:13:45.317Z</time>
      </trkpt>
      <trkpt lat="49.3313" lon="1.36566">
        <ele>107</ele>
        <time>2026-08-11T13:13:49.352Z</time>
      </trkpt>
      <trkpt lat="49.33125" lon="1.36565">
        <ele>107</ele>
        <time>2026-08-11T13:13:53.354Z</time>
      </trkpt>
      <trkpt lat="49.33121" lon="1.36564">
        <ele>108</ele>
        <time>2026-08-11T13:13:57.542Z</time>
      </trkpt>
      <trkpt lat="49.33115" lon="1.36562">
        <ele>108</ele>
        <time>2026-08-11T13:14:02.061Z</time>
      </trkpt>
      <trkpt lat="49.33109" lon="1.36559">
        <ele>108</ele>
        <time>2026-08-11T13:14:06.620Z</time>
      </trkpt>
      <trkpt lat="49.33104" lon="1.36554">
        <ele>108</ele>
        <time>2026-08-11T13:14:10.622Z</time>
      </trkpt>
      <trkpt lat="49.33098" lon="1.36549">
        <ele>108</ele>
        <time>2026-08-11T13:14:15.181Z</time>
      </trkpt>
      <trkpt lat="49.33094" lon="1.36545">
        <ele>112</ele>
        <time>2026-08-11T13:14:19.183Z</time>
      </trkpt>
      <trkpt lat="49.3309" lon="1.36542">
        <ele>112</ele>
        <time>2026-08-11T13:14:23.176Z</time>
      </trkpt>
      <trkpt lat="49.33086" lon="1.36535">
        <ele>107</ele>
        <time>2026-08-11T13:14:27.714Z</time>
      </trkpt>
      <trkpt lat="49.33081" lon="1.3653">
        <ele>107</ele>
        <time>2026-08-11T13:14:32.283Z</time>
      </trkpt>
      <trkpt lat="49.33076" lon="1.36523">
        <ele>107</ele>
        <time>2026-08-11T13:14:36.802Z</time>
      </trkpt>
      <trkpt lat="49.33072" lon="1.36518">
        <ele>107</ele>
        <time>2026-08-11T13:14:41.354Z</time>
      </trkpt>
      <trkpt lat="49.3307" lon="1.36513">
        <ele>104</ele>
        <time>2026-08-11T13:14:46.345Z</time>
      </trkpt>
      <trkpt lat="49.33066" lon="1.36511">
        <ele>103</ele>
        <time>2026-08-11T13:14:50.478Z</time>
      </trkpt>
      <trkpt lat="49.33062" lon="1.36508">
        <ele>103</ele>
        <time>2026-08-11T13:14:54.857Z</time>
      </trkpt>
      <trkpt lat="49.33058" lon="1.36505">
        <ele>103</ele>
        <time>2026-08-11T13:14:58.860Z</time>
      </trkpt>
      <trkpt lat="49.33055" lon="1.36501">
        <ele>103</ele>
        <time>2026-08-11T13:15:02.981Z</time>
      </trkpt>
      <trkpt lat="49.33052" lon="1.36497">
        <ele>103</ele>
        <time>2026-08-11T13:15:07.103Z</time>
      </trkpt>
      <trkpt lat="49.33048" lon="1.36491">
        <ele>103</ele>
        <time>2026-08-11T13:15:11.215Z</time>
      </trkpt>
      <trkpt lat="49.33045" lon="1.36485">
        <ele>101</ele>
        <time>2026-08-11T13:15:15.355Z</time>
      </trkpt>
      <trkpt lat="49.33043" lon="1.36482">
        <ele>101</ele>
        <time>2026-08-11T13:15:19.736Z</time>
      </trkpt>
      <trkpt lat="49.33052" lon="1.36481">
        <ele>101</ele>
        <time>2026-08-11T13:19:55.345Z</time>
      </trkpt>
      <trkpt lat="49.33055" lon="1.36483">
        <ele>101</ele>
        <time>2026-08-11T13:20:00.346Z</time>
      </trkpt>
      <trkpt lat="49.33057" lon="1.3648">
        <ele>101</ele>
        <time>2026-08-11T13:20:05.351Z</time>
      </trkpt>
      <trkpt lat="49.33058" lon="1.36479">
        <ele>101</ele>
        <time>2026-08-11T13:20:27.347Z</time>
      </trkpt>
      <trkpt lat="49.33063" lon="1.36479">
        <ele>101</ele>
        <time>2026-08-11T13:20:31.348Z</time>
      </trkpt>
      <trkpt lat="49.33068" lon="1.36482">
        <ele>101</ele>
        <time>2026-08-11T13:20:36.136Z</time>
      </trkpt>
      <trkpt lat="49.33074" lon="1.36483">
        <ele>102</ele>
        <time>2026-08-11T13:20:40.344Z</time>
      </trkpt>
      <trkpt lat="49.33079" lon="1.36485">
        <ele>102</ele>
        <time>2026-08-11T13:20:44.598Z</time>
      </trkpt>
      <trkpt lat="49.33083" lon="1.36487">
        <ele>104</ele>
        <time>2026-08-11T13:20:48.779Z</time>
      </trkpt>
      <trkpt lat="49.33087" lon="1.36489">
        <ele>104</ele>
        <time>2026-08-11T13:20:52.941Z</time>
      </trkpt>
      <trkpt lat="49.3309" lon="1.36491">
        <ele>104</ele>
        <time>2026-08-11T13:20:56.963Z</time>
      </trkpt>
      <trkpt lat="49.33093" lon="1.36495">
        <ele>104</ele>
        <time>2026-08-11T13:21:01.224Z</time>
      </trkpt>
      <trkpt lat="49.33098" lon="1.365">
        <ele>103</ele>
        <time>2026-08-11T13:21:05.315Z</time>
      </trkpt>
      <trkpt lat="49.33103" lon="1.36502">
        <ele>103</ele>
        <time>2026-08-11T13:21:09.356Z</time>
      </trkpt>
      <trkpt lat="49.33108" lon="1.36504">
        <ele>103</ele>
        <time>2026-08-11T13:21:13.460Z</time>
      </trkpt>
      <trkpt lat="49.33113" lon="1.36508">
        <ele>103</ele>
        <time>2026-08-11T13:21:17.978Z</time>
      </trkpt>
      <trkpt lat="49.33119" lon="1.36511">
        <ele>103</ele>
        <time>2026-08-11T13:21:22.100Z</time>
      </trkpt>
      <trkpt lat="49.33125" lon="1.3651">
        <ele>102</ele>
        <time>2026-08-11T13:21:26.162Z</time>
      </trkpt>
      <trkpt lat="49.33131" lon="1.3651">
        <ele>102</ele>
        <time>2026-08-11T13:21:30.344Z</time>
      </trkpt>
      <trkpt lat="49.33136" lon="1.36512">
        <ele>102</ele>
        <time>2026-08-11T13:21:34.353Z</time>
      </trkpt>
      <trkpt lat="49.3314" lon="1.36513">
        <ele>102</ele>
        <time>2026-08-11T13:21:38.352Z</time>
      </trkpt>
      <trkpt lat="49.33145" lon="1.36515">
        <ele>104</ele>
        <time>2026-08-11T13:21:43.116Z</time>
      </trkpt>
      <trkpt lat="49.33151" lon="1.36517">
        <ele>104</ele>
        <time>2026-08-11T13:21:47.784Z</time>
      </trkpt>
      <trkpt lat="49.33155" lon="1.36519">
        <ele>103</ele>
        <time>2026-08-11T13:21:51.895Z</time>
      </trkpt>
      <trkpt lat="49.3316" lon="1.36521">
        <ele>103</ele>
        <time>2026-08-11T13:21:56.358Z</time>
      </trkpt>
      <trkpt lat="49.33165" lon="1.36524">
        <ele>103</ele>
        <time>2026-08-11T13:22:01.042Z</time>
      </trkpt>
      <trkpt lat="49.33168" lon="1.36524">
        <ele>103</ele>
        <time>2026-08-11T13:22:05.243Z</time>
      </trkpt>
      <trkpt lat="49.33173" lon="1.36527">
        <ele>103</ele>
        <time>2026-08-11T13:22:10.060Z</time>
      </trkpt>
      <trkpt lat="49.33178" lon="1.36527">
        <ele>103</ele>
        <time>2026-08-11T13:22:14.063Z</time>
      </trkpt>
      <trkpt lat="49.33183" lon="1.36522">
        <ele>103</ele>
        <time>2026-08-11T13:22:18.602Z</time>
      </trkpt>
      <trkpt lat="49.33188" lon="1.36516">
        <ele>103</ele>
        <time>2026-08-11T13:22:23.220Z</time>
      </trkpt>
      <trkpt lat="49.33191" lon="1.3651">
        <ele>101</ele>
        <time>2026-08-11T13:22:27.858Z</time>
      </trkpt>
      <trkpt lat="49.33194" lon="1.36505">
        <ele>101</ele>
        <time>2026-08-11T13:22:32.354Z</time>
      </trkpt>
      <trkpt lat="49.33197" lon="1.36498">
        <ele>101</ele>
        <time>2026-08-11T13:22:36.678Z</time>
      </trkpt>
      <trkpt lat="49.33201" lon="1.36489">
        <ele>101</ele>
        <time>2026-08-11T13:22:41.196Z</time>
      </trkpt>
      <trkpt lat="49.33205" lon="1.36481">
        <ele>100</ele>
        <time>2026-08-11T13:22:45.835Z</time>
      </trkpt>
      <trkpt lat="49.33205" lon="1.36474">
        <ele>100</ele>
        <time>2026-08-11T13:22:50.344Z</time>
      </trkpt>
      <trkpt lat="49.33211" lon="1.36469">
        <ele>101</ele>
        <time>2026-08-11T13:22:54.350Z</time>
      </trkpt>
      <trkpt lat="49.33214" lon="1.36463">
        <ele>101</ele>
        <time>2026-08-11T13:22:58.458Z</time>
      </trkpt>
      <trkpt lat="49.33218" lon="1.36456">
        <ele>99</ele>
        <time>2026-08-11T13:23:03.076Z</time>
      </trkpt>
      <trkpt lat="49.33221" lon="1.3645">
        <ele>99</ele>
        <time>2026-08-11T13:23:07.258Z</time>
      </trkpt>
      <trkpt lat="49.33223" lon="1.36444">
        <ele>99</ele>
        <time>2026-08-11T13:23:11.320Z</time>
      </trkpt>
      <trkpt lat="49.33229" lon="1.36439">
        <ele>99</ele>
        <time>2026-08-11T13:23:15.343Z</time>
      </trkpt>
      <trkpt lat="49.33234" lon="1.36435">
        <ele>99</ele>
        <time>2026-08-11T13:23:19.349Z</time>
      </trkpt>
      <trkpt lat="49.33234" lon="1.36429">
        <ele>98</ele>
        <time>2026-08-11T13:23:24.343Z</time>
      </trkpt>
      <trkpt lat="49.33231" lon="1.36425">
        <ele>98</ele>
        <time>2026-08-11T13:23:28.348Z</time>
      </trkpt>
      <trkpt lat="49.33224" lon="1.36419">
        <ele>98</ele>
        <time>2026-08-11T13:23:32.564Z</time>
      </trkpt>
      <trkpt lat="49.33219" lon="1.36414">
        <ele>98</ele>
        <time>2026-08-11T13:23:36.536Z</time>
      </trkpt>
      <trkpt lat="49.33214" lon="1.36409">
        <ele>98</ele>
        <time>2026-08-11T13:23:40.857Z</time>
      </trkpt>
      <trkpt lat="49.3321" lon="1.36403">
        <ele>98</ele>
        <time>2026-08-11T13:23:45.038Z</time>
      </trkpt>
      <trkpt lat="49.33206" lon="1.36398">
        <ele>101</ele>
        <time>2026-08-11T13:23:49.080Z</time>
      </trkpt>
      <trkpt lat="49.33203" lon="1.36393">
        <ele>101</ele>
        <time>2026-08-11T13:23:53.261Z</time>
      </trkpt>
      <trkpt lat="49.33199" lon="1.36388">
        <ele>101</ele>
        <time>2026-08-11T13:23:57.353Z</time>
      </trkpt>
      <trkpt lat="49.33195" lon="1.36382">
        <ele>101</ele>
        <time>2026-08-11T13:24:02.200Z</time>
      </trkpt>
      <trkpt lat="49.33191" lon="1.36377">
        <ele>101</ele>
        <time>2026-08-11T13:24:06.322Z</time>
      </trkpt>
      <trkpt lat="49.33187" lon="1.3637">
        <ele>102</ele>
        <time>2026-08-11T13:24:10.350Z</time>
      </trkpt>
      <trkpt lat="49.33183" lon="1.36364">
        <ele>102</ele>
        <time>2026-08-11T13:24:15.121Z</time>
      </trkpt>
      <trkpt lat="49.33179" lon="1.3636">
        <ele>107</ele>
        <time>2026-08-11T13:24:19.183Z</time>
      </trkpt>
      <trkpt lat="49.33175" lon="1.36357">
        <ele>107</ele>
        <time>2026-08-11T13:24:23.215Z</time>
      </trkpt>
      <trkpt lat="49.33171" lon="1.36355">
        <ele>107</ele>
        <time>2026-08-11T13:24:27.714Z</time>
      </trkpt>
      <trkpt lat="49.33168" lon="1.36353">
        <ele>107</ele>
        <time>2026-08-11T13:24:32.346Z</time>
      </trkpt>
      <trkpt lat="49.33163" lon="1.36349">
        <ele>107</ele>
        <time>2026-08-11T13:24:36.861Z</time>
      </trkpt>
      <trkpt lat="49.33159" lon="1.36346">
        <ele>107</ele>
        <time>2026-08-11T13:24:40.983Z</time>
      </trkpt>
      <trkpt lat="49.33157" lon="1.36341">
        <ele>107</ele>
        <time>2026-08-11T13:24:45.357Z</time>
      </trkpt>
      <trkpt lat="49.33155" lon="1.36336">
        <ele>107</ele>
        <time>2026-08-11T13:24:50.060Z</time>
      </trkpt>
      <trkpt lat="49.3315" lon="1.36333">
        <ele>109</ele>
        <time>2026-08-11T13:24:54.344Z</time>
      </trkpt>
      <trkpt lat="49.33144" lon="1.36336">
        <ele>109</ele>
        <time>2026-08-11T13:24:58.721Z</time>
      </trkpt>
      <trkpt lat="49.33139" lon="1.36331">
        <ele>109</ele>
        <time>2026-08-11T13:25:03.299Z</time>
      </trkpt>
      <trkpt lat="49.33135" lon="1.36328">
        <ele>109</ele>
        <time>2026-08-11T13:25:07.679Z</time>
      </trkpt>
      <trkpt lat="49.3313" lon="1.36324">
        <ele>109</ele>
        <time>2026-08-11T13:25:12.198Z</time>
      </trkpt>
      <trkpt lat="49.33127" lon="1.36319">
        <ele>107</ele>
        <time>2026-08-11T13:25:16.618Z</time>
      </trkpt>
      <trkpt lat="49.33123" lon="1.36313">
        <ele>108</ele>
        <time>2026-08-11T13:25:21.275Z</time>
      </trkpt>
      <trkpt lat="49.33119" lon="1.36308">
        <ele>108</ele>
        <time>2026-08-11T13:25:25.864Z</time>
      </trkpt>
      <trkpt lat="49.33114" lon="1.36304">
        <ele>108</ele>
        <time>2026-08-11T13:25:30.323Z</time>
      </trkpt>
      <trkpt lat="49.3311" lon="1.363">
        <ele>108</ele>
        <time>2026-08-11T13:25:34.922Z</time>
      </trkpt>
      <trkpt lat="49.33105" lon="1.36296">
        <ele>108</ele>
        <time>2026-08-11T13:25:38.924Z</time>
      </trkpt>
      <trkpt lat="49.33102" lon="1.3629">
        <ele>108</ele>
        <time>2026-08-11T13:25:42.956Z</time>
      </trkpt>
      <trkpt lat="49.33102" lon="1.36286">
        <ele>108</ele>
        <time>2026-08-11T13:25:47.343Z</time>
      </trkpt>
      <trkpt lat="49.33102" lon="1.36286">
        <ele>108</ele>
        <time>2026-08-11T13:25:51.597Z</time>
      </trkpt>
      <trkpt lat="49.33099" lon="1.36282">
        <ele>108</ele>
        <time>2026-08-11T13:25:56.175Z</time>
      </trkpt>
      <trkpt lat="49.33097" lon="1.36277">
        <ele>112</ele>
        <time>2026-08-11T13:26:00.674Z</time>
      </trkpt>
      <trkpt lat="49.33095" lon="1.36272">
        <ele>112</ele>
        <time>2026-08-11T13:26:04.716Z</time>
      </trkpt>
      <trkpt lat="49.3309" lon="1.36268">
        <ele>112</ele>
        <time>2026-08-11T13:26:09.351Z</time>
      </trkpt>
      <trkpt lat="49.33087" lon="1.3627">
        <ele>112</ele>
        <time>2026-08-11T13:26:13.734Z</time>
      </trkpt>
      <trkpt lat="49.33082" lon="1.36264">
        <ele>112</ele>
        <time>2026-08-11T13:26:18.223Z</time>
      </trkpt>
      <trkpt lat="49.33078" lon="1.36256">
        <ele>112</ele>
        <time>2026-08-11T13:26:22.782Z</time>
      </trkpt>
      <trkpt lat="49.33076" lon="1.36251">
        <ele>112</ele>
        <time>2026-08-11T13:26:26.844Z</time>
      </trkpt>
      <trkpt lat="49.33075" lon="1.36245">
        <ele>112</ele>
        <time>2026-08-11T13:26:30.916Z</time>
      </trkpt>
      <trkpt lat="49.33073" lon="1.36241">
        <ele>112</ele>
        <time>2026-08-11T13:26:34.899Z</time>
      </trkpt>
      <trkpt lat="49.3307" lon="1.36234">
        <ele>113</ele>
        <time>2026-08-11T13:26:39.715Z</time>
      </trkpt>
      <trkpt lat="49.33068" lon="1.36229">
        <ele>115</ele>
        <time>2026-08-11T13:26:43.758Z</time>
      </trkpt>
      <trkpt lat="49.33066" lon="1.36225">
        <ele>115</ele>
        <time>2026-08-11T13:26:47.780Z</time>
      </trkpt>
      <trkpt lat="49.33063" lon="1.3622">
        <ele>115</ele>
        <time>2026-08-11T13:26:51.961Z</time>
      </trkpt>
      <trkpt lat="49.3306" lon="1.36216">
        <ele>115</ele>
        <time>2026-08-11T13:26:56.102Z</time>
      </trkpt>
      <trkpt lat="49.33058" lon="1.36212">
        <ele>115</ele>
        <time>2026-08-11T13:27:00.346Z</time>
      </trkpt>
      <trkpt lat="49.33055" lon="1.36208">
        <ele>117</ele>
        <time>2026-08-11T13:27:04.842Z</time>
      </trkpt>
      <trkpt lat="49.33053" lon="1.36202">
        <ele>117</ele>
        <time>2026-08-11T13:27:09.043Z</time>
      </trkpt>
      <trkpt lat="49.33052" lon="1.36197">
        <ele>117</ele>
        <time>2026-08-11T13:27:13.352Z</time>
      </trkpt>
      <trkpt lat="49.33051" lon="1.36192">
        <ele>117</ele>
        <time>2026-08-11T13:27:17.359Z</time>
      </trkpt>
      <trkpt lat="49.3305" lon="1.36187">
        <ele>117</ele>
        <time>2026-08-11T13:27:21.835Z</time>
      </trkpt>
      <trkpt lat="49.33051" lon="1.36181">
        <ele>117</ele>
        <time>2026-08-11T13:27:26.175Z</time>
      </trkpt>
      <trkpt lat="49.33052" lon="1.36176">
        <ele>120</ele>
        <time>2026-08-11T13:27:30.277Z</time>
      </trkpt>
      <trkpt lat="49.33052" lon="1.36169">
        <ele>120</ele>
        <time>2026-08-11T13:27:34.346Z</time>
      </trkpt>
      <trkpt lat="49.33051" lon="1.36162">
        <ele>120</ele>
        <time>2026-08-11T13:27:38.699Z</time>
      </trkpt>
      <trkpt lat="49.33048" lon="1.36155">
        <ele>120</ele>
        <time>2026-08-11T13:27:42.999Z</time>
      </trkpt>
      <trkpt lat="49.33046" lon="1.36149">
        <ele>123</ele>
        <time>2026-08-11T13:27:47.349Z</time>
      </trkpt>
      <trkpt lat="49.33043" lon="1.36139">
        <ele>123</ele>
        <time>2026-08-11T13:30:09.351Z</time>
      </trkpt>
      <trkpt lat="49.33043" lon="1.36139">
        <ele>123</ele>
        <time>2026-08-11T13:30:20.347Z</time>
      </trkpt>
      <trkpt lat="49.33043" lon="1.36138">
        <ele>123</ele>
        <time>2026-08-11T13:30:30.349Z</time>
      </trkpt>
      <trkpt lat="49.33045" lon="1.36135">
        <ele>123</ele>
        <time>2026-08-11T13:30:34.351Z</time>
      </trkpt>
      <trkpt lat="49.33049" lon="1.3613">
        <ele>123</ele>
        <time>2026-08-11T13:30:39.343Z</time>
      </trkpt>
      <trkpt lat="49.33052" lon="1.36123">
        <ele>127</ele>
        <time>2026-08-11T13:30:44.352Z</time>
      </trkpt>
      <trkpt lat="49.33055" lon="1.36118">
        <ele>127</ele>
        <time>2026-08-11T13:30:49.350Z</time>
      </trkpt>
      <trkpt lat="49.33056" lon="1.36113">
        <ele>127</ele>
        <time>2026-08-11T13:30:53.354Z</time>
      </trkpt>
      <trkpt lat="49.33058" lon="1.36107">
        <ele>127</ele>
        <time>2026-08-11T13:30:57.347Z</time>
      </trkpt>
      <trkpt lat="49.33063" lon="1.36103">
        <ele>127</ele>
        <time>2026-08-11T13:31:02.354Z</time>
      </trkpt>
      <trkpt lat="49.33066" lon="1.36097">
        <ele>131</ele>
        <time>2026-08-11T13:31:07.350Z</time>
      </trkpt>
      <trkpt lat="49.3307" lon="1.36092">
        <ele>130</ele>
        <time>2026-08-11T13:31:11.601Z</time>
      </trkpt>
      <trkpt lat="49.33072" lon="1.36088">
        <ele>130</ele>
        <time>2026-08-11T13:31:15.743Z</time>
      </trkpt>
      <trkpt lat="49.33074" lon="1.36084">
        <ele>130</ele>
        <time>2026-08-11T13:31:19.795Z</time>
      </trkpt>
      <trkpt lat="49.33078" lon="1.36077">
        <ele>130</ele>
        <time>2026-08-11T13:31:24.346Z</time>
      </trkpt>
      <trkpt lat="49.33082" lon="1.36071">
        <ele>130</ele>
        <time>2026-08-11T13:31:28.347Z</time>
      </trkpt>
      <trkpt lat="49.33087" lon="1.36064">
        <ele>132</ele>
        <time>2026-08-11T13:31:33.024Z</time>
      </trkpt>
      <trkpt lat="49.33091" lon="1.36058">
        <ele>132</ele>
        <time>2026-08-11T13:31:37.344Z</time>
      </trkpt>
      <trkpt lat="49.33094" lon="1.36053">
        <ele>132</ele>
        <time>2026-08-11T13:31:41.344Z</time>
      </trkpt>
      <trkpt lat="49.33096" lon="1.36047">
        <ele>132</ele>
        <time>2026-08-11T13:31:45.855Z</time>
      </trkpt>
      <trkpt lat="49.33098" lon="1.36041">
        <ele>129</ele>
        <time>2026-08-11T13:31:50.352Z</time>
      </trkpt>
      <trkpt lat="49.331" lon="1.36033">
        <ele>129</ele>
        <time>2026-08-11T13:31:54.922Z</time>
      </trkpt>
      <trkpt lat="49.33099" lon="1.36024">
        <ele>129</ele>
        <time>2026-08-11T13:31:59.344Z</time>
      </trkpt>
      <trkpt lat="49.331" lon="1.36017">
        <ele>129</ele>
        <time>2026-08-11T13:32:03.742Z</time>
      </trkpt>
      <trkpt lat="49.33103" lon="1.36008">
        <ele>130</ele>
        <time>2026-08-11T13:32:08.260Z</time>
      </trkpt>
      <trkpt lat="49.33107" lon="1.36004">
        <ele>130</ele>
        <time>2026-08-11T13:32:12.700Z</time>
      </trkpt>
      <trkpt lat="49.33113" lon="1.36">
        <ele>130</ele>
        <time>2026-08-11T13:32:17.119Z</time>
      </trkpt>
      <trkpt lat="49.33117" lon="1.35994">
        <ele>130</ele>
        <time>2026-08-11T13:32:21.349Z</time>
      </trkpt>
      <trkpt lat="49.33121" lon="1.35988">
        <ele>130</ele>
        <time>2026-08-11T13:32:25.760Z</time>
      </trkpt>
      <trkpt lat="49.33123" lon="1.3598">
        <ele>130</ele>
        <time>2026-08-11T13:32:30.344Z</time>
      </trkpt>
      <trkpt lat="49.33121" lon="1.35974">
        <ele>130</ele>
        <time>2026-08-11T13:32:34.346Z</time>
      </trkpt>
      <trkpt lat="49.33115" lon="1.35966">
        <ele>130</ele>
        <time>2026-08-11T13:32:38.879Z</time>
      </trkpt>
      <trkpt lat="49.33108" lon="1.3596">
        <ele>130</ele>
        <time>2026-08-11T13:32:43.342Z</time>
      </trkpt>
      <trkpt lat="49.33102" lon="1.35956">
        <ele>130</ele>
        <time>2026-08-11T13:32:47.797Z</time>
      </trkpt>
      <trkpt lat="49.33098" lon="1.35949">
        <ele>130</ele>
        <time>2026-08-11T13:32:52.217Z</time>
      </trkpt>
      <trkpt lat="49.33093" lon="1.35943">
        <ele>133</ele>
        <time>2026-08-11T13:32:56.696Z</time>
      </trkpt>
      <trkpt lat="49.33088" lon="1.35939">
        <ele>133</ele>
        <time>2026-08-11T13:33:01.056Z</time>
      </trkpt>
      <trkpt lat="49.33082" lon="1.35936">
        <ele>133</ele>
        <time>2026-08-11T13:33:05.684Z</time>
      </trkpt>
      <trkpt lat="49.33078" lon="1.35932">
        <ele>133</ele>
        <time>2026-08-11T13:33:09.974Z</time>
      </trkpt>
      <trkpt lat="49.33073" lon="1.35928">
        <ele>134</ele>
        <time>2026-08-11T13:33:14.563Z</time>
      </trkpt>
      <trkpt lat="49.33068" lon="1.35924">
        <ele>137</ele>
        <time>2026-08-11T13:33:19.042Z</time>
      </trkpt>
      <trkpt lat="49.33064" lon="1.35918">
        <ele>137</ele>
        <time>2026-08-11T13:33:23.739Z</time>
      </trkpt>
      <trkpt lat="49.3306" lon="1.35912">
        <ele>137</ele>
        <time>2026-08-11T13:33:28.179Z</time>
      </trkpt>
      <trkpt lat="49.33056" lon="1.35905">
        <ele>137</ele>
        <time>2026-08-11T13:33:32.658Z</time>
      </trkpt>
      <trkpt lat="49.33052" lon="1.35897">
        <ele>138</ele>
        <time>2026-08-11T13:33:37.176Z</time>
      </trkpt>
      <trkpt lat="49.33047" lon="1.3589">
        <ele>138</ele>
        <time>2026-08-11T13:33:41.636Z</time>
      </trkpt>
      <trkpt lat="49.33043" lon="1.35884">
        <ele>138</ele>
        <time>2026-08-11T13:33:46.115Z</time>
      </trkpt>
      <trkpt lat="49.33039" lon="1.35879">
        <ele>140</ele>
        <time>2026-08-11T13:33:50.137Z</time>
      </trkpt>
      <trkpt lat="49.33034" lon="1.35877">
        <ele>140</ele>
        <time>2026-08-11T13:33:54.353Z</time>
      </trkpt>
      <trkpt lat="49.33029" lon="1.35874">
        <ele>140</ele>
        <time>2026-08-11T13:33:58.358Z</time>
      </trkpt>
      <trkpt lat="49.33025" lon="1.3587">
        <ele>140</ele>
        <time>2026-08-11T13:34:02.939Z</time>
      </trkpt>
      <trkpt lat="49.33022" lon="1.35866">
        <ele>140</ele>
        <time>2026-08-11T13:34:07.010Z</time>
      </trkpt>
      <trkpt lat="49.33018" lon="1.35865">
        <ele>140</ele>
        <time>2026-08-11T13:34:11.142Z</time>
      </trkpt>
      <trkpt lat="49.33015" lon="1.35862">
        <ele>140</ele>
        <time>2026-08-11T13:34:15.482Z</time>
      </trkpt>
      <trkpt lat="49.3301" lon="1.35861">
        <ele>140</ele>
        <time>2026-08-11T13:34:20.001Z</time>
      </trkpt>
      <trkpt lat="49.33006" lon="1.3586">
        <ele>140</ele>
        <time>2026-08-11T13:34:24.352Z</time>
      </trkpt>
      <trkpt lat="49.33001" lon="1.35857">
        <ele>140</ele>
        <time>2026-08-11T13:34:28.959Z</time>
      </trkpt>
      <trkpt lat="49.32996" lon="1.35855">
        <ele>140</ele>
        <time>2026-08-11T13:34:33.279Z</time>
      </trkpt>
      <trkpt lat="49.32992" lon="1.35851">
        <ele>140</ele>
        <time>2026-08-11T13:34:37.699Z</time>
      </trkpt>
      <trkpt lat="49.32988" lon="1.35848">
        <ele>140</ele>
        <time>2026-08-11T13:34:41.959Z</time>
      </trkpt>
      <trkpt lat="49.32984" lon="1.35841">
        <ele>140</ele>
        <time>2026-08-11T13:34:46.342Z</time>
      </trkpt>
      <trkpt lat="49.32981" lon="1.35835">
        <ele>140</ele>
        <time>2026-08-11T13:34:50.818Z</time>
      </trkpt>
      <trkpt lat="49.32976" lon="1.35829">
        <ele>140</ele>
        <time>2026-08-11T13:34:55.297Z</time>
      </trkpt>
      <trkpt lat="49.32972" lon="1.35823">
        <ele>140</ele>
        <time>2026-08-11T13:34:59.697Z</time>
      </trkpt>
      <trkpt lat="49.32968" lon="1.35818">
        <ele>140</ele>
        <time>2026-08-11T13:35:04.136Z</time>
      </trkpt>
      <trkpt lat="49.32964" lon="1.35812">
        <ele>140</ele>
        <time>2026-08-11T13:35:08.556Z</time>
      </trkpt>
      <trkpt lat="49.32959" lon="1.35808">
        <ele>140</ele>
        <time>2026-08-11T13:35:13.144Z</time>
      </trkpt>
      <trkpt lat="49.32956" lon="1.35805">
        <ele>140</ele>
        <time>2026-08-11T13:35:17.341Z</time>
      </trkpt>
      <trkpt lat="49.32952" lon="1.35801">
        <ele>140</ele>
        <time>2026-08-11T13:35:22.003Z</time>
      </trkpt>
      <trkpt lat="49.32948" lon="1.35797">
        <ele>140</ele>
        <time>2026-08-11T13:35:26.601Z</time>
      </trkpt>
      <trkpt lat="49.32944" lon="1.35794">
        <ele>140</ele>
        <time>2026-08-11T13:35:30.961Z</time>
      </trkpt>
      <trkpt lat="49.3294" lon="1.3579">
        <ele>139</ele>
        <time>2026-08-11T13:35:35.343Z</time>
      </trkpt>
      <trkpt lat="49.32935" lon="1.35786">
        <ele>139</ele>
        <time>2026-08-11T13:35:39.880Z</time>
      </trkpt>
      <trkpt lat="49.32931" lon="1.35782">
        <ele>139</ele>
        <time>2026-08-11T13:35:44.299Z</time>
      </trkpt>
      <trkpt lat="49.32927" lon="1.35774">
        <ele>138</ele>
        <time>2026-08-11T13:35:48.897Z</time>
      </trkpt>
      <trkpt lat="49.32925" lon="1.35767">
        <ele>138</ele>
        <time>2026-08-11T13:35:53.337Z</time>
      </trkpt>
      <trkpt lat="49.32922" lon="1.35761">
        <ele>137</ele>
        <time>2026-08-11T13:35:57.915Z</time>
      </trkpt>
      <trkpt lat="49.32922" lon="1.35755">
        <ele>137</ele>
        <time>2026-08-11T13:36:02.176Z</time>
      </trkpt>
      <trkpt lat="49.32926" lon="1.35748">
        <ele>137</ele>
        <time>2026-08-11T13:36:06.546Z</time>
      </trkpt>
      <trkpt lat="49.3293" lon="1.35742">
        <ele>137</ele>
        <time>2026-08-11T13:36:11.094Z</time>
      </trkpt>
      <trkpt lat="49.32933" lon="1.35737">
        <ele>139</ele>
        <time>2026-08-11T13:36:15.345Z</time>
      </trkpt>
      <trkpt lat="49.32937" lon="1.35733">
        <ele>138</ele>
        <time>2026-08-11T13:36:19.844Z</time>
      </trkpt>
      <trkpt lat="49.3294" lon="1.3573">
        <ele>138</ele>
        <time>2026-08-11T13:36:24.075Z</time>
      </trkpt>
      <trkpt lat="49.32943" lon="1.35726">
        <ele>138</ele>
        <time>2026-08-11T13:36:28.216Z</time>
      </trkpt>
      <trkpt lat="49.32948" lon="1.35721">
        <ele>138</ele>
        <time>2026-08-11T13:36:32.715Z</time>
      </trkpt>
      <trkpt lat="49.32953" lon="1.35716">
        <ele>138</ele>
        <time>2026-08-11T13:36:36.897Z</time>
      </trkpt>
      <trkpt lat="49.32957" lon="1.3571">
        <ele>138</ele>
        <time>2026-08-11T13:36:41.349Z</time>
      </trkpt>
      <trkpt lat="49.3296" lon="1.35702">
        <ele>138</ele>
        <time>2026-08-11T13:36:45.577Z</time>
      </trkpt>
      <trkpt lat="49.32964" lon="1.35695">
        <ele>138</ele>
        <time>2026-08-11T13:36:49.976Z</time>
      </trkpt>
      <trkpt lat="49.32966" lon="1.35689">
        <ele>138</ele>
        <time>2026-08-11T13:36:54.138Z</time>
      </trkpt>
      <trkpt lat="49.3297" lon="1.35684">
        <ele>138</ele>
        <time>2026-08-11T13:36:58.517Z</time>
      </trkpt>
      <trkpt lat="49.32973" lon="1.35678">
        <ele>137</ele>
        <time>2026-08-11T13:37:02.937Z</time>
      </trkpt>
      <trkpt lat="49.32974" lon="1.35672">
        <ele>137</ele>
        <time>2026-08-11T13:37:07.346Z</time>
      </trkpt>
      <trkpt lat="49.32975" lon="1.35666">
        <ele>137</ele>
        <time>2026-08-11T13:37:11.716Z</time>
      </trkpt>
      <trkpt lat="49.32976" lon="1.35661">
        <ele>137</ele>
        <time>2026-08-11T13:37:15.957Z</time>
      </trkpt>
      <trkpt lat="49.32979" lon="1.35656">
        <ele>137</ele>
        <time>2026-08-11T13:37:20.277Z</time>
      </trkpt>
      <trkpt lat="49.32983" lon="1.35654">
        <ele>137</ele>
        <time>2026-08-11T13:37:24.598Z</time>
      </trkpt>
      <trkpt lat="49.32987" lon="1.3565">
        <ele>136</ele>
        <time>2026-08-11T13:37:28.799Z</time>
      </trkpt>
      <trkpt lat="49.32991" lon="1.35646">
        <ele>136</ele>
        <time>2026-08-11T13:37:33.139Z</time>
      </trkpt>
      <trkpt lat="49.32996" lon="1.35642">
        <ele>136</ele>
        <time>2026-08-11T13:37:37.340Z</time>
      </trkpt>
      <trkpt lat="49.33003" lon="1.35639">
        <ele>136</ele>
        <time>2026-08-11T13:37:41.720Z</time>
      </trkpt>
      <trkpt lat="49.33008" lon="1.35634">
        <ele>136</ele>
        <time>2026-08-11T13:37:46.159Z</time>
      </trkpt>
      <trkpt lat="49.33013" lon="1.3563">
        <ele>136</ele>
        <time>2026-08-11T13:37:50.339Z</time>
      </trkpt>
      <trkpt lat="49.33018" lon="1.35624">
        <ele>133</ele>
        <time>2026-08-11T13:37:54.700Z</time>
      </trkpt>
      <trkpt lat="49.33021" lon="1.35619">
        <ele>133</ele>
        <time>2026-08-11T13:37:58.941Z</time>
      </trkpt>
      <trkpt lat="49.33024" lon="1.35612">
        <ele>133</ele>
        <time>2026-08-11T13:38:03.182Z</time>
      </trkpt>
      <trkpt lat="49.33026" lon="1.35605">
        <ele>133</ele>
        <time>2026-08-11T13:38:07.351Z</time>
      </trkpt>
      <trkpt lat="49.33028" lon="1.35598">
        <ele>133</ele>
        <time>2026-08-11T13:38:11.544Z</time>
      </trkpt>
      <trkpt lat="49.33032" lon="1.35592">
        <ele>132</ele>
        <time>2026-08-11T13:38:15.924Z</time>
      </trkpt>
      <trkpt lat="49.33036" lon="1.35587">
        <ele>132</ele>
        <time>2026-08-11T13:38:20.115Z</time>
      </trkpt>
      <trkpt lat="49.33039" lon="1.35579">
        <ele>132</ele>
        <time>2026-08-11T13:38:24.350Z</time>
      </trkpt>
      <trkpt lat="49.33039" lon="1.35573">
        <ele>132</ele>
        <time>2026-08-11T13:38:28.497Z</time>
      </trkpt>
      <trkpt lat="49.33037" lon="1.35565">
        <ele>130</ele>
        <time>2026-08-11T13:38:32.798Z</time>
      </trkpt>
      <trkpt lat="49.33037" lon="1.35558">
        <ele>130</ele>
        <time>2026-08-11T13:38:36.999Z</time>
      </trkpt>
      <trkpt lat="49.3304" lon="1.3555">
        <ele>130</ele>
        <time>2026-08-11T13:38:41.345Z</time>
      </trkpt>
      <trkpt lat="49.33042" lon="1.35546">
        <ele>130</ele>
        <time>2026-08-11T13:38:45.759Z</time>
      </trkpt>
      <trkpt lat="49.33039" lon="1.35543">
        <ele>130</ele>
        <time>2026-08-11T13:38:50.344Z</time>
      </trkpt>
      <trkpt lat="49.33037" lon="1.3554">
        <ele>130</ele>
        <time>2026-08-11T13:39:29.358Z</time>
      </trkpt>
      <trkpt lat="49.33041" lon="1.35542">
        <ele>130</ele>
        <time>2026-08-11T13:39:34.036Z</time>
      </trkpt>
      <trkpt lat="49.33045" lon="1.35546">
        <ele>130</ele>
        <time>2026-08-11T13:39:38.356Z</time>
      </trkpt>
      <trkpt lat="49.33048" lon="1.3555">
        <ele>130</ele>
        <time>2026-08-11T13:39:42.697Z</time>
      </trkpt>
      <trkpt lat="49.33052" lon="1.35555">
        <ele>130</ele>
        <time>2026-08-11T13:39:47.057Z</time>
      </trkpt>
      <trkpt lat="49.33055" lon="1.35559">
        <ele>130</ele>
        <time>2026-08-11T13:39:51.238Z</time>
      </trkpt>
      <trkpt lat="49.3306" lon="1.35563">
        <ele>130</ele>
        <time>2026-08-11T13:39:55.558Z</time>
      </trkpt>
      <trkpt lat="49.33065" lon="1.35567">
        <ele>130</ele>
        <time>2026-08-11T13:39:59.739Z</time>
      </trkpt>
      <trkpt lat="49.33069" lon="1.3557">
        <ele>132</ele>
        <time>2026-08-11T13:40:04.099Z</time>
      </trkpt>
      <trkpt lat="49.33072" lon="1.35572">
        <ele>130</ele>
        <time>2026-08-11T13:40:08.343Z</time>
      </trkpt>
      <trkpt lat="49.33074" lon="1.35577">
        <ele>130</ele>
        <time>2026-08-11T13:40:12.641Z</time>
      </trkpt>
      <trkpt lat="49.33076" lon="1.35584">
        <ele>130</ele>
        <time>2026-08-11T13:40:17.080Z</time>
      </trkpt>
      <trkpt lat="49.33079" lon="1.35589">
        <ele>130</ele>
        <time>2026-08-11T13:40:21.341Z</time>
      </trkpt>
      <trkpt lat="49.33082" lon="1.35595">
        <ele>130</ele>
        <time>2026-08-11T13:40:26.018Z</time>
      </trkpt>
      <trkpt lat="49.33082" lon="1.35601">
        <ele>132</ele>
        <time>2026-08-11T13:40:30.537Z</time>
      </trkpt>
      <trkpt lat="49.33084" lon="1.35606">
        <ele>132</ele>
        <time>2026-08-11T13:40:35.195Z</time>
      </trkpt>
      <trkpt lat="49.33086" lon="1.35613">
        <ele>132</ele>
        <time>2026-08-11T13:40:39.724Z</time>
      </trkpt>
      <trkpt lat="49.33089" lon="1.35621">
        <ele>132</ele>
        <time>2026-08-11T13:40:44.342Z</time>
      </trkpt>
      <trkpt lat="49.33094" lon="1.35626">
        <ele>134</ele>
        <time>2026-08-11T13:40:48.802Z</time>
      </trkpt>
      <trkpt lat="49.33099" lon="1.35629">
        <ele>129</ele>
        <time>2026-08-11T13:40:53.221Z</time>
      </trkpt>
      <trkpt lat="49.33102" lon="1.3563">
        <ele>129</ele>
        <time>2026-08-11T13:40:57.345Z</time>
      </trkpt>
      <trkpt lat="49.33104" lon="1.35629">
        <ele>129</ele>
        <time>2026-08-11T13:41:09.499Z</time>
      </trkpt>
      <trkpt lat="49.331" lon="1.35627">
        <ele>129</ele>
        <time>2026-08-11T13:41:13.640Z</time>
      </trkpt>
      <trkpt lat="49.33096" lon="1.35619">
        <ele>132</ele>
        <time>2026-08-11T13:41:18.040Z</time>
      </trkpt>
      <trkpt lat="49.33092" lon="1.35612">
        <ele>132</ele>
        <time>2026-08-11T13:41:22.559Z</time>
      </trkpt>
      <trkpt lat="49.33088" lon="1.35605">
        <ele>132</ele>
        <time>2026-08-11T13:41:26.879Z</time>
      </trkpt>
      <trkpt lat="49.33086" lon="1.35598">
        <ele>132</ele>
        <time>2026-08-11T13:41:31.341Z</time>
      </trkpt>
      <trkpt lat="49.33082" lon="1.35592">
        <ele>130</ele>
        <time>2026-08-11T13:41:36.115Z</time>
      </trkpt>
      <trkpt lat="49.33079" lon="1.35588">
        <ele>130</ele>
        <time>2026-08-11T13:41:40.347Z</time>
      </trkpt>
      <trkpt lat="49.33075" lon="1.35583">
        <ele>130</ele>
        <time>2026-08-11T13:41:44.755Z</time>
      </trkpt>
      <trkpt lat="49.33071" lon="1.35578">
        <ele>130</ele>
        <time>2026-08-11T13:41:49.343Z</time>
      </trkpt>
      <trkpt lat="49.33067" lon="1.35572">
        <ele>132</ele>
        <time>2026-08-11T13:41:53.684Z</time>
      </trkpt>
      <trkpt lat="49.33064" lon="1.35567">
        <ele>130</ele>
        <time>2026-08-11T13:41:58.223Z</time>
      </trkpt>
      <trkpt lat="49.3306" lon="1.35563">
        <ele>130</ele>
        <time>2026-08-11T13:42:02.463Z</time>
      </trkpt>
      <trkpt lat="49.33056" lon="1.3556">
        <ele>130</ele>
        <time>2026-08-11T13:42:06.843Z</time>
      </trkpt>
      <trkpt lat="49.33051" lon="1.35557">
        <ele>130</ele>
        <time>2026-08-11T13:42:11.346Z</time>
      </trkpt>
      <trkpt lat="49.33049" lon="1.35551">
        <ele>130</ele>
        <time>2026-08-11T13:42:15.722Z</time>
      </trkpt>
      <trkpt lat="49.33052" lon="1.35547">
        <ele>130</ele>
        <time>2026-08-11T13:42:19.942Z</time>
      </trkpt>
      <trkpt lat="49.33056" lon="1.35548">
        <ele>130</ele>
        <time>2026-08-11T13:42:24.353Z</time>
      </trkpt>
      <trkpt lat="49.33061" lon="1.35548">
        <ele>130</ele>
        <time>2026-08-11T13:42:29.339Z</time>
      </trkpt>
      <trkpt lat="49.33064" lon="1.35545">
        <ele>130</ele>
        <time>2026-08-11T13:42:34.055Z</time>
      </trkpt>
      <trkpt lat="49.33065" lon="1.35541">
        <ele>128</ele>
        <time>2026-08-11T13:42:38.342Z</time>
      </trkpt>
      <trkpt lat="49.33056" lon="1.35533">
        <ele>128</ele>
        <time>2026-08-11T13:43:23.342Z</time>
      </trkpt>
      <trkpt lat="49.33056" lon="1.35533">
        <ele>128</ele>
        <time>2026-08-11T13:43:27.495Z</time>
      </trkpt>
      <trkpt lat="49.33055" lon="1.35531">
        <ele>128</ele>
        <time>2026-08-11T13:43:31.915Z</time>
      </trkpt>
      <trkpt lat="49.33051" lon="1.35526">
        <ele>128</ele>
        <time>2026-08-11T13:43:35.996Z</time>
      </trkpt>
      <trkpt lat="49.33046" lon="1.35522">
        <ele>128</ele>
        <time>2026-08-11T13:43:40.341Z</time>
      </trkpt>
      <trkpt lat="49.33038" lon="1.3552">
        <ele>130</ele>
        <time>2026-08-11T13:44:37.998Z</time>
      </trkpt>
      <trkpt lat="49.33044" lon="1.35524">
        <ele>128</ele>
        <time>2026-08-11T13:44:42.345Z</time>
      </trkpt>
      <trkpt lat="49.3305" lon="1.35529">
        <ele>128</ele>
        <time>2026-08-11T13:44:46.877Z</time>
      </trkpt>
      <trkpt lat="49.33057" lon="1.35532">
        <ele>128</ele>
        <time>2026-08-11T13:44:51.342Z</time>
      </trkpt>
      <trkpt lat="49.33062" lon="1.35535">
        <ele>128</ele>
        <time>2026-08-11T13:44:55.350Z</time>
      </trkpt>
      <trkpt lat="49.33067" lon="1.35539">
        <ele>128</ele>
        <time>2026-08-11T13:44:59.738Z</time>
      </trkpt>
      <trkpt lat="49.33072" lon="1.35543">
        <ele>127</ele>
        <time>2026-08-11T13:45:04.217Z</time>
      </trkpt>
      <trkpt lat="49.33076" lon="1.35548">
        <ele>127</ele>
        <time>2026-08-11T13:45:08.299Z</time>
      </trkpt>
      <trkpt lat="49.33078" lon="1.35549">
        <ele>127</ele>
        <time>2026-08-11T13:45:12.345Z</time>
      </trkpt>
      <trkpt lat="49.33073" lon="1.35549">
        <ele>127</ele>
        <time>2026-08-11T13:45:38.759Z</time>
      </trkpt>
      <trkpt lat="49.33078" lon="1.35551">
        <ele>127</ele>
        <time>2026-08-11T13:45:43.079Z</time>
      </trkpt>
      <trkpt lat="49.33082" lon="1.35546">
        <ele>127</ele>
        <time>2026-08-11T13:45:47.344Z</time>
      </trkpt>
      <trkpt lat="49.33082" lon="1.35538">
        <ele>125</ele>
        <time>2026-08-11T13:45:51.354Z</time>
      </trkpt>
      <trkpt lat="49.33082" lon="1.3553">
        <ele>125</ele>
        <time>2026-08-11T13:45:56.199Z</time>
      </trkpt>
      <trkpt lat="49.33082" lon="1.35527">
        <ele>125</ele>
        <time>2026-08-11T13:46:17.342Z</time>
      </trkpt>
      <trkpt lat="49.3308" lon="1.35526">
        <ele>125</ele>
        <time>2026-08-11T13:46:21.683Z</time>
      </trkpt>
      <trkpt lat="49.33078" lon="1.35521">
        <ele>125</ele>
        <time>2026-08-11T13:46:25.914Z</time>
      </trkpt>
      <trkpt lat="49.33077" lon="1.35516">
        <ele>125</ele>
        <time>2026-08-11T13:46:30.341Z</time>
      </trkpt>
      <trkpt lat="49.33074" lon="1.35511">
        <ele>124</ele>
        <time>2026-08-11T13:46:34.724Z</time>
      </trkpt>
      <trkpt lat="49.33071" lon="1.35505">
        <ele>124</ele>
        <time>2026-08-11T13:46:38.895Z</time>
      </trkpt>
      <trkpt lat="49.33082" lon="1.35487">
        <ele>124</ele>
        <time>2026-08-11T13:46:43.342Z</time>
      </trkpt>
      <trkpt lat="49.33083" lon="1.35477">
        <ele>124</ele>
        <time>2026-08-11T13:46:48.102Z</time>
      </trkpt>
      <trkpt lat="49.33082" lon="1.35469">
        <ele>124</ele>
        <time>2026-08-11T13:46:52.224Z</time>
      </trkpt>
      <trkpt lat="49.33081" lon="1.35463">
        <ele>124</ele>
        <time>2026-08-11T13:46:56.237Z</time>
      </trkpt>
      <trkpt lat="49.33081" lon="1.35456">
        <ele>123</ele>
        <time>2026-08-11T13:47:00.336Z</time>
      </trkpt>
      <trkpt lat="49.33079" lon="1.3545">
        <ele>123</ele>
        <time>2026-08-11T13:47:05.195Z</time>
      </trkpt>
      <trkpt lat="49.33081" lon="1.35441">
        <ele>123</ele>
        <time>2026-08-11T13:47:09.338Z</time>
      </trkpt>
      <trkpt lat="49.3308" lon="1.35431">
        <ele>123</ele>
        <time>2026-08-11T13:47:14.075Z</time>
      </trkpt>
      <trkpt lat="49.33079" lon="1.35424">
        <ele>121</ele>
        <time>2026-08-11T13:47:18.217Z</time>
      </trkpt>
      <trkpt lat="49.33077" lon="1.35416">
        <ele>121</ele>
        <time>2026-08-11T13:47:22.458Z</time>
      </trkpt>
      <trkpt lat="49.33075" lon="1.35409">
        <ele>121</ele>
        <time>2026-08-11T13:47:26.599Z</time>
      </trkpt>
      <trkpt lat="49.33073" lon="1.35402">
        <ele>120</ele>
        <time>2026-08-11T13:47:30.801Z</time>
      </trkpt>
      <trkpt lat="49.33073" lon="1.35393">
        <ele>120</ele>
        <time>2026-08-11T13:47:35.320Z</time>
      </trkpt>
      <trkpt lat="49.33078" lon="1.3539">
        <ele>120</ele>
        <time>2026-08-11T13:47:40.349Z</time>
      </trkpt>
      <trkpt lat="49.3308" lon="1.35386">
        <ele>120</ele>
        <time>2026-08-11T13:47:45.344Z</time>
      </trkpt>
      <trkpt lat="49.33078" lon="1.35387">
        <ele>120</ele>
        <time>2026-08-11T13:48:09.348Z</time>
      </trkpt>
      <trkpt lat="49.33077" lon="1.35379">
        <ele>120</ele>
        <time>2026-08-11T13:48:14.333Z</time>
      </trkpt>
      <trkpt lat="49.33075" lon="1.35371">
        <ele>120</ele>
        <time>2026-08-11T13:48:18.347Z</time>
      </trkpt>
      <trkpt lat="49.33075" lon="1.35363">
        <ele>120</ele>
        <time>2026-08-11T13:48:23.339Z</time>
      </trkpt>
      <trkpt lat="49.33074" lon="1.35356">
        <ele>120</ele>
        <time>2026-08-11T13:48:28.352Z</time>
      </trkpt>
      <trkpt lat="49.33074" lon="1.35348">
        <ele>120</ele>
        <time>2026-08-11T13:48:33.343Z</time>
      </trkpt>
      <trkpt lat="49.33073" lon="1.35341">
        <ele>119</ele>
        <time>2026-08-11T13:48:37.350Z</time>
      </trkpt>
      <trkpt lat="49.33071" lon="1.35334">
        <ele>119</ele>
        <time>2026-08-11T13:48:42.344Z</time>
      </trkpt>
      <trkpt lat="49.33069" lon="1.35327">
        <ele>123</ele>
        <time>2026-08-11T13:48:47.342Z</time>
      </trkpt>
      <trkpt lat="49.33066" lon="1.35312">
        <ele>123</ele>
        <time>2026-08-11T13:49:14.341Z</time>
      </trkpt>
      <trkpt lat="49.33063" lon="1.35307">
        <ele>123</ele>
        <time>2026-08-11T13:49:18.338Z</time>
      </trkpt>
      <trkpt lat="49.3306" lon="1.353">
        <ele>123</ele>
        <time>2026-08-11T13:49:23.262Z</time>
      </trkpt>
      <trkpt lat="49.33056" lon="1.35302">
        <ele>123</ele>
        <time>2026-08-11T13:49:27.343Z</time>
      </trkpt>
      <trkpt lat="49.33055" lon="1.353">
        <ele>123</ele>
        <time>2026-08-11T13:49:31.343Z</time>
      </trkpt>
      <trkpt lat="49.33056" lon="1.35299">
        <ele>123</ele>
        <time>2026-08-11T13:49:35.956Z</time>
      </trkpt>
      <trkpt lat="49.33058" lon="1.35296">
        <ele>123</ele>
        <time>2026-08-11T13:49:40.347Z</time>
      </trkpt>
      <trkpt lat="49.33062" lon="1.35296">
        <ele>123</ele>
        <time>2026-08-11T13:49:44.736Z</time>
      </trkpt>
      <trkpt lat="49.33066" lon="1.35293">
        <ele>123</ele>
        <time>2026-08-11T13:49:49.335Z</time>
      </trkpt>
      <trkpt lat="49.33077" lon="1.35297">
        <ele>119</ele>
        <time>2026-08-11T13:50:02.342Z</time>
      </trkpt>
      <trkpt lat="49.33078" lon="1.353">
        <ele>119</ele>
        <time>2026-08-11T13:50:07.357Z</time>
      </trkpt>
      <trkpt lat="49.33078" lon="1.35302">
        <ele>119</ele>
        <time>2026-08-11T13:50:12.333Z</time>
      </trkpt>
      <trkpt lat="49.33079" lon="1.35304">
        <ele>119</ele>
        <time>2026-08-11T13:50:17.343Z</time>
      </trkpt>
      <trkpt lat="49.33079" lon="1.35304">
        <ele>119</ele>
        <time>2026-08-11T13:50:22.339Z</time>
      </trkpt>
      <trkpt lat="49.33078" lon="1.35306">
        <ele>119</ele>
        <time>2026-08-11T13:50:41.658Z</time>
      </trkpt>
      <trkpt lat="49.33074" lon="1.35308">
        <ele>119</ele>
        <time>2026-08-11T13:50:46.338Z</time>
      </trkpt>
      <trkpt lat="49.33071" lon="1.35308">
        <ele>119</ele>
        <time>2026-08-11T13:50:51.342Z</time>
      </trkpt>
      <trkpt lat="49.33069" lon="1.35308">
        <ele>123</ele>
        <time>2026-08-11T13:50:55.742Z</time>
      </trkpt>
      <trkpt lat="49.33064" lon="1.35309">
        <ele>123</ele>
        <time>2026-08-11T13:51:00.345Z</time>
      </trkpt>
      <trkpt lat="49.33061" lon="1.35311">
        <ele>123</ele>
        <time>2026-08-11T13:51:04.340Z</time>
      </trkpt>
      <trkpt lat="49.33061" lon="1.35315">
        <ele>123</ele>
        <time>2026-08-11T13:51:08.350Z</time>
      </trkpt>
      <trkpt lat="49.33064" lon="1.35321">
        <ele>123</ele>
        <time>2026-08-11T13:51:13.154Z</time>
      </trkpt>
      <trkpt lat="49.33067" lon="1.35324">
        <ele>123</ele>
        <time>2026-08-11T13:51:17.584Z</time>
      </trkpt>
      <trkpt lat="49.33067" lon="1.35334">
        <ele>123</ele>
        <time>2026-08-11T13:51:21.775Z</time>
      </trkpt>
      <trkpt lat="49.3307" lon="1.35341">
        <ele>119</ele>
        <time>2026-08-11T13:51:26.343Z</time>
      </trkpt>
      <trkpt lat="49.3307" lon="1.3535">
        <ele>120</ele>
        <time>2026-08-11T13:51:31.023Z</time>
      </trkpt>
      <trkpt lat="49.33071" lon="1.35358">
        <ele>120</ele>
        <time>2026-08-11T13:51:35.035Z</time>
      </trkpt>
      <trkpt lat="49.33067" lon="1.35367">
        <ele>123</ele>
        <time>2026-08-11T13:51:53.352Z</time>
      </trkpt>
      <trkpt lat="49.33066" lon="1.35362">
        <ele>123</ele>
        <time>2026-08-11T13:51:57.339Z</time>
      </trkpt>
      <trkpt lat="49.33065" lon="1.35353">
        <ele>123</ele>
        <time>2026-08-11T13:52:01.714Z</time>
      </trkpt>
      <trkpt lat="49.33063" lon="1.35345">
        <ele>123</ele>
        <time>2026-08-11T13:52:05.916Z</time>
      </trkpt>
      <trkpt lat="49.33061" lon="1.35337">
        <ele>123</ele>
        <time>2026-08-11T13:52:10.342Z</time>
      </trkpt>
      <trkpt lat="49.33059" lon="1.35332">
        <ele>123</ele>
        <time>2026-08-11T13:52:14.696Z</time>
      </trkpt>
      <trkpt lat="49.33055" lon="1.35325">
        <ele>123</ele>
        <time>2026-08-11T13:52:18.937Z</time>
      </trkpt>
      <trkpt lat="49.33052" lon="1.35321">
        <ele>123</ele>
        <time>2026-08-11T13:52:22.960Z</time>
      </trkpt>
      <trkpt lat="49.33048" lon="1.35317">
        <ele>123</ele>
        <time>2026-08-11T13:52:27.201Z</time>
      </trkpt>
      <trkpt lat="49.33044" lon="1.35312">
        <ele>123</ele>
        <time>2026-08-11T13:52:31.336Z</time>
      </trkpt>
      <trkpt lat="49.33039" lon="1.3531">
        <ele>125</ele>
        <time>2026-08-11T13:52:35.339Z</time>
      </trkpt>
      <trkpt lat="49.33034" lon="1.35306">
        <ele>125</ele>
        <time>2026-08-11T13:52:39.696Z</time>
      </trkpt>
      <trkpt lat="49.3303" lon="1.35303">
        <ele>125</ele>
        <time>2026-08-11T13:52:43.878Z</time>
      </trkpt>
      <trkpt lat="49.33027" lon="1.35298">
        <ele>125</ele>
        <time>2026-08-11T13:52:47.881Z</time>
      </trkpt>
      <trkpt lat="49.33022" lon="1.35294">
        <ele>125</ele>
        <time>2026-08-11T13:52:52.182Z</time>
      </trkpt>
      <trkpt lat="49.33018" lon="1.35291">
        <ele>125</ele>
        <time>2026-08-11T13:52:56.304Z</time>
      </trkpt>
      <trkpt lat="49.33014" lon="1.35288">
        <ele>126</ele>
        <time>2026-08-11T13:53:00.614Z</time>
      </trkpt>
      <trkpt lat="49.33009" lon="1.35284">
        <ele>126</ele>
        <time>2026-08-11T13:53:04.915Z</time>
      </trkpt>
      <trkpt lat="49.33005" lon="1.35282">
        <ele>126</ele>
        <time>2026-08-11T13:53:09.156Z</time>
      </trkpt>
      <trkpt lat="49.33001" lon="1.35277">
        <ele>126</ele>
        <time>2026-08-11T13:53:13.318Z</time>
      </trkpt>
      <trkpt lat="49.32997" lon="1.35272">
        <ele>126</ele>
        <time>2026-08-11T13:53:17.877Z</time>
      </trkpt>
      <trkpt lat="49.32993" lon="1.35268">
        <ele>126</ele>
        <time>2026-08-11T13:53:22.178Z</time>
      </trkpt>
      <trkpt lat="49.3299" lon="1.35265">
        <ele>126</ele>
        <time>2026-08-11T13:53:26.339Z</time>
      </trkpt>
      <trkpt lat="49.32986" lon="1.35261">
        <ele>129</ele>
        <time>2026-08-11T13:53:30.760Z</time>
      </trkpt>
      <trkpt lat="49.32981" lon="1.35258">
        <ele>129</ele>
        <time>2026-08-11T13:53:35.160Z</time>
      </trkpt>
      <trkpt lat="49.32977" lon="1.35254">
        <ele>129</ele>
        <time>2026-08-11T13:53:39.282Z</time>
      </trkpt>
      <trkpt lat="49.32972" lon="1.35251">
        <ele>129</ele>
        <time>2026-08-11T13:53:43.880Z</time>
      </trkpt>
      <trkpt lat="49.32969" lon="1.35247">
        <ele>129</ele>
        <time>2026-08-11T13:53:48.022Z</time>
      </trkpt>
      <trkpt lat="49.32965" lon="1.35243">
        <ele>129</ele>
        <time>2026-08-11T13:53:52.340Z</time>
      </trkpt>
      <trkpt lat="49.32961" lon="1.35238">
        <ele>129</ele>
        <time>2026-08-11T13:53:56.842Z</time>
      </trkpt>
      <trkpt lat="49.32959" lon="1.35232">
        <ele>130</ele>
        <time>2026-08-11T13:54:01.342Z</time>
      </trkpt>
      <trkpt lat="49.3296" lon="1.35225">
        <ele>130</ele>
        <time>2026-08-11T13:54:05.921Z</time>
      </trkpt>
      <trkpt lat="49.32961" lon="1.35218">
        <ele>130</ele>
        <time>2026-08-11T13:54:10.241Z</time>
      </trkpt>
      <trkpt lat="49.32961" lon="1.35211">
        <ele>130</ele>
        <time>2026-08-11T13:54:14.324Z</time>
      </trkpt>
      <trkpt lat="49.32963" lon="1.35201">
        <ele>131</ele>
        <time>2026-08-11T13:54:18.684Z</time>
      </trkpt>
      <trkpt lat="49.32966" lon="1.35196">
        <ele>131</ele>
        <time>2026-08-11T13:54:22.875Z</time>
      </trkpt>
      <trkpt lat="49.32968" lon="1.35191">
        <ele>131</ele>
        <time>2026-08-11T13:54:27.196Z</time>
      </trkpt>
      <trkpt lat="49.3297" lon="1.35183">
        <ele>131</ele>
        <time>2026-08-11T13:54:31.278Z</time>
      </trkpt>
      <trkpt lat="49.32972" lon="1.35175">
        <ele>131</ele>
        <time>2026-08-11T13:54:35.339Z</time>
      </trkpt>
      <trkpt lat="49.32973" lon="1.35167">
        <ele>131</ele>
        <time>2026-08-11T13:54:39.999Z</time>
      </trkpt>
      <trkpt lat="49.32975" lon="1.3516">
        <ele>131</ele>
        <time>2026-08-11T13:54:44.340Z</time>
      </trkpt>
      <trkpt lat="49.32975" lon="1.35153">
        <ele>131</ele>
        <time>2026-08-11T13:54:48.561Z</time>
      </trkpt>
      <trkpt lat="49.32976" lon="1.35146">
        <ele>131</ele>
        <time>2026-08-11T13:54:52.742Z</time>
      </trkpt>
      <trkpt lat="49.32977" lon="1.35138">
        <ele>131</ele>
        <time>2026-08-11T13:54:56.944Z</time>
      </trkpt>
      <trkpt lat="49.32979" lon="1.3513">
        <ele>131</ele>
        <time>2026-08-11T13:55:01.056Z</time>
      </trkpt>
      <trkpt lat="49.32981" lon="1.35123">
        <ele>132</ele>
        <time>2026-08-11T13:55:05.237Z</time>
      </trkpt>
      <trkpt lat="49.32983" lon="1.35115">
        <ele>132</ele>
        <time>2026-08-11T13:55:09.334Z</time>
      </trkpt>
      <trkpt lat="49.32983" lon="1.35106">
        <ele>132</ele>
        <time>2026-08-11T13:55:14.058Z</time>
      </trkpt>
      <trkpt lat="49.32984" lon="1.35098">
        <ele>132</ele>
        <time>2026-08-11T13:55:18.348Z</time>
      </trkpt>
      <trkpt lat="49.32984" lon="1.35091">
        <ele>134</ele>
        <time>2026-08-11T13:55:22.619Z</time>
      </trkpt>
      <trkpt lat="49.32982" lon="1.35084">
        <ele>134</ele>
        <time>2026-08-11T13:55:26.880Z</time>
      </trkpt>
      <trkpt lat="49.32979" lon="1.35077">
        <ele>134</ele>
        <time>2026-08-11T13:55:31.062Z</time>
      </trkpt>
      <trkpt lat="49.32976" lon="1.35071">
        <ele>134</ele>
        <time>2026-08-11T13:55:35.303Z</time>
      </trkpt>
      <trkpt lat="49.32974" lon="1.35065">
        <ele>136</ele>
        <time>2026-08-11T13:55:39.435Z</time>
      </trkpt>
      <trkpt lat="49.32972" lon="1.35059">
        <ele>136</ele>
        <time>2026-08-11T13:55:43.676Z</time>
      </trkpt>
      <trkpt lat="49.32972" lon="1.35051">
        <ele>136</ele>
        <time>2026-08-11T13:55:47.957Z</time>
      </trkpt>
      <trkpt lat="49.3297" lon="1.35044">
        <ele>136</ele>
        <time>2026-08-11T13:55:52.258Z</time>
      </trkpt>
      <trkpt lat="49.32968" lon="1.35038">
        <ele>139</ele>
        <time>2026-08-11T13:55:56.499Z</time>
      </trkpt>
      <trkpt lat="49.32966" lon="1.3503">
        <ele>139</ele>
        <time>2026-08-11T13:56:00.919Z</time>
      </trkpt>
      <trkpt lat="49.32964" lon="1.35023">
        <ele>139</ele>
        <time>2026-08-11T13:56:05.101Z</time>
      </trkpt>
      <trkpt lat="49.32961" lon="1.35014">
        <ele>139</ele>
        <time>2026-08-11T13:56:09.334Z</time>
      </trkpt>
      <trkpt lat="49.32957" lon="1.35006">
        <ele>138</ele>
        <time>2026-08-11T13:56:13.662Z</time>
      </trkpt>
      <trkpt lat="49.32954" lon="1.34999">
        <ele>138</ele>
        <time>2026-08-11T13:56:17.943Z</time>
      </trkpt>
      <trkpt lat="49.32951" lon="1.34993">
        <ele>138</ele>
        <time>2026-08-11T13:56:22.175Z</time>
      </trkpt>
      <trkpt lat="49.32948" lon="1.34987">
        <ele>138</ele>
        <time>2026-08-11T13:56:26.337Z</time>
      </trkpt>
      <trkpt lat="49.32947" lon="1.3498">
        <ele>139</ele>
        <time>2026-08-11T13:56:30.776Z</time>
      </trkpt>
      <trkpt lat="49.32945" lon="1.34975">
        <ele>139</ele>
        <time>2026-08-11T13:56:35.236Z</time>
      </trkpt>
      <trkpt lat="49.32944" lon="1.34968">
        <ele>139</ele>
        <time>2026-08-11T13:56:39.636Z</time>
      </trkpt>
      <trkpt lat="49.32944" lon="1.34961">
        <ele>139</ele>
        <time>2026-08-11T13:56:44.076Z</time>
      </trkpt>
      <trkpt lat="49.32943" lon="1.34953">
        <ele>140</ele>
        <time>2026-08-11T13:56:48.277Z</time>
      </trkpt>
      <trkpt lat="49.32943" lon="1.34946">
        <ele>140</ele>
        <time>2026-08-11T13:56:52.657Z</time>
      </trkpt>
      <trkpt lat="49.32942" lon="1.34939">
        <ele>140</ele>
        <time>2026-08-11T13:56:56.918Z</time>
      </trkpt>
      <trkpt lat="49.32943" lon="1.34932">
        <ele>140</ele>
        <time>2026-08-11T13:57:01.179Z</time>
      </trkpt>
      <trkpt lat="49.32946" lon="1.34927">
        <ele>141</ele>
        <time>2026-08-11T13:57:05.342Z</time>
      </trkpt>
      <trkpt lat="49.32948" lon="1.3492">
        <ele>141</ele>
        <time>2026-08-11T13:57:09.682Z</time>
      </trkpt>
      <trkpt lat="49.32949" lon="1.34913">
        <ele>141</ele>
        <time>2026-08-11T13:57:13.724Z</time>
      </trkpt>
      <trkpt lat="49.32951" lon="1.34906">
        <ele>141</ele>
        <time>2026-08-11T13:57:18.114Z</time>
      </trkpt>
      <trkpt lat="49.32953" lon="1.34899">
        <ele>141</ele>
        <time>2026-08-11T13:57:22.604Z</time>
      </trkpt>
      <trkpt lat="49.32953" lon="1.34892">
        <ele>141</ele>
        <time>2026-08-11T13:57:26.855Z</time>
      </trkpt>
      <trkpt lat="49.32953" lon="1.34885">
        <ele>141</ele>
        <time>2026-08-11T13:57:30.997Z</time>
      </trkpt>
      <trkpt lat="49.32954" lon="1.34877">
        <ele>141</ele>
        <time>2026-08-11T13:57:35.099Z</time>
      </trkpt>
      <trkpt lat="49.32954" lon="1.34868">
        <ele>142</ele>
        <time>2026-08-11T13:57:39.221Z</time>
      </trkpt>
      <trkpt lat="49.32955" lon="1.3486">
        <ele>142</ele>
        <time>2026-08-11T13:57:43.340Z</time>
      </trkpt>
      <trkpt lat="49.32955" lon="1.34853">
        <ele>142</ele>
        <time>2026-08-11T13:57:47.664Z</time>
      </trkpt>
      <trkpt lat="49.32952" lon="1.34845">
        <ele>143</ele>
        <time>2026-08-11T13:57:51.895Z</time>
      </trkpt>
      <trkpt lat="49.3295" lon="1.34839">
        <ele>143</ele>
        <time>2026-08-11T13:57:55.937Z</time>
      </trkpt>
      <trkpt lat="49.32947" lon="1.34832">
        <ele>143</ele>
        <time>2026-08-11T13:58:00.198Z</time>
      </trkpt>
      <trkpt lat="49.32944" lon="1.34828">
        <ele>143</ele>
        <time>2026-08-11T13:58:04.300Z</time>
      </trkpt>
      <trkpt lat="49.32939" lon="1.34823">
        <ele>143</ele>
        <time>2026-08-11T13:58:08.889Z</time>
      </trkpt>
      <trkpt lat="49.32935" lon="1.34818">
        <ele>143</ele>
        <time>2026-08-11T13:58:13.348Z</time>
      </trkpt>
      <trkpt lat="49.32931" lon="1.34813">
        <ele>143</ele>
        <time>2026-08-11T13:58:17.759Z</time>
      </trkpt>
      <trkpt lat="49.32926" lon="1.34808">
        <ele>141</ele>
        <time>2026-08-11T13:58:22.357Z</time>
      </trkpt>
      <trkpt lat="49.32925" lon="1.34807">
        <ele>141</ele>
        <time>2026-08-11T13:58:27.056Z</time>
      </trkpt>
      <trkpt lat="49.32926" lon="1.34808">
        <ele>141</ele>
        <time>2026-08-11T13:58:52.331Z</time>
      </trkpt>
      <trkpt lat="49.32926" lon="1.34807">
        <ele>141</ele>
        <time>2026-08-11T13:58:57.343Z</time>
      </trkpt>
      <trkpt lat="49.32924" lon="1.34805">
        <ele>141</ele>
        <time>2026-08-11T13:59:01.860Z</time>
      </trkpt>
      <trkpt lat="49.32923" lon="1.34803">
        <ele>141</ele>
        <time>2026-08-11T13:59:06.346Z</time>
      </trkpt>
      <trkpt lat="49.32918" lon="1.34799">
        <ele>141</ele>
        <time>2026-08-11T13:59:11.017Z</time>
      </trkpt>
      <trkpt lat="49.32915" lon="1.34795">
        <ele>141</ele>
        <time>2026-08-11T13:59:15.060Z</time>
      </trkpt>
      <trkpt lat="49.3291" lon="1.34794">
        <ele>141</ele>
        <time>2026-08-11T13:59:19.338Z</time>
      </trkpt>
      <trkpt lat="49.32906" lon="1.34793">
        <ele>141</ele>
        <time>2026-08-11T13:59:23.582Z</time>
      </trkpt>
      <trkpt lat="49.32901" lon="1.34792">
        <ele>140</ele>
        <time>2026-08-11T13:59:27.843Z</time>
      </trkpt>
      <trkpt lat="49.32896" lon="1.34791">
        <ele>143</ele>
        <time>2026-08-11T13:59:31.935Z</time>
      </trkpt>
      <trkpt lat="49.32891" lon="1.3479">
        <ele>143</ele>
        <time>2026-08-11T13:59:36.117Z</time>
      </trkpt>
      <trkpt lat="49.32886" lon="1.34789">
        <ele>143</ele>
        <time>2026-08-11T13:59:40.278Z</time>
      </trkpt>
      <trkpt lat="49.3288" lon="1.34787">
        <ele>143</ele>
        <time>2026-08-11T13:59:44.639Z</time>
      </trkpt>
      <trkpt lat="49.32875" lon="1.34786">
        <ele>142</ele>
        <time>2026-08-11T13:59:48.979Z</time>
      </trkpt>
      <trkpt lat="49.3287" lon="1.34786">
        <ele>142</ele>
        <time>2026-08-11T13:59:53.342Z</time>
      </trkpt>
      <trkpt lat="49.32864" lon="1.34787">
        <ele>142</ele>
        <time>2026-08-11T13:59:57.680Z</time>
      </trkpt>
      <trkpt lat="49.32858" lon="1.34788">
        <ele>142</ele>
        <time>2026-08-11T14:00:01.861Z</time>
      </trkpt>
      <trkpt lat="49.32853" lon="1.3479">
        <ele>142</ele>
        <time>2026-08-11T14:00:05.963Z</time>
      </trkpt>
      <trkpt lat="49.32848" lon="1.34794">
        <ele>139</ele>
        <time>2026-08-11T14:00:10.244Z</time>
      </trkpt>
      <trkpt lat="49.32842" lon="1.34796">
        <ele>140</ele>
        <time>2026-08-11T14:00:14.515Z</time>
      </trkpt>
      <trkpt lat="49.32837" lon="1.34798">
        <ele>140</ele>
        <time>2026-08-11T14:00:18.955Z</time>
      </trkpt>
      <trkpt lat="49.32833" lon="1.34799">
        <ele>140</ele>
        <time>2026-08-11T14:00:23.339Z</time>
      </trkpt>
      <trkpt lat="49.32828" lon="1.34798">
        <ele>140</ele>
        <time>2026-08-11T14:00:27.864Z</time>
      </trkpt>
      <trkpt lat="49.32823" lon="1.34799">
        <ele>140</ele>
        <time>2026-08-11T14:00:32.284Z</time>
      </trkpt>
      <trkpt lat="49.32819" lon="1.348">
        <ele>141</ele>
        <time>2026-08-11T14:00:36.575Z</time>
      </trkpt>
      <trkpt lat="49.32814" lon="1.34799">
        <ele>141</ele>
        <time>2026-08-11T14:00:40.796Z</time>
      </trkpt>
      <trkpt lat="49.3281" lon="1.348">
        <ele>141</ele>
        <time>2026-08-11T14:00:45.037Z</time>
      </trkpt>
      <trkpt lat="49.32805" lon="1.348">
        <ele>141</ele>
        <time>2026-08-11T14:00:49.341Z</time>
      </trkpt>
      <trkpt lat="49.328" lon="1.348">
        <ele>141</ele>
        <time>2026-08-11T14:00:53.837Z</time>
      </trkpt>
      <trkpt lat="49.32796" lon="1.348">
        <ele>141</ele>
        <time>2026-08-11T14:00:58.158Z</time>
      </trkpt>
      <trkpt lat="49.32791" lon="1.348">
        <ele>141</ele>
        <time>2026-08-11T14:01:02.617Z</time>
      </trkpt>
      <trkpt lat="49.32786" lon="1.34798">
        <ele>141</ele>
        <time>2026-08-11T14:01:07.341Z</time>
      </trkpt>
      <trkpt lat="49.32782" lon="1.34795">
        <ele>141</ele>
        <time>2026-08-11T14:01:12.202Z</time>
      </trkpt>
      <trkpt lat="49.3278" lon="1.34792">
        <ele>141</ele>
        <time>2026-08-11T14:01:16.721Z</time>
      </trkpt>
      <trkpt lat="49.32775" lon="1.34792">
        <ele>141</ele>
        <time>2026-08-11T14:01:21.141Z</time>
      </trkpt>
      <trkpt lat="49.32771" lon="1.34791">
        <ele>142</ele>
        <time>2026-08-11T14:01:25.263Z</time>
      </trkpt>
      <trkpt lat="49.32767" lon="1.34789">
        <ele>142</ele>
        <time>2026-08-11T14:01:29.921Z</time>
      </trkpt>
      <trkpt lat="49.32763" lon="1.34786">
        <ele>141</ele>
        <time>2026-08-11T14:01:34.342Z</time>
      </trkpt>
      <trkpt lat="49.32758" lon="1.34784">
        <ele>141</ele>
        <time>2026-08-11T14:01:38.880Z</time>
      </trkpt>
      <trkpt lat="49.32754" lon="1.3478">
        <ele>141</ele>
        <time>2026-08-11T14:01:43.220Z</time>
      </trkpt>
      <trkpt lat="49.3275" lon="1.34777">
        <ele>141</ele>
        <time>2026-08-11T14:01:47.779Z</time>
      </trkpt>
      <trkpt lat="49.32746" lon="1.34774">
        <ele>141</ele>
        <time>2026-08-11T14:01:52.338Z</time>
      </trkpt>
      <trkpt lat="49.32741" lon="1.34771">
        <ele>141</ele>
        <time>2026-08-11T14:01:56.678Z</time>
      </trkpt>
      <trkpt lat="49.32736" lon="1.34767">
        <ele>142</ele>
        <time>2026-08-11T14:02:00.840Z</time>
      </trkpt>
      <trkpt lat="49.32732" lon="1.34763">
        <ele>142</ele>
        <time>2026-08-11T14:02:05.335Z</time>
      </trkpt>
      <trkpt lat="49.32726" lon="1.34757">
        <ele>142</ele>
        <time>2026-08-11T14:02:46.161Z</time>
      </trkpt>
      <trkpt lat="49.32726" lon="1.34753">
        <ele>142</ele>
        <time>2026-08-11T14:02:50.203Z</time>
      </trkpt>
      <trkpt lat="49.32725" lon="1.34746">
        <ele>142</ele>
        <time>2026-08-11T14:02:54.722Z</time>
      </trkpt>
      <trkpt lat="49.32724" lon="1.3474">
        <ele>142</ele>
        <time>2026-08-11T14:02:59.182Z</time>
      </trkpt>
      <trkpt lat="49.32723" lon="1.34733">
        <ele>142</ele>
        <time>2026-08-11T14:03:03.721Z</time>
      </trkpt>
      <trkpt lat="49.32721" lon="1.34732">
        <ele>142</ele>
        <time>2026-08-11T14:03:12.330Z</time>
      </trkpt>
      <trkpt lat="49.32721" lon="1.34733">
        <ele>142</ele>
        <time>2026-08-11T14:03:16.703Z</time>
      </trkpt>
      <trkpt lat="49.3272" lon="1.34736">
        <ele>142</ele>
        <time>2026-08-11T14:03:21.339Z</time>
      </trkpt>
      <trkpt lat="49.32721" lon="1.3474">
        <ele>142</ele>
        <time>2026-08-11T14:03:25.841Z</time>
      </trkpt>
      <trkpt lat="49.32721" lon="1.34744">
        <ele>142</ele>
        <time>2026-08-11T14:03:30.339Z</time>
      </trkpt>
      <trkpt lat="49.32724" lon="1.34741">
        <ele>142</ele>
        <time>2026-08-11T14:04:29.343Z</time>
      </trkpt>
      <trkpt lat="49.32724" lon="1.34741">
        <ele>142</ele>
        <time>2026-08-11T14:04:34.329Z</time>
      </trkpt>
      <trkpt lat="49.32725" lon="1.34742">
        <ele>142</ele>
        <time>2026-08-11T14:04:39.329Z</time>
      </trkpt>
      <trkpt lat="49.32726" lon="1.34737">
        <ele>142</ele>
        <time>2026-08-11T14:04:43.333Z</time>
      </trkpt>
      <trkpt lat="49.32726" lon="1.34729">
        <ele>142</ele>
        <time>2026-08-11T14:04:47.515Z</time>
      </trkpt>
      <trkpt lat="49.32723" lon="1.3472">
        <ele>142</ele>
        <time>2026-08-11T14:12:13.333Z</time>
      </trkpt>
      <trkpt lat="49.32717" lon="1.34722">
        <ele>142</ele>
        <time>2026-08-11T14:12:18.329Z</time>
      </trkpt>
      <trkpt lat="49.32713" lon="1.3472">
        <ele>142</ele>
        <time>2026-08-11T14:12:22.334Z</time>
      </trkpt>
      <trkpt lat="49.32708" lon="1.34719">
        <ele>141</ele>
        <time>2026-08-11T14:12:26.680Z</time>
      </trkpt>
      <trkpt lat="49.32704" lon="1.3472">
        <ele>141</ele>
        <time>2026-08-11T14:12:30.901Z</time>
      </trkpt>
      <trkpt lat="49.327" lon="1.34721">
        <ele>141</ele>
        <time>2026-08-11T14:12:35.222Z</time>
      </trkpt>
      <trkpt lat="49.32695" lon="1.34722">
        <ele>141</ele>
        <time>2026-08-11T14:12:39.304Z</time>
      </trkpt>
      <trkpt lat="49.32691" lon="1.34724">
        <ele>141</ele>
        <time>2026-08-11T14:12:43.316Z</time>
      </trkpt>
      <trkpt lat="49.32686" lon="1.34724">
        <ele>141</ele>
        <time>2026-08-11T14:12:47.340Z</time>
      </trkpt>
      <trkpt lat="49.32681" lon="1.34725">
        <ele>141</ele>
        <time>2026-08-11T14:12:51.679Z</time>
      </trkpt>
      <trkpt lat="49.32676" lon="1.34727">
        <ele>141</ele>
        <time>2026-08-11T14:12:55.841Z</time>
      </trkpt>
      <trkpt lat="49.32671" lon="1.34729">
        <ele>141</ele>
        <time>2026-08-11T14:12:59.903Z</time>
      </trkpt>
      <trkpt lat="49.32666" lon="1.34732">
        <ele>141</ele>
        <time>2026-08-11T14:13:04.094Z</time>
      </trkpt>
      <trkpt lat="49.32661" lon="1.34734">
        <ele>141</ele>
        <time>2026-08-11T14:13:08.157Z</time>
      </trkpt>
      <trkpt lat="49.32656" lon="1.34737">
        <ele>142</ele>
        <time>2026-08-11T14:13:12.636Z</time>
      </trkpt>
      <trkpt lat="49.32652" lon="1.3474">
        <ele>141</ele>
        <time>2026-08-11T14:13:16.698Z</time>
      </trkpt>
      <trkpt lat="49.32646" lon="1.34742">
        <ele>141</ele>
        <time>2026-08-11T14:13:21.198Z</time>
      </trkpt>
      <trkpt lat="49.3264" lon="1.34744">
        <ele>141</ele>
        <time>2026-08-11T14:13:25.796Z</time>
      </trkpt>
      <trkpt lat="49.32635" lon="1.34743">
        <ele>141</ele>
        <time>2026-08-11T14:13:30.329Z</time>
      </trkpt>
      <trkpt lat="49.3263" lon="1.34741">
        <ele>141</ele>
        <time>2026-08-11T14:13:34.398Z</time>
      </trkpt>
      <trkpt lat="49.32626" lon="1.34738">
        <ele>141</ele>
        <time>2026-08-11T14:13:38.619Z</time>
      </trkpt>
      <trkpt lat="49.32622" lon="1.34735">
        <ele>141</ele>
        <time>2026-08-11T14:13:42.621Z</time>
      </trkpt>
      <trkpt lat="49.32618" lon="1.34731">
        <ele>141</ele>
        <time>2026-08-11T14:13:46.803Z</time>
      </trkpt>
      <trkpt lat="49.32614" lon="1.34728">
        <ele>141</ele>
        <time>2026-08-11T14:13:50.875Z</time>
      </trkpt>
      <trkpt lat="49.3261" lon="1.34726">
        <ele>141</ele>
        <time>2026-08-11T14:13:55.096Z</time>
      </trkpt>
      <trkpt lat="49.32605" lon="1.34722">
        <ele>141</ele>
        <time>2026-08-11T14:13:59.258Z</time>
      </trkpt>
      <trkpt lat="49.326" lon="1.34718">
        <ele>141</ele>
        <time>2026-08-11T14:14:03.341Z</time>
      </trkpt>
      <trkpt lat="49.32595" lon="1.34714">
        <ele>141</ele>
        <time>2026-08-11T14:14:07.502Z</time>
      </trkpt>
      <trkpt lat="49.3259" lon="1.34713">
        <ele>141</ele>
        <time>2026-08-11T14:14:11.623Z</time>
      </trkpt>
      <trkpt lat="49.32586" lon="1.34712">
        <ele>141</ele>
        <time>2026-08-11T14:14:15.696Z</time>
      </trkpt>
      <trkpt lat="49.32581" lon="1.3471">
        <ele>141</ele>
        <time>2026-08-11T14:14:19.957Z</time>
      </trkpt>
      <trkpt lat="49.32577" lon="1.34708">
        <ele>141</ele>
        <time>2026-08-11T14:14:24.158Z</time>
      </trkpt>
      <trkpt lat="49.32573" lon="1.34707">
        <ele>141</ele>
        <time>2026-08-11T14:14:28.329Z</time>
      </trkpt>
      <trkpt lat="49.32568" lon="1.34705">
        <ele>142</ele>
        <time>2026-08-11T14:14:32.541Z</time>
      </trkpt>
      <trkpt lat="49.32564" lon="1.34704">
        <ele>142</ele>
        <time>2026-08-11T14:14:36.762Z</time>
      </trkpt>
      <trkpt lat="49.3256" lon="1.34703">
        <ele>142</ele>
        <time>2026-08-11T14:14:40.904Z</time>
      </trkpt>
      <trkpt lat="49.32556" lon="1.34705">
        <ele>142</ele>
        <time>2026-08-11T14:14:45.336Z</time>
      </trkpt>
      <trkpt lat="49.32551" lon="1.34705">
        <ele>142</ele>
        <time>2026-08-11T14:14:49.723Z</time>
      </trkpt>
      <trkpt lat="49.32546" lon="1.34702">
        <ele>142</ele>
        <time>2026-08-11T14:14:54.024Z</time>
      </trkpt>
      <trkpt lat="49.3254" lon="1.34699">
        <ele>142</ele>
        <time>2026-08-11T14:14:58.623Z</time>
      </trkpt>
      <trkpt lat="49.32535" lon="1.34697">
        <ele>142</ele>
        <time>2026-08-11T14:15:02.715Z</time>
      </trkpt>
      <trkpt lat="49.3253" lon="1.34693">
        <ele>142</ele>
        <time>2026-08-11T14:15:06.757Z</time>
      </trkpt>
      <trkpt lat="49.32525" lon="1.34692">
        <ele>142</ele>
        <time>2026-08-11T14:15:10.899Z</time>
      </trkpt>
      <trkpt lat="49.32521" lon="1.3469">
        <ele>142</ele>
        <time>2026-08-11T14:15:15.160Z</time>
      </trkpt>
      <trkpt lat="49.32517" lon="1.3469">
        <ele>142</ele>
        <time>2026-08-11T14:15:19.337Z</time>
      </trkpt>
      <trkpt lat="49.32513" lon="1.34689">
        <ele>144</ele>
        <time>2026-08-11T14:15:23.622Z</time>
      </trkpt>
      <trkpt lat="49.32507" lon="1.34689">
        <ele>144</ele>
        <time>2026-08-11T14:15:28.320Z</time>
      </trkpt>
      <trkpt lat="49.32503" lon="1.34688">
        <ele>144</ele>
        <time>2026-08-11T14:15:32.336Z</time>
      </trkpt>
      <trkpt lat="49.32498" lon="1.34687">
        <ele>144</ele>
        <time>2026-08-11T14:15:36.822Z</time>
      </trkpt>
      <trkpt lat="49.32493" lon="1.34686">
        <ele>144</ele>
        <time>2026-08-11T14:15:40.944Z</time>
      </trkpt>
      <trkpt lat="49.32489" lon="1.34683">
        <ele>144</ele>
        <time>2026-08-11T14:15:44.996Z</time>
      </trkpt>
      <trkpt lat="49.32484" lon="1.34679">
        <ele>144</ele>
        <time>2026-08-11T14:15:49.277Z</time>
      </trkpt>
      <trkpt lat="49.32479" lon="1.34676">
        <ele>144</ele>
        <time>2026-08-11T14:15:53.598Z</time>
      </trkpt>
      <trkpt lat="49.32472" lon="1.34671">
        <ele>144</ele>
        <time>2026-08-11T14:16:12.324Z</time>
      </trkpt>
      <trkpt lat="49.32471" lon="1.34669">
        <ele>144</ele>
        <time>2026-08-11T14:16:16.337Z</time>
      </trkpt>
      <trkpt lat="49.32465" lon="1.34664">
        <ele>144</ele>
        <time>2026-08-11T14:16:20.683Z</time>
      </trkpt>
      <trkpt lat="49.32459" lon="1.34668">
        <ele>144</ele>
        <time>2026-08-11T14:16:24.775Z</time>
      </trkpt>
      <trkpt lat="49.32455" lon="1.34668">
        <ele>144</ele>
        <time>2026-08-11T14:16:28.957Z</time>
      </trkpt>
      <trkpt lat="49.32452" lon="1.34668">
        <ele>144</ele>
        <time>2026-08-11T14:16:33.297Z</time>
      </trkpt>
      <trkpt lat="49.32451" lon="1.34673">
        <ele>144</ele>
        <time>2026-08-11T14:16:37.335Z</time>
      </trkpt>
      <trkpt lat="49.32449" lon="1.34675">
        <ele>144</ele>
        <time>2026-08-11T14:16:41.700Z</time>
      </trkpt>
      <trkpt lat="49.32444" lon="1.34678">
        <ele>144</ele>
        <time>2026-08-11T14:16:46.080Z</time>
      </trkpt>
      <trkpt lat="49.32439" lon="1.34679">
        <ele>144</ele>
        <time>2026-08-11T14:16:50.142Z</time>
      </trkpt>
      <trkpt lat="49.32431" lon="1.34654">
        <ele>144</ele>
        <time>2026-08-11T14:16:54.335Z</time>
      </trkpt>
      <trkpt lat="49.32426" lon="1.34649">
        <ele>145</ele>
        <time>2026-08-11T14:16:58.455Z</time>
      </trkpt>
      <trkpt lat="49.32421" lon="1.34646">
        <ele>145</ele>
        <time>2026-08-11T14:17:02.676Z</time>
      </trkpt>
      <trkpt lat="49.32417" lon="1.34645">
        <ele>145</ele>
        <time>2026-08-11T14:17:07.295Z</time>
      </trkpt>
      <trkpt lat="49.32412" lon="1.34644">
        <ele>145</ele>
        <time>2026-08-11T14:17:11.377Z</time>
      </trkpt>
      <trkpt lat="49.32407" lon="1.34641">
        <ele>145</ele>
        <time>2026-08-11T14:17:16.015Z</time>
      </trkpt>
      <trkpt lat="49.32403" lon="1.34638">
        <ele>145</ele>
        <time>2026-08-11T14:17:20.296Z</time>
      </trkpt>
      <trkpt lat="49.32399" lon="1.34636">
        <ele>146</ele>
        <time>2026-08-11T14:17:24.347Z</time>
      </trkpt>
      <trkpt lat="49.32397" lon="1.34637">
        <ele>146</ele>
        <time>2026-08-11T14:17:29.331Z</time>
      </trkpt>
      <trkpt lat="49.32395" lon="1.34636">
        <ele>146</ele>
        <time>2026-08-11T14:17:33.516Z</time>
      </trkpt>
      <trkpt lat="49.3239" lon="1.34632">
        <ele>146</ele>
        <time>2026-08-11T14:17:37.558Z</time>
      </trkpt>
      <trkpt lat="49.32385" lon="1.34628">
        <ele>146</ele>
        <time>2026-08-11T14:17:41.919Z</time>
      </trkpt>
      <trkpt lat="49.32377" lon="1.34612">
        <ele>148</ele>
        <time>2026-08-11T14:18:26.327Z</time>
      </trkpt>
      <trkpt lat="49.32377" lon="1.34612">
        <ele>148</ele>
        <time>2026-08-11T14:18:30.855Z</time>
      </trkpt>
      <trkpt lat="49.32376" lon="1.34612">
        <ele>148</ele>
        <time>2026-08-11T14:18:35.175Z</time>
      </trkpt>
      <trkpt lat="49.32375" lon="1.34612">
        <ele>148</ele>
        <time>2026-08-11T14:18:39.326Z</time>
      </trkpt>
      <trkpt lat="49.32375" lon="1.34612">
        <ele>150</ele>
        <time>2026-08-11T14:18:43.330Z</time>
      </trkpt>
      <trkpt lat="49.32374" lon="1.34611">
        <ele>150</ele>
        <time>2026-08-11T14:19:14.656Z</time>
      </trkpt>
      <trkpt lat="49.32373" lon="1.34611">
        <ele>150</ele>
        <time>2026-08-11T14:19:19.332Z</time>
      </trkpt>
      <trkpt lat="49.32373" lon="1.34611">
        <ele>150</ele>
        <time>2026-08-11T14:19:24.334Z</time>
      </trkpt>
      <trkpt lat="49.32371" lon="1.3461">
        <ele>150</ele>
        <time>2026-08-11T14:19:28.541Z</time>
      </trkpt>
      <trkpt lat="49.32366" lon="1.34605">
        <ele>150</ele>
        <time>2026-08-11T14:19:32.662Z</time>
      </trkpt>
      <trkpt lat="49.32362" lon="1.34605">
        <ele>150</ele>
        <time>2026-08-11T14:19:37.324Z</time>
      </trkpt>
      <trkpt lat="49.32356" lon="1.34606">
        <ele>150</ele>
        <time>2026-08-11T14:19:41.780Z</time>
      </trkpt>
      <trkpt lat="49.3235" lon="1.34608">
        <ele>150</ele>
        <time>2026-08-11T14:19:45.902Z</time>
      </trkpt>
      <trkpt lat="49.32345" lon="1.34608">
        <ele>152</ele>
        <time>2026-08-11T14:19:50.143Z</time>
      </trkpt>
      <trkpt lat="49.32333" lon="1.34607">
        <ele>152</ele>
        <time>2026-08-11T14:20:06.660Z</time>
      </trkpt>
      <trkpt lat="49.32328" lon="1.34606">
        <ele>152</ele>
        <time>2026-08-11T14:20:10.901Z</time>
      </trkpt>
      <trkpt lat="49.32326" lon="1.34609">
        <ele>152</ele>
        <time>2026-08-11T14:20:15.182Z</time>
      </trkpt>
      <trkpt lat="49.32322" lon="1.34609">
        <ele>152</ele>
        <time>2026-08-11T14:20:19.327Z</time>
      </trkpt>
      <trkpt lat="49.32316" lon="1.34608">
        <ele>152</ele>
        <time>2026-08-11T14:20:23.555Z</time>
      </trkpt>
      <trkpt lat="49.32309" lon="1.34605">
        <ele>152</ele>
        <time>2026-08-11T14:20:27.776Z</time>
      </trkpt>
      <trkpt lat="49.32303" lon="1.34601">
        <ele>152</ele>
        <time>2026-08-11T14:20:31.858Z</time>
      </trkpt>
      <trkpt lat="49.32298" lon="1.34598">
        <ele>152</ele>
        <time>2026-08-11T14:20:36.139Z</time>
      </trkpt>
      <trkpt lat="49.32293" lon="1.34597">
        <ele>154</ele>
        <time>2026-08-11T14:20:40.260Z</time>
      </trkpt>
      <trkpt lat="49.32288" lon="1.34595">
        <ele>154</ele>
        <time>2026-08-11T14:20:44.329Z</time>
      </trkpt>
      <trkpt lat="49.32283" lon="1.34594">
        <ele>154</ele>
        <time>2026-08-11T14:20:48.563Z</time>
      </trkpt>
      <trkpt lat="49.32279" lon="1.34594">
        <ele>154</ele>
        <time>2026-08-11T14:20:52.755Z</time>
      </trkpt>
      <trkpt lat="49.32274" lon="1.34593">
        <ele>154</ele>
        <time>2026-08-11T14:20:56.956Z</time>
      </trkpt>
      <trkpt lat="49.32268" lon="1.34593">
        <ele>154</ele>
        <time>2026-08-11T14:21:01.157Z</time>
      </trkpt>
      <trkpt lat="49.32262" lon="1.34594">
        <ele>154</ele>
        <time>2026-08-11T14:21:05.895Z</time>
      </trkpt>
      <trkpt lat="49.32259" lon="1.34594">
        <ele>154</ele>
        <time>2026-08-11T14:21:09.937Z</time>
      </trkpt>
      <trkpt lat="49.32254" lon="1.34595">
        <ele>154</ele>
        <time>2026-08-11T14:21:14.198Z</time>
      </trkpt>
      <trkpt lat="49.32248" lon="1.34596">
        <ele>154</ele>
        <time>2026-08-11T14:21:18.876Z</time>
      </trkpt>
      <trkpt lat="49.32242" lon="1.34596">
        <ele>154</ele>
        <time>2026-08-11T14:21:22.958Z</time>
      </trkpt>
      <trkpt lat="49.32237" lon="1.34597">
        <ele>154</ele>
        <time>2026-08-11T14:21:27.060Z</time>
      </trkpt>
      <trkpt lat="49.32232" lon="1.34596">
        <ele>154</ele>
        <time>2026-08-11T14:21:31.261Z</time>
      </trkpt>
      <trkpt lat="49.32228" lon="1.34596">
        <ele>154</ele>
        <time>2026-08-11T14:21:35.330Z</time>
      </trkpt>
      <trkpt lat="49.32223" lon="1.346">
        <ele>153</ele>
        <time>2026-08-11T14:21:39.564Z</time>
      </trkpt>
      <trkpt lat="49.3222" lon="1.34606">
        <ele>153</ele>
        <time>2026-08-11T14:21:43.855Z</time>
      </trkpt>
      <trkpt lat="49.32214" lon="1.34607">
        <ele>153</ele>
        <time>2026-08-11T14:21:47.996Z</time>
      </trkpt>
      <trkpt lat="49.32209" lon="1.34609">
        <ele>153</ele>
        <time>2026-08-11T14:21:52.317Z</time>
      </trkpt>
      <trkpt lat="49.32205" lon="1.34609">
        <ele>153</ele>
        <time>2026-08-11T14:21:56.716Z</time>
      </trkpt>
      <trkpt lat="49.32202" lon="1.34608">
        <ele>153</ele>
        <time>2026-08-11T14:22:00.838Z</time>
      </trkpt>
      <trkpt lat="49.32199" lon="1.346">
        <ele>153</ele>
        <time>2026-08-11T14:22:05.198Z</time>
      </trkpt>
      <trkpt lat="49.32201" lon="1.34592">
        <ele>154</ele>
        <time>2026-08-11T14:22:09.618Z</time>
      </trkpt>
      <trkpt lat="49.32205" lon="1.34586">
        <ele>154</ele>
        <time>2026-08-11T14:22:13.740Z</time>
      </trkpt>
      <trkpt lat="49.32208" lon="1.3458">
        <ele>154</ele>
        <time>2026-08-11T14:22:17.881Z</time>
      </trkpt>
      <trkpt lat="49.3221" lon="1.34573">
        <ele>154</ele>
        <time>2026-08-11T14:22:22.063Z</time>
      </trkpt>
      <trkpt lat="49.32213" lon="1.34567">
        <ele>155</ele>
        <time>2026-08-11T14:22:26.244Z</time>
      </trkpt>
      <trkpt lat="49.32217" lon="1.34562">
        <ele>155</ele>
        <time>2026-08-11T14:22:30.324Z</time>
      </trkpt>
      <trkpt lat="49.3222" lon="1.34556">
        <ele>155</ele>
        <time>2026-08-11T14:22:34.756Z</time>
      </trkpt>
      <trkpt lat="49.32221" lon="1.34549">
        <ele>155</ele>
        <time>2026-08-11T14:22:39.036Z</time>
      </trkpt>
      <trkpt lat="49.32221" lon="1.34542">
        <ele>155</ele>
        <time>2026-08-11T14:22:43.138Z</time>
      </trkpt>
      <trkpt lat="49.32224" lon="1.34534">
        <ele>155</ele>
        <time>2026-08-11T14:22:47.337Z</time>
      </trkpt>
      <trkpt lat="49.32227" lon="1.34526">
        <ele>155</ele>
        <time>2026-08-11T14:22:51.719Z</time>
      </trkpt>
      <trkpt lat="49.3223" lon="1.34519">
        <ele>155</ele>
        <time>2026-08-11T14:22:56.040Z</time>
      </trkpt>
      <trkpt lat="49.32233" lon="1.34513">
        <ele>155</ele>
        <time>2026-08-11T14:23:00.323Z</time>
      </trkpt>
      <trkpt lat="49.32235" lon="1.34506">
        <ele>155</ele>
        <time>2026-08-11T14:23:04.581Z</time>
      </trkpt>
      <trkpt lat="49.32236" lon="1.34499">
        <ele>155</ele>
        <time>2026-08-11T14:23:08.723Z</time>
      </trkpt>
      <trkpt lat="49.32234" lon="1.34492">
        <ele>155</ele>
        <time>2026-08-11T14:23:12.963Z</time>
      </trkpt>
      <trkpt lat="49.32232" lon="1.34486">
        <ele>154</ele>
        <time>2026-08-11T14:23:17.214Z</time>
      </trkpt>
      <trkpt lat="49.3223" lon="1.3448">
        <ele>154</ele>
        <time>2026-08-11T14:23:21.237Z</time>
      </trkpt>
      <trkpt lat="49.32231" lon="1.34473">
        <ele>154</ele>
        <time>2026-08-11T14:23:25.330Z</time>
      </trkpt>
      <trkpt lat="49.32237" lon="1.34467">
        <ele>156</ele>
        <time>2026-08-11T14:23:29.480Z</time>
      </trkpt>
      <trkpt lat="49.32243" lon="1.34461">
        <ele>156</ele>
        <time>2026-08-11T14:23:33.721Z</time>
      </trkpt>
      <trkpt lat="49.3225" lon="1.34458">
        <ele>155</ele>
        <time>2026-08-11T14:23:37.902Z</time>
      </trkpt>
      <trkpt lat="49.32255" lon="1.34453">
        <ele>155</ele>
        <time>2026-08-11T14:23:42.143Z</time>
      </trkpt>
      <trkpt lat="49.32259" lon="1.34448">
        <ele>155</ele>
        <time>2026-08-11T14:23:46.324Z</time>
      </trkpt>
      <trkpt lat="49.32263" lon="1.34441">
        <ele>155</ele>
        <time>2026-08-11T14:23:50.824Z</time>
      </trkpt>
      <trkpt lat="49.32266" lon="1.34435">
        <ele>156</ele>
        <time>2026-08-11T14:23:55.035Z</time>
      </trkpt>
      <trkpt lat="49.32268" lon="1.34429">
        <ele>155</ele>
        <time>2026-08-11T14:23:59.037Z</time>
      </trkpt>
      <trkpt lat="49.32271" lon="1.34422">
        <ele>155</ele>
        <time>2026-08-11T14:24:03.258Z</time>
      </trkpt>
      <trkpt lat="49.32275" lon="1.34417">
        <ele>155</ele>
        <time>2026-08-11T14:24:07.459Z</time>
      </trkpt>
      <trkpt lat="49.32278" lon="1.34411">
        <ele>155</ele>
        <time>2026-08-11T14:24:11.740Z</time>
      </trkpt>
      <trkpt lat="49.32281" lon="1.34405">
        <ele>155</ele>
        <time>2026-08-11T14:24:15.862Z</time>
      </trkpt>
      <trkpt lat="49.32286" lon="1.344">
        <ele>154</ele>
        <time>2026-08-11T14:24:20.103Z</time>
      </trkpt>
      <trkpt lat="49.3229" lon="1.34395">
        <ele>154</ele>
        <time>2026-08-11T14:24:24.175Z</time>
      </trkpt>
      <trkpt lat="49.32293" lon="1.34388">
        <ele>154</ele>
        <time>2026-08-11T14:24:28.296Z</time>
      </trkpt>
      <trkpt lat="49.32296" lon="1.34382">
        <ele>154</ele>
        <time>2026-08-11T14:24:32.458Z</time>
      </trkpt>
      <trkpt lat="49.323" lon="1.34377">
        <ele>154</ele>
        <time>2026-08-11T14:24:36.559Z</time>
      </trkpt>
      <trkpt lat="49.32304" lon="1.34371">
        <ele>154</ele>
        <time>2026-08-11T14:24:40.741Z</time>
      </trkpt>
      <trkpt lat="49.32307" lon="1.34366">
        <ele>154</ele>
        <time>2026-08-11T14:24:45.001Z</time>
      </trkpt>
      <trkpt lat="49.32309" lon="1.3436">
        <ele>154</ele>
        <time>2026-08-11T14:24:49.183Z</time>
      </trkpt>
      <trkpt lat="49.32312" lon="1.34355">
        <ele>154</ele>
        <time>2026-08-11T14:24:53.295Z</time>
      </trkpt>
      <trkpt lat="49.32314" lon="1.3435">
        <ele>154</ele>
        <time>2026-08-11T14:24:57.396Z</time>
      </trkpt>
      <trkpt lat="49.32318" lon="1.34345">
        <ele>154</ele>
        <time>2026-08-11T14:25:01.657Z</time>
      </trkpt>
      <trkpt lat="49.32321" lon="1.3434">
        <ele>152</ele>
        <time>2026-08-11T14:25:05.779Z</time>
      </trkpt>
      <trkpt lat="49.32324" lon="1.34335">
        <ele>152</ele>
        <time>2026-08-11T14:25:09.841Z</time>
      </trkpt>
      <trkpt lat="49.32328" lon="1.34331">
        <ele>152</ele>
        <time>2026-08-11T14:25:13.923Z</time>
      </trkpt>
      <trkpt lat="49.32332" lon="1.34325">
        <ele>152</ele>
        <time>2026-08-11T14:25:18.074Z</time>
      </trkpt>
      <trkpt lat="49.32337" lon="1.34318">
        <ele>152</ele>
        <time>2026-08-11T14:25:22.216Z</time>
      </trkpt>
      <trkpt lat="49.32341" lon="1.34313">
        <ele>152</ele>
        <time>2026-08-11T14:25:26.331Z</time>
      </trkpt>
      <trkpt lat="49.32343" lon="1.34306">
        <ele>152</ele>
        <time>2026-08-11T14:25:30.420Z</time>
      </trkpt>
      <trkpt lat="49.32346" lon="1.34299">
        <ele>152</ele>
        <time>2026-08-11T14:25:34.839Z</time>
      </trkpt>
      <trkpt lat="49.32349" lon="1.34292">
        <ele>150</ele>
        <time>2026-08-11T14:25:38.881Z</time>
      </trkpt>
      <trkpt lat="49.3235" lon="1.34285">
        <ele>150</ele>
        <time>2026-08-11T14:25:43.142Z</time>
      </trkpt>
      <trkpt lat="49.32349" lon="1.34277">
        <ele>150</ele>
        <time>2026-08-11T14:25:47.194Z</time>
      </trkpt>
      <trkpt lat="49.32348" lon="1.34269">
        <ele>150</ele>
        <time>2026-08-11T14:25:51.329Z</time>
      </trkpt>
      <trkpt lat="49.32348" lon="1.34263">
        <ele>149</ele>
        <time>2026-08-11T14:25:55.537Z</time>
      </trkpt>
      <trkpt lat="49.32348" lon="1.34256">
        <ele>149</ele>
        <time>2026-08-11T14:25:59.877Z</time>
      </trkpt>
      <trkpt lat="49.32351" lon="1.34249">
        <ele>149</ele>
        <time>2026-08-11T14:26:03.999Z</time>
      </trkpt>
      <trkpt lat="49.32357" lon="1.34245">
        <ele>149</ele>
        <time>2026-08-11T14:26:08.299Z</time>
      </trkpt>
      <trkpt lat="49.32361" lon="1.3424">
        <ele>149</ele>
        <time>2026-08-11T14:26:12.938Z</time>
      </trkpt>
      <trkpt lat="49.32363" lon="1.34235">
        <ele>148</ele>
        <time>2026-08-11T14:26:17.039Z</time>
      </trkpt>
      <trkpt lat="49.32364" lon="1.34229">
        <ele>148</ele>
        <time>2026-08-11T14:26:21.221Z</time>
      </trkpt>
      <trkpt lat="49.32366" lon="1.34223">
        <ele>148</ele>
        <time>2026-08-11T14:26:25.332Z</time>
      </trkpt>
      <trkpt lat="49.3237" lon="1.34217">
        <ele>148</ele>
        <time>2026-08-11T14:26:29.722Z</time>
      </trkpt>
      <trkpt lat="49.32374" lon="1.34211">
        <ele>148</ele>
        <time>2026-08-11T14:26:33.735Z</time>
      </trkpt>
      <trkpt lat="49.32378" lon="1.34207">
        <ele>147</ele>
        <time>2026-08-11T14:26:37.995Z</time>
      </trkpt>
      <trkpt lat="49.32382" lon="1.34202">
        <ele>147</ele>
        <time>2026-08-11T14:26:42.038Z</time>
      </trkpt>
      <trkpt lat="49.32383" lon="1.34196">
        <ele>147</ele>
        <time>2026-08-11T14:26:46.219Z</time>
      </trkpt>
      <trkpt lat="49.32386" lon="1.34193">
        <ele>147</ele>
        <time>2026-08-11T14:26:50.324Z</time>
      </trkpt>
      <trkpt lat="49.3239" lon="1.34188">
        <ele>147</ele>
        <time>2026-08-11T14:26:54.330Z</time>
      </trkpt>
      <trkpt lat="49.32394" lon="1.34183">
        <ele>147</ele>
        <time>2026-08-11T14:26:58.663Z</time>
      </trkpt>
      <trkpt lat="49.324" lon="1.34178">
        <ele>148</ele>
        <time>2026-08-11T14:27:02.894Z</time>
      </trkpt>
      <trkpt lat="49.32406" lon="1.34175">
        <ele>146</ele>
        <time>2026-08-11T14:27:07.036Z</time>
      </trkpt>
      <trkpt lat="49.32412" lon="1.34172">
        <ele>146</ele>
        <time>2026-08-11T14:27:11.217Z</time>
      </trkpt>
      <trkpt lat="49.32416" lon="1.34169">
        <ele>146</ele>
        <time>2026-08-11T14:27:15.326Z</time>
      </trkpt>
      <trkpt lat="49.32418" lon="1.34163">
        <ele>146</ele>
        <time>2026-08-11T14:27:19.619Z</time>
      </trkpt>
      <trkpt lat="49.32421" lon="1.34158">
        <ele>146</ele>
        <time>2026-08-11T14:27:23.979Z</time>
      </trkpt>
      <trkpt lat="49.32426" lon="1.34156">
        <ele>146</ele>
        <time>2026-08-11T14:27:28.200Z</time>
      </trkpt>
      <trkpt lat="49.32428" lon="1.3415">
        <ele>144</ele>
        <time>2026-08-11T14:27:32.223Z</time>
      </trkpt>
      <trkpt lat="49.3243" lon="1.34146">
        <ele>144</ele>
        <time>2026-08-11T14:27:36.331Z</time>
      </trkpt>
      <trkpt lat="49.32435" lon="1.34141">
        <ele>144</ele>
        <time>2026-08-11T14:27:40.595Z</time>
      </trkpt>
      <trkpt lat="49.32439" lon="1.34137">
        <ele>144</ele>
        <time>2026-08-11T14:27:45.329Z</time>
      </trkpt>
      <trkpt lat="49.3244" lon="1.34132">
        <ele>144</ele>
        <time>2026-08-11T14:27:49.842Z</time>
      </trkpt>
      <trkpt lat="49.32444" lon="1.34127">
        <ele>144</ele>
        <time>2026-08-11T14:27:54.182Z</time>
      </trkpt>
      <trkpt lat="49.32447" lon="1.34122">
        <ele>143</ele>
        <time>2026-08-11T14:27:58.264Z</time>
      </trkpt>
      <trkpt lat="49.32452" lon="1.34116">
        <ele>143</ele>
        <time>2026-08-11T14:28:02.296Z</time>
      </trkpt>
      <trkpt lat="49.3246" lon="1.34113">
        <ele>143</ele>
        <time>2026-08-11T14:28:06.517Z</time>
      </trkpt>
      <trkpt lat="49.32466" lon="1.34115">
        <ele>143</ele>
        <time>2026-08-11T14:28:10.718Z</time>
      </trkpt>
      <trkpt lat="49.32473" lon="1.34116">
        <ele>143</ele>
        <time>2026-08-11T14:28:14.900Z</time>
      </trkpt>
      <trkpt lat="49.32477" lon="1.34113">
        <ele>143</ele>
        <time>2026-08-11T14:28:19.101Z</time>
      </trkpt>
      <trkpt lat="49.32481" lon="1.34108">
        <ele>143</ele>
        <time>2026-08-11T14:28:23.242Z</time>
      </trkpt>
      <trkpt lat="49.32485" lon="1.34105">
        <ele>143</ele>
        <time>2026-08-11T14:28:27.563Z</time>
      </trkpt>
      <trkpt lat="49.3249" lon="1.34102">
        <ele>144</ele>
        <time>2026-08-11T14:28:31.694Z</time>
      </trkpt>
      <trkpt lat="49.32495" lon="1.34099">
        <ele>144</ele>
        <time>2026-08-11T14:28:35.836Z</time>
      </trkpt>
      <trkpt lat="49.325" lon="1.34095">
        <ele>143</ele>
        <time>2026-08-11T14:28:40.116Z</time>
      </trkpt>
      <trkpt lat="49.32503" lon="1.34091">
        <ele>143</ele>
        <time>2026-08-11T14:28:44.330Z</time>
      </trkpt>
      <trkpt lat="49.32507" lon="1.34087">
        <ele>143</ele>
        <time>2026-08-11T14:28:48.499Z</time>
      </trkpt>
      <trkpt lat="49.32511" lon="1.34083">
        <ele>143</ele>
        <time>2026-08-11T14:28:52.760Z</time>
      </trkpt>
      <trkpt lat="49.32515" lon="1.3408">
        <ele>144</ele>
        <time>2026-08-11T14:28:56.921Z</time>
      </trkpt>
      <trkpt lat="49.3252" lon="1.34077">
        <ele>144</ele>
        <time>2026-08-11T14:29:01.023Z</time>
      </trkpt>
      <trkpt lat="49.32524" lon="1.34073">
        <ele>144</ele>
        <time>2026-08-11T14:29:05.284Z</time>
      </trkpt>
      <trkpt lat="49.32527" lon="1.34067">
        <ele>144</ele>
        <time>2026-08-11T14:29:09.415Z</time>
      </trkpt>
      <trkpt lat="49.3253" lon="1.34061">
        <ele>144</ele>
        <time>2026-08-11T14:29:13.676Z</time>
      </trkpt>
      <trkpt lat="49.32532" lon="1.34053">
        <ele>144</ele>
        <time>2026-08-11T14:29:17.758Z</time>
      </trkpt>
      <trkpt lat="49.32534" lon="1.34047">
        <ele>144</ele>
        <time>2026-08-11T14:29:22.038Z</time>
      </trkpt>
      <trkpt lat="49.32538" lon="1.34039">
        <ele>144</ele>
        <time>2026-08-11T14:29:26.120Z</time>
      </trkpt>
      <trkpt lat="49.3254" lon="1.3403">
        <ele>144</ele>
        <time>2026-08-11T14:29:30.328Z</time>
      </trkpt>
      <trkpt lat="49.32542" lon="1.34022">
        <ele>144</ele>
        <time>2026-08-11T14:29:34.761Z</time>
      </trkpt>
      <trkpt lat="49.32544" lon="1.34014">
        <ele>144</ele>
        <time>2026-08-11T14:29:39.161Z</time>
      </trkpt>
      <trkpt lat="49.32547" lon="1.34008">
        <ele>144</ele>
        <time>2026-08-11T14:29:43.336Z</time>
      </trkpt>
      <trkpt lat="49.3255" lon="1.34">
        <ele>144</ele>
        <time>2026-08-11T14:29:47.841Z</time>
      </trkpt>
      <trkpt lat="49.32552" lon="1.33995">
        <ele>144</ele>
        <time>2026-08-11T14:29:52.161Z</time>
      </trkpt>
      <trkpt lat="49.32554" lon="1.3399">
        <ele>144</ele>
        <time>2026-08-11T14:29:56.330Z</time>
      </trkpt>
      <trkpt lat="49.32557" lon="1.33985">
        <ele>145</ele>
        <time>2026-08-11T14:30:00.703Z</time>
      </trkpt>
      <trkpt lat="49.32561" lon="1.3398">
        <ele>145</ele>
        <time>2026-08-11T14:30:05.003Z</time>
      </trkpt>
      <trkpt lat="49.32563" lon="1.33974">
        <ele>145</ele>
        <time>2026-08-11T14:30:09.284Z</time>
      </trkpt>
      <trkpt lat="49.32565" lon="1.33968">
        <ele>145</ele>
        <time>2026-08-11T14:30:13.330Z</time>
      </trkpt>
      <trkpt lat="49.3257" lon="1.33962">
        <ele>147</ele>
        <time>2026-08-11T14:30:17.736Z</time>
      </trkpt>
      <trkpt lat="49.32573" lon="1.33954">
        <ele>148</ele>
        <time>2026-08-11T14:30:22.036Z</time>
      </trkpt>
      <trkpt lat="49.32574" lon="1.33947">
        <ele>148</ele>
        <time>2026-08-11T14:30:26.158Z</time>
      </trkpt>
      <trkpt lat="49.32575" lon="1.3394">
        <ele>148</ele>
        <time>2026-08-11T14:30:30.322Z</time>
      </trkpt>
      <trkpt lat="49.32576" lon="1.33933">
        <ele>148</ele>
        <time>2026-08-11T14:30:34.659Z</time>
      </trkpt>
      <trkpt lat="49.32579" lon="1.33928">
        <ele>150</ele>
        <time>2026-08-11T14:30:39Z</time>
      </trkpt>
      <trkpt lat="49.3258" lon="1.33922">
        <ele>150</ele>
        <time>2026-08-11T14:30:43.330Z</time>
      </trkpt>
      <trkpt lat="49.32583" lon="1.33917">
        <ele>150</ele>
        <time>2026-08-11T14:30:47.720Z</time>
      </trkpt>
      <trkpt lat="49.32584" lon="1.33911">
        <ele>150</ele>
        <time>2026-08-11T14:30:51.861Z</time>
      </trkpt>
      <trkpt lat="49.32584" lon="1.33903">
        <ele>150</ele>
        <time>2026-08-11T14:30:56.102Z</time>
      </trkpt>
      <trkpt lat="49.32584" lon="1.33895">
        <ele>152</ele>
        <time>2026-08-11T14:31:00.322Z</time>
      </trkpt>
      <trkpt lat="49.32584" lon="1.33887">
        <ele>152</ele>
        <time>2026-08-11T14:31:04.643Z</time>
      </trkpt>
      <trkpt lat="49.32585" lon="1.3388">
        <ele>152</ele>
        <time>2026-08-11T14:31:08.924Z</time>
      </trkpt>
      <trkpt lat="49.32584" lon="1.33873">
        <ele>154</ele>
        <time>2026-08-11T14:31:13.075Z</time>
      </trkpt>
      <trkpt lat="49.32583" lon="1.33866">
        <ele>154</ele>
        <time>2026-08-11T14:31:17.237Z</time>
      </trkpt>
      <trkpt lat="49.32582" lon="1.33858">
        <ele>154</ele>
        <time>2026-08-11T14:31:21.696Z</time>
      </trkpt>
      <trkpt lat="49.32581" lon="1.33849">
        <ele>154</ele>
        <time>2026-08-11T14:31:25.838Z</time>
      </trkpt>
      <trkpt lat="49.32581" lon="1.33842">
        <ele>155</ele>
        <time>2026-08-11T14:31:30.118Z</time>
      </trkpt>
      <trkpt lat="49.32583" lon="1.33834">
        <ele>155</ele>
        <time>2026-08-11T14:31:34.518Z</time>
      </trkpt>
      <trkpt lat="49.32586" lon="1.33827">
        <ele>155</ele>
        <time>2026-08-11T14:31:38.997Z</time>
      </trkpt>
      <trkpt lat="49.3259" lon="1.33816">
        <ele>156</ele>
        <time>2026-08-11T14:32:22.326Z</time>
      </trkpt>
      <trkpt lat="49.3259" lon="1.33816">
        <ele>156</ele>
        <time>2026-08-11T14:32:27.327Z</time>
      </trkpt>
      <trkpt lat="49.3259" lon="1.33815">
        <ele>156</ele>
        <time>2026-08-11T14:32:32.324Z</time>
      </trkpt>
      <trkpt lat="49.32592" lon="1.33814">
        <ele>156</ele>
        <time>2026-08-11T14:32:36.661Z</time>
      </trkpt>
      <trkpt lat="49.32594" lon="1.33807">
        <ele>156</ele>
        <time>2026-08-11T14:32:41.081Z</time>
      </trkpt>
      <trkpt lat="49.32596" lon="1.33799">
        <ele>156</ele>
        <time>2026-08-11T14:32:45.327Z</time>
      </trkpt>
      <trkpt lat="49.32598" lon="1.33791">
        <ele>155</ele>
        <time>2026-08-11T14:32:49.721Z</time>
      </trkpt>
      <trkpt lat="49.326" lon="1.33783">
        <ele>155</ele>
        <time>2026-08-11T14:32:53.982Z</time>
      </trkpt>
      <trkpt lat="49.32602" lon="1.33776">
        <ele>155</ele>
        <time>2026-08-11T14:32:58.330Z</time>
      </trkpt>
      <trkpt lat="49.32605" lon="1.3377">
        <ele>155</ele>
        <time>2026-08-11T14:33:02.702Z</time>
      </trkpt>
      <trkpt lat="49.32607" lon="1.33763">
        <ele>154</ele>
        <time>2026-08-11T14:33:06.774Z</time>
      </trkpt>
      <trkpt lat="49.32608" lon="1.33757">
        <ele>154</ele>
        <time>2026-08-11T14:33:11.124Z</time>
      </trkpt>
      <trkpt lat="49.3261" lon="1.33751">
        <ele>154</ele>
        <time>2026-08-11T14:33:15.325Z</time>
      </trkpt>
      <trkpt lat="49.32614" lon="1.33744">
        <ele>154</ele>
        <time>2026-08-11T14:33:19.576Z</time>
      </trkpt>
      <trkpt lat="49.32618" lon="1.33738">
        <ele>154</ele>
        <time>2026-08-11T14:33:23.717Z</time>
      </trkpt>
      <trkpt lat="49.32622" lon="1.33732">
        <ele>153</ele>
        <time>2026-08-11T14:33:27.859Z</time>
      </trkpt>
      <trkpt lat="49.32623" lon="1.33726">
        <ele>153</ele>
        <time>2026-08-11T14:33:32.120Z</time>
      </trkpt>
      <trkpt lat="49.32624" lon="1.33719">
        <ele>153</ele>
        <time>2026-08-11T14:33:36.182Z</time>
      </trkpt>
      <trkpt lat="49.32626" lon="1.33714">
        <ele>155</ele>
        <time>2026-08-11T14:33:40.327Z</time>
      </trkpt>
      <trkpt lat="49.3263" lon="1.33708">
        <ele>155</ele>
        <time>2026-08-11T14:33:44.334Z</time>
      </trkpt>
      <trkpt lat="49.32634" lon="1.33704">
        <ele>154</ele>
        <time>2026-08-11T14:33:48.636Z</time>
      </trkpt>
      <trkpt lat="49.32637" lon="1.33699">
        <ele>154</ele>
        <time>2026-08-11T14:33:52.718Z</time>
      </trkpt>
      <trkpt lat="49.3264" lon="1.33694">
        <ele>154</ele>
        <time>2026-08-11T14:33:56.859Z</time>
      </trkpt>
      <trkpt lat="49.32644" lon="1.33689">
        <ele>154</ele>
        <time>2026-08-11T14:34:00.941Z</time>
      </trkpt>
      <trkpt lat="49.32649" lon="1.33685">
        <ele>154</ele>
        <time>2026-08-11T14:34:05.142Z</time>
      </trkpt>
      <trkpt lat="49.32651" lon="1.3368">
        <ele>154</ele>
        <time>2026-08-11T14:34:09.224Z</time>
      </trkpt>
      <trkpt lat="49.32653" lon="1.33675">
        <ele>154</ele>
        <time>2026-08-11T14:34:13.330Z</time>
      </trkpt>
      <trkpt lat="49.32655" lon="1.33669">
        <ele>154</ele>
        <time>2026-08-11T14:34:17.924Z</time>
      </trkpt>
      <trkpt lat="49.32658" lon="1.33664">
        <ele>154</ele>
        <time>2026-08-11T14:34:22.542Z</time>
      </trkpt>
      <trkpt lat="49.32663" lon="1.33658">
        <ele>154</ele>
        <time>2026-08-11T14:34:27.220Z</time>
      </trkpt>
      <trkpt lat="49.32668" lon="1.33653">
        <ele>154</ele>
        <time>2026-08-11T14:34:31.302Z</time>
      </trkpt>
      <trkpt lat="49.3267" lon="1.33647">
        <ele>153</ele>
        <time>2026-08-11T14:34:35.920Z</time>
      </trkpt>
      <trkpt lat="49.32673" lon="1.33641">
        <ele>153</ele>
        <time>2026-08-11T14:34:40.002Z</time>
      </trkpt>
      <trkpt lat="49.32675" lon="1.33635">
        <ele>153</ele>
        <time>2026-08-11T14:34:44.123Z</time>
      </trkpt>
      <trkpt lat="49.32679" lon="1.33628">
        <ele>153</ele>
        <time>2026-08-11T14:34:48.195Z</time>
      </trkpt>
      <trkpt lat="49.32682" lon="1.3362">
        <ele>152</ele>
        <time>2026-08-11T14:34:52.257Z</time>
      </trkpt>
      <trkpt lat="49.32685" lon="1.33613">
        <ele>152</ele>
        <time>2026-08-11T14:34:56.327Z</time>
      </trkpt>
      <trkpt lat="49.32686" lon="1.33607">
        <ele>152</ele>
        <time>2026-08-11T14:35:00.481Z</time>
      </trkpt>
      <trkpt lat="49.32689" lon="1.336">
        <ele>152</ele>
        <time>2026-08-11T14:35:04.642Z</time>
      </trkpt>
      <trkpt lat="49.32693" lon="1.33594">
        <ele>153</ele>
        <time>2026-08-11T14:35:08.784Z</time>
      </trkpt>
      <trkpt lat="49.32695" lon="1.33586">
        <ele>153</ele>
        <time>2026-08-11T14:35:12.895Z</time>
      </trkpt>
      <trkpt lat="49.32695" lon="1.33579">
        <ele>153</ele>
        <time>2026-08-11T14:35:17.331Z</time>
      </trkpt>
      <trkpt lat="49.32695" lon="1.33573">
        <ele>153</ele>
        <time>2026-08-11T14:35:21.476Z</time>
      </trkpt>
      <trkpt lat="49.32698" lon="1.33566">
        <ele>153</ele>
        <time>2026-08-11T14:35:25.637Z</time>
      </trkpt>
      <trkpt lat="49.327" lon="1.33559">
        <ele>153</ele>
        <time>2026-08-11T14:35:29.699Z</time>
      </trkpt>
      <trkpt lat="49.32704" lon="1.33553">
        <ele>153</ele>
        <time>2026-08-11T14:35:33.861Z</time>
      </trkpt>
      <trkpt lat="49.32705" lon="1.33547">
        <ele>153</ele>
        <time>2026-08-11T14:35:38.062Z</time>
      </trkpt>
      <trkpt lat="49.32707" lon="1.3354">
        <ele>152</ele>
        <time>2026-08-11T14:35:42.263Z</time>
      </trkpt>
      <trkpt lat="49.32708" lon="1.33532">
        <ele>152</ele>
        <time>2026-08-11T14:35:46.861Z</time>
      </trkpt>
      <trkpt lat="49.32712" lon="1.33525">
        <ele>152</ele>
        <time>2026-08-11T14:35:50.983Z</time>
      </trkpt>
      <trkpt lat="49.32718" lon="1.33519">
        <ele>152</ele>
        <time>2026-08-11T14:35:55.114Z</time>
      </trkpt>
      <trkpt lat="49.32721" lon="1.33513">
        <ele>151</ele>
        <time>2026-08-11T14:35:59.295Z</time>
      </trkpt>
      <trkpt lat="49.32724" lon="1.33505">
        <ele>151</ele>
        <time>2026-08-11T14:36:03.324Z</time>
      </trkpt>
      <trkpt lat="49.32725" lon="1.33498">
        <ele>151</ele>
        <time>2026-08-11T14:36:07.326Z</time>
      </trkpt>
      <trkpt lat="49.32727" lon="1.33491">
        <ele>151</ele>
        <time>2026-08-11T14:36:12.097Z</time>
      </trkpt>
      <trkpt lat="49.3273" lon="1.33485">
        <ele>150</ele>
        <time>2026-08-11T14:36:16.179Z</time>
      </trkpt>
      <trkpt lat="49.32733" lon="1.33479">
        <ele>150</ele>
        <time>2026-08-11T14:36:20.837Z</time>
      </trkpt>
      <trkpt lat="49.32735" lon="1.33473">
        <ele>150</ele>
        <time>2026-08-11T14:36:24.959Z</time>
      </trkpt>
      <trkpt lat="49.32738" lon="1.33467">
        <ele>151</ele>
        <time>2026-08-11T14:36:29.021Z</time>
      </trkpt>
      <trkpt lat="49.32741" lon="1.3346">
        <ele>151</ele>
        <time>2026-08-11T14:36:33.619Z</time>
      </trkpt>
      <trkpt lat="49.32745" lon="1.33453">
        <ele>150</ele>
        <time>2026-08-11T14:36:37.701Z</time>
      </trkpt>
      <trkpt lat="49.32748" lon="1.33447">
        <ele>150</ele>
        <time>2026-08-11T14:36:41.803Z</time>
      </trkpt>
      <trkpt lat="49.32752" lon="1.3344">
        <ele>150</ele>
        <time>2026-08-11T14:36:46.328Z</time>
      </trkpt>
      <trkpt lat="49.32755" lon="1.33434">
        <ele>150</ele>
        <time>2026-08-11T14:36:50.721Z</time>
      </trkpt>
      <trkpt lat="49.32758" lon="1.33429">
        <ele>150</ele>
        <time>2026-08-11T14:36:54.902Z</time>
      </trkpt>
      <trkpt lat="49.32759" lon="1.33422">
        <ele>150</ele>
        <time>2026-08-11T14:36:58.954Z</time>
      </trkpt>
      <trkpt lat="49.32759" lon="1.33414">
        <ele>150</ele>
        <time>2026-08-11T14:37:03.155Z</time>
      </trkpt>
      <trkpt lat="49.32761" lon="1.33406">
        <ele>150</ele>
        <time>2026-08-11T14:37:07.198Z</time>
      </trkpt>
      <trkpt lat="49.32765" lon="1.33401">
        <ele>152</ele>
        <time>2026-08-11T14:37:11.327Z</time>
      </trkpt>
      <trkpt lat="49.3277" lon="1.33395">
        <ele>152</ele>
        <time>2026-08-11T14:37:16.037Z</time>
      </trkpt>
      <trkpt lat="49.32773" lon="1.33391">
        <ele>152</ele>
        <time>2026-08-11T14:37:20.119Z</time>
      </trkpt>
      <trkpt lat="49.32778" lon="1.33386">
        <ele>152</ele>
        <time>2026-08-11T14:37:24.300Z</time>
      </trkpt>
      <trkpt lat="49.32781" lon="1.33379">
        <ele>152</ele>
        <time>2026-08-11T14:37:28.330Z</time>
      </trkpt>
      <trkpt lat="49.32783" lon="1.33373">
        <ele>150</ele>
        <time>2026-08-11T14:37:33.059Z</time>
      </trkpt>
      <trkpt lat="49.32787" lon="1.33369">
        <ele>150</ele>
        <time>2026-08-11T14:37:37.241Z</time>
      </trkpt>
      <trkpt lat="49.32791" lon="1.33366">
        <ele>150</ele>
        <time>2026-08-11T14:37:41.323Z</time>
      </trkpt>
      <trkpt lat="49.32794" lon="1.33362">
        <ele>151</ele>
        <time>2026-08-11T14:37:45.329Z</time>
      </trkpt>
      <trkpt lat="49.32797" lon="1.3336">
        <ele>151</ele>
        <time>2026-08-11T14:37:49.476Z</time>
      </trkpt>
      <trkpt lat="49.32801" lon="1.33357">
        <ele>151</ele>
        <time>2026-08-11T14:37:53.777Z</time>
      </trkpt>
      <trkpt lat="49.32806" lon="1.33352">
        <ele>151</ele>
        <time>2026-08-11T14:37:57.958Z</time>
      </trkpt>
      <trkpt lat="49.32811" lon="1.33347">
        <ele>149</ele>
        <time>2026-08-11T14:38:02.060Z</time>
      </trkpt>
      <trkpt lat="49.32816" lon="1.33342">
        <ele>149</ele>
        <time>2026-08-11T14:38:06.102Z</time>
      </trkpt>
      <trkpt lat="49.32819" lon="1.33337">
        <ele>149</ele>
        <time>2026-08-11T14:38:10.223Z</time>
      </trkpt>
      <trkpt lat="49.32822" lon="1.33332">
        <ele>148</ele>
        <time>2026-08-11T14:38:14.338Z</time>
      </trkpt>
      <trkpt lat="49.32825" lon="1.3333">
        <ele>148</ele>
        <time>2026-08-11T14:38:19.003Z</time>
      </trkpt>
      <trkpt lat="49.32828" lon="1.33322">
        <ele>148</ele>
        <time>2026-08-11T14:38:23.075Z</time>
      </trkpt>
      <trkpt lat="49.32831" lon="1.33316">
        <ele>147</ele>
        <time>2026-08-11T14:38:27.584Z</time>
      </trkpt>
      <trkpt lat="49.32834" lon="1.3331">
        <ele>147</ele>
        <time>2026-08-11T14:38:31.884Z</time>
      </trkpt>
      <trkpt lat="49.32837" lon="1.33303">
        <ele>147</ele>
        <time>2026-08-11T14:38:36.502Z</time>
      </trkpt>
      <trkpt lat="49.3284" lon="1.33298">
        <ele>147</ele>
        <time>2026-08-11T14:38:40.495Z</time>
      </trkpt>
      <trkpt lat="49.32841" lon="1.33292">
        <ele>147</ele>
        <time>2026-08-11T14:38:44.616Z</time>
      </trkpt>
      <trkpt lat="49.32841" lon="1.33288">
        <ele>148</ele>
        <time>2026-08-11T14:38:48.698Z</time>
      </trkpt>
      <trkpt lat="49.3284" lon="1.33283">
        <ele>148</ele>
        <time>2026-08-11T14:38:52.780Z</time>
      </trkpt>
      <trkpt lat="49.32838" lon="1.33277">
        <ele>148</ele>
        <time>2026-08-11T14:38:57.080Z</time>
      </trkpt>
      <trkpt lat="49.32839" lon="1.33271">
        <ele>148</ele>
        <time>2026-08-11T14:39:01.222Z</time>
      </trkpt>
      <trkpt lat="49.32838" lon="1.33265">
        <ele>148</ele>
        <time>2026-08-11T14:39:05.622Z</time>
      </trkpt>
      <trkpt lat="49.32834" lon="1.33259">
        <ele>149</ele>
        <time>2026-08-11T14:39:09.922Z</time>
      </trkpt>
      <trkpt lat="49.3283" lon="1.33253">
        <ele>149</ele>
        <time>2026-08-11T14:39:14.123Z</time>
      </trkpt>
      <trkpt lat="49.32855" lon="1.33238">
        <ele>151</ele>
        <time>2026-08-11T14:39:18.326Z</time>
      </trkpt>
      <trkpt lat="49.32856" lon="1.33228">
        <ele>152</ele>
        <time>2026-08-11T14:39:22.823Z</time>
      </trkpt>
      <trkpt lat="49.32858" lon="1.33218">
        <ele>152</ele>
        <time>2026-08-11T14:39:27.044Z</time>
      </trkpt>
      <trkpt lat="49.32858" lon="1.33213">
        <ele>152</ele>
        <time>2026-08-11T14:39:31.156Z</time>
      </trkpt>
      <trkpt lat="49.32859" lon="1.33206">
        <ele>152</ele>
        <time>2026-08-11T14:39:35.198Z</time>
      </trkpt>
      <trkpt lat="49.32858" lon="1.33201">
        <ele>152</ele>
        <time>2026-08-11T14:39:39.657Z</time>
      </trkpt>
      <trkpt lat="49.32858" lon="1.33196">
        <ele>152</ele>
        <time>2026-08-11T14:39:44.328Z</time>
      </trkpt>
      <trkpt lat="49.32861" lon="1.33195">
        <ele>152</ele>
        <time>2026-08-11T14:39:59.331Z</time>
      </trkpt>
      <trkpt lat="49.32864" lon="1.33195">
        <ele>152</ele>
        <time>2026-08-11T14:40:03.331Z</time>
      </trkpt>
      <trkpt lat="49.32869" lon="1.33196">
        <ele>152</ele>
        <time>2026-08-11T14:40:07.644Z</time>
      </trkpt>
      <trkpt lat="49.32872" lon="1.33197">
        <ele>152</ele>
        <time>2026-08-11T14:40:11.696Z</time>
      </trkpt>
      <trkpt lat="49.32874" lon="1.33196">
        <ele>152</ele>
        <time>2026-08-11T14:40:16.294Z</time>
      </trkpt>
      <trkpt lat="49.32875" lon="1.33195">
        <ele>154</ele>
        <time>2026-08-11T14:40:20.863Z</time>
      </trkpt>
      <trkpt lat="49.32878" lon="1.33198">
        <ele>154</ele>
        <time>2026-08-11T14:40:25.323Z</time>
      </trkpt>
      <trkpt lat="49.32881" lon="1.332">
        <ele>154</ele>
        <time>2026-08-11T14:40:29.323Z</time>
      </trkpt>
      <trkpt lat="49.32885" lon="1.33203">
        <ele>154</ele>
        <time>2026-08-11T14:40:33.714Z</time>
      </trkpt>
      <trkpt lat="49.32889" lon="1.33208">
        <ele>154</ele>
        <time>2026-08-11T14:40:38.104Z</time>
      </trkpt>
      <trkpt lat="49.32892" lon="1.33215">
        <ele>154</ele>
        <time>2026-08-11T14:40:42.330Z</time>
      </trkpt>
      <trkpt lat="49.32896" lon="1.33223">
        <ele>154</ele>
        <time>2026-08-11T14:40:46.963Z</time>
      </trkpt>
      <trkpt lat="49.32899" lon="1.33228">
        <ele>154</ele>
        <time>2026-08-11T14:40:51.332Z</time>
      </trkpt>
      <trkpt lat="49.32903" lon="1.33233">
        <ele>154</ele>
        <time>2026-08-11T14:40:55.782Z</time>
      </trkpt>
      <trkpt lat="49.32907" lon="1.33237">
        <ele>155</ele>
        <time>2026-08-11T14:41:00.142Z</time>
      </trkpt>
      <trkpt lat="49.32911" lon="1.33241">
        <ele>155</ele>
        <time>2026-08-11T14:41:04.780Z</time>
      </trkpt>
      <trkpt lat="49.32915" lon="1.33247">
        <ele>155</ele>
        <time>2026-08-11T14:41:09.081Z</time>
      </trkpt>
      <trkpt lat="49.32918" lon="1.33256">
        <ele>155</ele>
        <time>2026-08-11T14:41:13.599Z</time>
      </trkpt>
      <trkpt lat="49.32921" lon="1.33264">
        <ele>155</ele>
        <time>2026-08-11T14:41:18.118Z</time>
      </trkpt>
      <trkpt lat="49.32925" lon="1.33269">
        <ele>154</ele>
        <time>2026-08-11T14:41:22.637Z</time>
      </trkpt>
      <trkpt lat="49.32929" lon="1.33274">
        <ele>154</ele>
        <time>2026-08-11T14:41:27.077Z</time>
      </trkpt>
      <trkpt lat="49.32934" lon="1.33279">
        <ele>156</ele>
        <time>2026-08-11T14:41:31.754Z</time>
      </trkpt>
      <trkpt lat="49.32938" lon="1.33283">
        <ele>156</ele>
        <time>2026-08-11T14:41:36.114Z</time>
      </trkpt>
      <trkpt lat="49.32942" lon="1.33287">
        <ele>156</ele>
        <time>2026-08-11T14:41:40.643Z</time>
      </trkpt>
      <trkpt lat="49.32946" lon="1.33291">
        <ele>156</ele>
        <time>2026-08-11T14:41:45.063Z</time>
      </trkpt>
      <trkpt lat="49.3295" lon="1.33295">
        <ele>154</ele>
        <time>2026-08-11T14:41:49.323Z</time>
      </trkpt>
      <trkpt lat="49.32955" lon="1.33298">
        <ele>154</ele>
        <time>2026-08-11T14:41:53.723Z</time>
      </trkpt>
      <trkpt lat="49.32959" lon="1.333">
        <ele>153</ele>
        <time>2026-08-11T14:41:58.262Z</time>
      </trkpt>
      <trkpt lat="49.32964" lon="1.33302">
        <ele>153</ele>
        <time>2026-08-11T14:42:02.661Z</time>
      </trkpt>
      <trkpt lat="49.32969" lon="1.33305">
        <ele>153</ele>
        <time>2026-08-11T14:42:07.041Z</time>
      </trkpt>
      <trkpt lat="49.32972" lon="1.33309">
        <ele>153</ele>
        <time>2026-08-11T14:42:11.327Z</time>
      </trkpt>
      <trkpt lat="49.32977" lon="1.33309">
        <ele>153</ele>
        <time>2026-08-11T14:42:15.880Z</time>
      </trkpt>
      <trkpt lat="49.32981" lon="1.3331">
        <ele>153</ele>
        <time>2026-08-11T14:42:20.320Z</time>
      </trkpt>
      <trkpt lat="49.32985" lon="1.3331">
        <ele>153</ele>
        <time>2026-08-11T14:42:24.759Z</time>
      </trkpt>
      <trkpt lat="49.32989" lon="1.33312">
        <ele>150</ele>
        <time>2026-08-11T14:42:29.060Z</time>
      </trkpt>
      <trkpt lat="49.32993" lon="1.33314">
        <ele>150</ele>
        <time>2026-08-11T14:42:33.658Z</time>
      </trkpt>
      <trkpt lat="49.32997" lon="1.33317">
        <ele>150</ele>
        <time>2026-08-11T14:42:37.939Z</time>
      </trkpt>
      <trkpt lat="49.33001" lon="1.3332">
        <ele>146</ele>
        <time>2026-08-11T14:42:42.279Z</time>
      </trkpt>
      <trkpt lat="49.33005" lon="1.33322">
        <ele>146</ele>
        <time>2026-08-11T14:42:46.301Z</time>
      </trkpt>
      <trkpt lat="49.33009" lon="1.33323">
        <ele>146</ele>
        <time>2026-08-11T14:42:50.621Z</time>
      </trkpt>
      <trkpt lat="49.33013" lon="1.33326">
        <ele>146</ele>
        <time>2026-08-11T14:42:54.802Z</time>
      </trkpt>
      <trkpt lat="49.33018" lon="1.3333">
        <ele>143</ele>
        <time>2026-08-11T14:42:59.103Z</time>
      </trkpt>
      <trkpt lat="49.33022" lon="1.33334">
        <ele>143</ele>
        <time>2026-08-11T14:43:03.331Z</time>
      </trkpt>
      <trkpt lat="49.33025" lon="1.33336">
        <ele>143</ele>
        <time>2026-08-11T14:43:07.594Z</time>
      </trkpt>
      <trkpt lat="49.33029" lon="1.33338">
        <ele>143</ele>
        <time>2026-08-11T14:43:11.895Z</time>
      </trkpt>
      <trkpt lat="49.33033" lon="1.33341">
        <ele>143</ele>
        <time>2026-08-11T14:43:15.897Z</time>
      </trkpt>
      <trkpt lat="49.33036" lon="1.33345">
        <ele>143</ele>
        <time>2026-08-11T14:43:20.118Z</time>
      </trkpt>
      <trkpt lat="49.33041" lon="1.33347">
        <ele>143</ele>
        <time>2026-08-11T14:43:24.220Z</time>
      </trkpt>
      <trkpt lat="49.33044" lon="1.33346">
        <ele>142</ele>
        <time>2026-08-11T14:43:28.262Z</time>
      </trkpt>
      <trkpt lat="49.33047" lon="1.33352">
        <ele>141</ele>
        <time>2026-08-11T14:43:32.423Z</time>
      </trkpt>
      <trkpt lat="49.33051" lon="1.33357">
        <ele>141</ele>
        <time>2026-08-11T14:43:36.903Z</time>
      </trkpt>
      <trkpt lat="49.33056" lon="1.33362">
        <ele>141</ele>
        <time>2026-08-11T14:43:41.322Z</time>
      </trkpt>
      <trkpt lat="49.33059" lon="1.33365">
        <ele>141</ele>
        <time>2026-08-11T14:43:45.315Z</time>
      </trkpt>
      <trkpt lat="49.33062" lon="1.33371">
        <ele>141</ele>
        <time>2026-08-11T14:43:49.595Z</time>
      </trkpt>
      <trkpt lat="49.33065" lon="1.33376">
        <ele>140</ele>
        <time>2026-08-11T14:43:53.796Z</time>
      </trkpt>
      <trkpt lat="49.3307" lon="1.33382">
        <ele>141</ele>
        <time>2026-08-11T14:43:58.057Z</time>
      </trkpt>
      <trkpt lat="49.33074" lon="1.33385">
        <ele>141</ele>
        <time>2026-08-11T14:44:02.318Z</time>
      </trkpt>
      <trkpt lat="49.33079" lon="1.33387">
        <ele>141</ele>
        <time>2026-08-11T14:44:06.499Z</time>
      </trkpt>
      <trkpt lat="49.33084" lon="1.33391">
        <ele>141</ele>
        <time>2026-08-11T14:44:10.819Z</time>
      </trkpt>
      <trkpt lat="49.33088" lon="1.33394">
        <ele>141</ele>
        <time>2026-08-11T14:44:15.080Z</time>
      </trkpt>
      <trkpt lat="49.33092" lon="1.33395">
        <ele>141</ele>
        <time>2026-08-11T14:44:19.324Z</time>
      </trkpt>
      <trkpt lat="49.33097" lon="1.33394">
        <ele>141</ele>
        <time>2026-08-11T14:44:23.740Z</time>
      </trkpt>
      <trkpt lat="49.33101" lon="1.33396">
        <ele>142</ele>
        <time>2026-08-11T14:44:28.100Z</time>
      </trkpt>
      <trkpt lat="49.33106" lon="1.33399">
        <ele>142</ele>
        <time>2026-08-11T14:44:32.242Z</time>
      </trkpt>
      <trkpt lat="49.33111" lon="1.33404">
        <ele>141</ele>
        <time>2026-08-11T14:44:36.324Z</time>
      </trkpt>
      <trkpt lat="49.33115" lon="1.33406">
        <ele>141</ele>
        <time>2026-08-11T14:44:40.683Z</time>
      </trkpt>
      <trkpt lat="49.33119" lon="1.33408">
        <ele>141</ele>
        <time>2026-08-11T14:44:44.944Z</time>
      </trkpt>
      <trkpt lat="49.33124" lon="1.33409">
        <ele>141</ele>
        <time>2026-08-11T14:44:49.175Z</time>
      </trkpt>
      <trkpt lat="49.33128" lon="1.33411">
        <ele>140</ele>
        <time>2026-08-11T14:44:53.664Z</time>
      </trkpt>
      <trkpt lat="49.33132" lon="1.33411">
        <ele>140</ele>
        <time>2026-08-11T14:44:58.223Z</time>
      </trkpt>
      <trkpt lat="49.33132" lon="1.3341">
        <ele>140</ele>
        <time>2026-08-11T14:45:02.322Z</time>
      </trkpt>
      <trkpt lat="49.33132" lon="1.3341">
        <ele>140</ele>
        <time>2026-08-11T14:45:06.330Z</time>
      </trkpt>
      <trkpt lat="49.33137" lon="1.33411">
        <ele>140</ele>
        <time>2026-08-11T14:45:10.737Z</time>
      </trkpt>
      <trkpt lat="49.33141" lon="1.33412">
        <ele>140</ele>
        <time>2026-08-11T14:45:15.077Z</time>
      </trkpt>
      <trkpt lat="49.33145" lon="1.33413">
        <ele>140</ele>
        <time>2026-08-11T14:45:19.199Z</time>
      </trkpt>
      <trkpt lat="49.33149" lon="1.33416">
        <ele>140</ele>
        <time>2026-08-11T14:45:23.678Z</time>
      </trkpt>
      <trkpt lat="49.33152" lon="1.3342">
        <ele>140</ele>
        <time>2026-08-11T14:45:28.256Z</time>
      </trkpt>
      <trkpt lat="49.33155" lon="1.33424">
        <ele>138</ele>
        <time>2026-08-11T14:45:32.795Z</time>
      </trkpt>
      <trkpt lat="49.33158" lon="1.33429">
        <ele>138</ele>
        <time>2026-08-11T14:45:37.339Z</time>
      </trkpt>
      <trkpt lat="49.33161" lon="1.33432">
        <ele>137</ele>
        <time>2026-08-11T14:45:42.220Z</time>
      </trkpt>
      <trkpt lat="49.33163" lon="1.33434">
        <ele>137</ele>
        <time>2026-08-11T14:45:46.326Z</time>
      </trkpt>
      <trkpt lat="49.33162" lon="1.33441">
        <ele>137</ele>
        <time>2026-08-11T14:45:50.821Z</time>
      </trkpt>
      <trkpt lat="49.33161" lon="1.33447">
        <ele>137</ele>
        <time>2026-08-11T14:45:55.002Z</time>
      </trkpt>
      <trkpt lat="49.3316" lon="1.33464">
        <ele>138</ele>
        <time>2026-08-11T14:46:15.320Z</time>
      </trkpt>
      <trkpt lat="49.33161" lon="1.33464">
        <ele>138</ele>
        <time>2026-08-11T14:46:19.332Z</time>
      </trkpt>
      <trkpt lat="49.3316" lon="1.33466">
        <ele>138</ele>
        <time>2026-08-11T14:46:23.556Z</time>
      </trkpt>
      <trkpt lat="49.3316" lon="1.33467">
        <ele>138</ele>
        <time>2026-08-11T14:46:29.328Z</time>
      </trkpt>
      <trkpt lat="49.33161" lon="1.33468">
        <ele>138</ele>
        <time>2026-08-11T14:46:35.318Z</time>
      </trkpt>
    </trkseg>
  </trk>
</gpx>